[[{"header":{"parameterUnit":"m.s-1","parameterCategory":1,"la1":31.0,"la2":29.5877,"lo1":-88.7671,"lo2":-86.6584,"dy":0.0162,"dx":0.0185,"nx":115,"ny":88,"refTime":"2024-06-17T06:00:00:Z","depth":0,"parameterNumber":2,"parameterNumberName":"U-component_of_WINDS"},"data":[0.0,0.0,0.0,0.0,0.0,0.0,0.0,0.0,0.0,0.0,0.0,0.0,0.0,0.0,0.0,0.0,0.0,0.0,0.0,0.0,0.0,0.0,0.0,0.0,0.0,0.0,0.0,0.0,0.0,0.0,0.0,0.0,0.0,0.0,0.0,0.0,0.0,0.0,0.0,0.0,0.0,0.0,0.0,0.0,0.0,0.0,0.0,0.0,0.0,0.0,0.0,0.0,0.0,0.0,0.0,0.0,0.0,0.0,0.0,0.0,0.0,0.0,0.0,0.0,0.0,0.0,0.0,0.0,0.0,0.0,0.0,0.0,0.0,0.0,0.0,0.0,0.0,0.0,0.0,0.0,0.0,0.0,0.0,0.0,0.0,0.0,0.0,0.0,0.0,0.0,0.0,0.0,0.0,0.0,0.0,0.0,0.0,0.0,0.0,0.0,0.0,0.0,0.0,0.0,0.0,0.0,0.0,0.0,0.0,0.0,0.0,0.0,0.0,0.0,0.0,0.0,0.0,0.0,0.0,0.0,0.0,0.0,0.0,0.0,0.0,0.0,0.0,0.0,0.0,0.0,0.0,0.0,0.0,0.0,0.0,0.0,0.0,0.0,0.0,0.0,0.0,0.0,0.0,0.0,0.0,0.0,0.0,0.0,0.0,0.0,0.0,0.0,0.0,0.0,0.0,0.0,0.0,0.0,0.0,0.0,0.0,0.0,0.0,0.0,0.0,0.0,0.0,0.0,0.0,0.0,0.0,0.0,0.0,0.0,0.0,0.0,0.0,0.0,0.0,0.0,0.0,0.0,0.0,0.0,0.0,0.0,0.0,0.0,0.0,0.0,0.0,0.0,0.0,0.0,0.0,0.0,0.0,0.0,0.0,0.0,0.0,0.0,0.0,0.0,0.0,0.0,0.0,0.0,0.0,0.0,0.0,0.0,0.0,0.0,0.0,0.0,0.0,0.0,0.0,0.0,0.0,0.0,0.0,0.0,0.0,0.0,0.0,0.0,0.0,0.0,0.0,0.0,0.0,0.0,0.0,0.0,0.0,0.0,0.0,0.0,0.0,0.0,0.0,0.0,0.0,0.0,0.0,0.0,0.0,0.0,0.0,0.0,0.0,0.0,0.0,0.0,0.0,0.0,0.0,0.0,0.0,0.0,0.0,0.0,0.0,0.0,0.0,0.0,0.0,0.0,0.0,0.0,0.0,0.0,0.0,0.0,0.0,0.0,0.0,0.0,0.0,0.0,0.0,0.0,0.0,0.0,0.0,0.0,0.0,0.0,0.0,0.0,0.0,0.0,0.0,0.0,0.0,0.0,0.0,0.0,0.0,0.0,0.0,0.0,0.0,0.0,0.0,0.0,0.0,0.0,0.0,0.0,0.0,0.0,0.0,0.0,0.0,0.0,0.0,0.0,0.0,0.0,0.0,0.0,0.0,0.0,0.0,0.0,0.0,0.0,0.0,0.0,0.0,0.0,0.0,0.0,0.0,0.0,0.0,0.0,0.0,0.0,0.0,0.0,0.0,0.0,0.0,0.0,0.0,0.0,0.0,0.0,0.0,0.0,0.0,0.0,0.0,0.0,0.0,0.0,0.0,0.0,0.0,0.0,0.0,0.0,0.0,0.0,0.0,0.0,0.0,0.0,0.0,0.0,0.0,0.0,0.0,0.0,0.0,0.0,0.0,0.0,0.0,0.0,0.0,0.0,0.0,0.0,0.0,0.0,0.0,0.0,0.0,0.0,0.0,0.0,0.0,0.0,0.0,0.0,0.0,0.0,0.0,0.0,0.0,0.0,0.0,0.0,0.0,0.0,0.0,0.0,0.0,0.0,0.0,0.0,0.0,0.0,0.0,0.0,0.0,0.0,0.0,0.0,0.0,0.0,0.0,0.0,0.0,0.0,0.0,0.0,0.0,0.0,0.0,0.0,0.0,0.0,0.0,0.0,0.0,0.0,0.0,0.0,0.0,0.0,0.0,0.0,0.0,0.0,0.0,0.0,0.0,0.0,0.0,0.0,0.0,0.0,0.0,0.0,0.0,0.0,0.0,0.0,0.0,0.0,0.0,0.0,0.0,0.0,0.0,0.0,0.0,0.0,0.0,0.0,0.0,0.0,0.0,0.0,0.0,0.0,0.0,0.0,0.0,0.0,0.0,0.0,0.0,0.0,0.0,0.0,0.0,0.0,0.0,0.0,0.0,0.0,0.0,0.0,0.0,0.0,0.0,0.0,0.0,0.0,0.0,0.0,0.0,0.0,0.0,0.0,0.0,0.0,0.0,0.0,0.0,0.0,0.0,0.0,0.0,0.0,0.0,0.0,0.0,0.0,0.0,0.0,0.0,0.0,0.0,0.0,0.0,0.0,0.0,0.0,0.0,0.0,0.0,0.0,0.0,0.0,0.0,0.0,0.0,0.0,0.0,0.0,0.0,0.0,0.0,0.0,0.0,0.0,0.0,0.0,0.0,0.0,0.0,0.0,0.0,0.0,0.0,0.0,0.0,0.0,0.0,0.0,0.0,0.0,0.0,0.0,0.0,0.0,0.0,0.0,0.0,0.0,0.0,0.0,0.0,0.0,0.0,0.0,0.0,0.0,0.0,0.0,0.0,0.0,0.0,0.0,0.0,0.0,0.0,0.0,0.0,0.0,0.0,0.0,0.0,0.0,0.0,0.0,0.0,0.0,0.0,0.0,0.0,0.0,0.0,0.0,0.0,0.0,0.0,0.0,0.0,0.0,0.0,0.0,0.0,0.0,0.0,0.0,0.0,0.0,0.0,0.0,0.0,0.0,0.0,0.0,0.0,0.0,0.0,0.0,0.0,0.0,0.0,0.0,0.0,0.0,0.0,0.0,0.0,0.0,0.0,0.0,0.0,0.0,0.0,0.0,0.0,0.0,0.0,0.0,0.0,0.0,0.0,0.0,0.0,0.0,0.0,0.0,0.0,0.0,0.0,0.0,0.0,0.0,0.0,0.0,0.0,0.0,0.0,0.0,0.0,0.0,0.0,0.0,0.0,0.0,0.0,0.0,0.0,0.0,0.0,0.0,0.0,0.0,0.0,0.0,0.0,0.0,0.0,0.0,0.0,0.0,0.0,0.0,0.0,0.0,0.0,0.0,0.0,0.0,0.0,0.0,0.0,0.0,0.0,0.0,0.0,0.0,0.0,0.0,0.0,0.0,0.0,0.0,0.0,0.0,0.0,0.0,0.0,0.0,0.0,0.0,0.0,0.0,0.0,0.0,0.0,0.0,0.0,0.0,0.0,0.0,0.0,0.0,0.0,0.0,0.0,0.0,0.0,0.0,0.0,0.0,0.0,0.0,0.0,0.0,0.0,0.0,0.0,0.0,0.0,0.0,0.0,0.0,0.0,0.0,0.0,0.0,0.0,0.0,0.0,0.0,0.0,0.0,0.0,0.0,0.0,0.0,0.0,0.0,0.0,0.0,0.0,0.0,0.0,0.0,0.0,0.0,0.0,0.0,0.0,0.0,0.0,0.0,0.0,0.0,0.0,0.0,0.0,0.0,0.0,0.0,0.0,0.0,0.0,0.0,0.0,0.0,0.0,0.0,0.0,0.0,0.0,0.0,0.0,0.0,0.0,0.0,0.0,0.0,0.0,0.0,0.0,0.0,0.0,0.0,0.0,0.0,0.0,0.0,0.0,0.0,0.0,0.0,0.0,0.0,0.0,0.0,0.0,0.0,0.0,0.0,0.0,0.0,0.0,0.0,0.0,0.0,0.0,0.0,0.0,0.0,0.0,0.0,0.0,0.0,0.0,0.0,0.0,0.0,0.0,0.0,0.0,0.0,0.0,0.0,0.0,0.0,0.0,0.0,0.0,0.0,0.0,0.0,0.0,0.0,0.0,0.0,0.0,0.0,0.0,0.0,0.0,0.0,0.0,0.0,0.0,0.0,0.0,0.0,0.0,0.0,0.0,0.0,0.0,0.0,0.0,0.0,0.0,0.0,0.0,0.0,0.0,0.0,0.0,0.0,0.0,0.0,0.0,0.0,0.0,0.0,0.0,0.0,0.0,0.0,0.0,0.0,0.0,0.0,0.0,0.0,0.0,0.0,0.0,0.0,0.0,0.0,0.0,0.0,0.0,0.0,0.0,0.0,0.0,0.0,0.0,0.0,0.0,0.0,0.0,0.0,0.0,0.0,0.0,0.0,0.0,0.0,0.0,0.0,0.0,0.0,0.0,0.0,0.0,0.0,0.0,0.0,0.0,0.0,0.0,0.0,0.0,0.0,0.0,0.0,0.0144,0.0,0.0,0.0,0.0736,0.0,0.0,0.0,0.0,0.0,0.0,0.0,0.0,0.0,0.0,0.0,0.0,0.0,0.0,0.0,0.0,0.0,0.0,0.0,0.0,0.0,0.0,0.0,0.0,0.0,0.0,0.0,0.0,0.0,0.0,0.0,0.0,0.0,0.0,0.0,0.0,0.0,0.0,0.0,0.0,0.0,0.0,0.0,0.0,0.0,0.0,0.0,0.0,0.0,0.0,0.0,0.0,0.0,0.0,0.0,0.0,0.0,0.0,0.0,0.0,0.0,0.0,0.0,0.0,0.0,0.0,0.0,0.0,0.0,0.0,0.0,0.0,0.0,0.0,0.0,0.0,0.0,0.0,0.0,0.0,0.0,0.0,0.0,0.0,0.0,0.0,0.0,0.0,0.0,0.0,0.0,0.0,0.0,0.0,0.0,0.0,0.0,0.0,0.0,0.0,0.0,0.0,0.0,0.0,0.0,0.0,0.0,0.0,0.0,0.0,-0.1326,-0.1324,-0.1108,-0.0839,-0.0576,0.0,0.0,0.0,0.0,0.0,0.0,0.0,0.0,0.0,0.0,0.0,0.0,0.0,0.0,0.0,0.0,0.0,0.0,0.0,0.0,0.0,0.0,0.0,0.0,0.0,0.0,0.0,0.0,0.0,0.0,0.0,0.0,0.0,0.0,0.0,0.0,0.0,0.0,0.0,0.0,0.0,0.0,0.0,0.0,0.0,0.0,0.0,0.0,0.0,0.0,0.0,0.0,0.0,0.0,0.0,0.0,0.0,0.0,0.0,0.0,0.0,0.0,0.0,0.0,0.0,0.0,0.0,0.0,0.0,0.0,0.0,0.0,0.0,0.0,0.0,0.0,0.0,0.0,0.0,0.0,0.0,0.0,0.0,0.0,0.0,0.0,0.0,0.0,0.0,0.0,0.0,0.0,0.0,0.0,0.0,0.0,0.0,0.0,0.0,0.0,0.0,0.0,0.0,0.0,0.0,0.0,0.0,0.0,0.0,0.0,0.0,0.0,-0.2569,-0.2259,-0.1772,0.0,0.0,0.0,0.0,0.0,0.0,0.0,0.0,0.0,0.0,0.0,0.0,0.0,0.0,0.0,0.0,0.0,0.0,0.0,0.0,0.0,0.0,0.0,0.0,0.0,0.0,0.0,0.0,0.0,0.0,0.0,0.0,0.0,0.0,0.0,0.0,0.0,0.0,0.0,0.0,0.0,0.0,0.0,0.0,0.0,0.0,0.0,0.0,0.0,0.0,0.0,0.0,0.0,0.0,0.0,0.0,0.0,0.0,0.0,0.0,0.0,0.0,0.0,0.0,0.0,0.0,0.0,0.0,0.0,0.0,0.0,0.0,0.0,0.0,0.0,0.0,0.0,0.0,0.0,0.0,0.0,0.0,0.0,0.0,0.0,0.0,0.0,0.0,0.0,0.0,0.0,0.0,0.0,0.0,0.0,0.0,0.0,0.0,0.0,0.0,0.0,0.0,0.0,0.0,0.0,0.0,0.0,0.0,0.0,0.0,-0.3985,-0.3867,-0.3845,0.0,-0.2378,0.0,0.0,0.0,0.0,0.0,0.0,0.0,0.0,0.0,0.0,0.0,0.0,0.0,0.0,0.0,0.0,0.0,0.0,0.0,0.0,0.0,0.0,0.0,0.0,0.0,0.0,0.0,0.0,0.0,0.0,0.0,0.0,0.0,0.0,0.0,0.0,0.0,0.0,0.0,0.0,0.0,0.0,0.0,0.0,0.0,0.0,0.0,0.0,0.0,0.0,0.0,0.0,0.0,0.0,0.0,0.0,0.0,0.0,0.0,0.0,0.0,0.0,0.0,0.0,0.0,0.0,0.0,0.0,0.0,0.0,0.0,0.0,0.0,0.0,0.0,0.0,0.0,0.0,0.0,0.0,0.0,0.0,0.0,0.0,0.0,0.0,0.0,0.0,0.0,0.0,0.0,0.0,0.0,0.0,0.0,0.0,0.0,0.0,0.0,0.0,0.0,0.0,0.0,0.0,0.0,0.0,0.0,0.0,0.0,0.0,-0.5335,-0.5185,-0.4986,-0.4463,0.0,0.0,0.0,0.0,0.0,0.0,0.0,0.0,0.0,0.0,0.0,0.0,0.0,0.0,0.0,0.0,0.0,0.0,0.0,0.0,0.0,0.0,0.0,0.0,0.0,0.0,0.0,0.0,0.0,0.0,0.0,0.0,0.0,0.0,0.0,0.0,0.0,0.0,0.0,0.0,0.0,0.0,0.0,0.0,0.0,0.0,0.0,0.0,0.0,0.0,0.0,0.0,0.0,0.0,0.0,0.0,0.0,0.0,0.0,0.0,0.0,0.0,0.0,0.0,0.0,0.0,0.0,0.0,0.0,0.0,0.0,0.0,0.0,0.0,0.0,0.0,0.0,0.0,0.0,0.0,0.0,0.0,0.0,0.0,0.0,0.0,0.0,0.0,0.0,0.0,0.0,0.0,0.0,0.0,0.0,0.0,0.0,0.0,0.0,0.0,0.0,0.0,0.0,0.0,0.0,0.0,0.0,0.0,0.0,0.0,-0.6197,-0.6484,-0.6403,-0.6048,-0.5437,-0.4646,0.0,0.0,0.0,0.0,0.0,0.0,0.0,0.0,0.0,0.0,0.0,0.0,0.0,0.0,0.0,0.0,0.0,0.0,0.0,0.0,0.0,0.0,0.0,0.0,0.0,0.0,0.0,0.0,0.0,0.0,0.0,0.0,0.0,0.0,0.0,0.0,0.0,0.0,0.0,0.0,0.0,0.0,0.0,0.0,0.0,0.0,0.0,0.0,0.0,0.0,0.0,0.0,0.0,0.0,0.0,0.0,0.0,0.0,0.0,0.0,0.0,0.0,0.0,0.0,0.0,0.0,0.0,0.0,0.0,0.0,0.0,0.0,0.0,0.0,0.0,0.0,0.0,0.0,0.0,0.0,0.0,0.0,0.0,0.0,0.0,0.0,0.0,0.0,0.0,0.0,0.0,0.0,0.0,0.0,0.0,0.0,0.0,0.0,0.0,0.0,0.0,0.0,0.0,0.0,0.0,0.0,0.0,0.0,-0.6726,-0.7086,-0.7312,-0.7436,-0.684,-0.6269,0.0,0.0,0.0,0.0,0.0,0.0,0.0,0.0,0.0,0.0,0.0,0.0,0.0,0.0,0.0,0.0,0.0,0.0,0.0,0.0,0.0,0.0,0.0,0.0,0.0,0.0,0.0,0.0,0.0,0.0,0.0,0.0,0.0,0.0,0.0,0.0,0.0,0.0,0.0,0.0,0.0,0.0,0.0,0.0,0.0,0.0,0.0,0.0,0.0,0.0,0.0,0.0,0.0,0.0,0.0,0.0,0.0,0.0,0.0,0.0,0.0,0.0,0.0,0.0,0.0,0.0,0.0,0.0,0.0,0.0,0.0,0.0,0.0,0.0,0.0,0.0,0.0,0.0,0.0,0.0,0.0,0.0,0.0,0.0,0.0,0.0,0.0,0.0,0.0,0.0,0.0,0.0,0.0,0.0,0.0,0.0,0.0,0.0,0.0,0.0,0.0,0.0,0.0,0.0,0.0,0.0,0.0,0.0,0.0,-0.7466,-0.7908,-0.8167,-0.8193,-0.7692,-0.7232,0.0,0.0,0.0,0.0,0.0,0.0,0.0,0.0,0.0,0.0,0.0,0.0,0.0,0.0,0.0,0.0,0.0,0.0,0.0,0.0,0.0,0.0,0.0,0.0,0.0,0.0,0.0,0.0,0.0,0.0,0.0,0.0,0.0,0.0,0.0,0.0,0.0,0.0,0.0,0.0,0.0,0.0,0.0,0.0,0.0,0.0,0.0,0.0,0.0,0.0,0.0,0.0,0.0,0.0,0.0,0.0,0.0,0.0,0.0,0.0,0.0,0.0,0.0,0.0,0.0,0.0,0.0,0.0,0.0,0.0,0.0,0.0,0.0,0.0,0.0,0.0,0.0,0.0,0.0,0.0,0.0,0.0,0.0,0.0,0.0,0.0,0.0,0.0,0.0,0.0,0.0,0.0,0.0,0.0,0.0,0.0,0.0,0.0,0.0,0.0,0.0,0.0,0.0,0.0,0.0,0.0,0.0,0.0,0.0,-0.8597,0.0,-0.9438,-0.9288,-0.8708,-0.8195,0.0,0.0,0.0,0.0,0.0,0.0,0.0,0.0,0.0,0.0,0.0,0.0,0.0,0.0,0.0,0.0,0.0,0.0,0.0,0.0,0.0,0.0,0.0,0.0,0.0,0.0,0.0,0.0,0.0,0.0,0.0,0.0,0.0,0.0,0.0,0.0,0.0,0.0,0.0,0.0,0.0,0.0,0.0,0.0,0.0,0.0,0.0,0.0,0.0,0.0,0.0,0.0,0.0,0.0,0.0,0.0,0.0,0.0,0.0,0.0,0.0,0.0,0.0,0.0,0.0,0.0,0.0,0.0,0.0,0.0,0.0,0.0,0.0,0.0,0.0,0.0,0.0,0.0,0.0,0.0,0.0,0.0,0.0,0.0,0.0,0.0,0.0,0.0,0.0,0.0,0.0,0.0,0.0,0.0,0.0,0.0,0.0,0.0,0.0,0.0,0.0,0.0,0.0,0.0,0.0,0.0,0.0,0.0,-0.9181,-1.0289,-1.1025,-1.1162,-1.0701,-0.9952,-0.9177,0.0,0.0,0.0,0.0,0.0,0.0,0.0,0.0,0.0,0.0,0.0,0.0,0.0,0.0,0.0,0.0,0.0,0.0,0.0,0.0,0.0,0.0,0.0,0.0,0.0,0.0,0.0,0.0,0.0,0.0,0.0,0.0,0.0,0.0,0.0,0.0,0.0,0.0,0.0,0.0,0.0,0.0,0.0,0.0,0.0,0.0,0.0,0.0,0.0,0.0,0.0,0.0,0.0,0.0,0.0,0.0,0.0,0.0,0.0,0.0,0.0,0.0,0.0,0.0,0.0,0.0,0.0,0.0,0.0,0.0,0.0,0.0,0.0,0.0,0.0,0.0,0.0,0.0,0.0,0.0,0.0,0.0,0.0,0.0,0.0,0.0,0.0,0.0,0.0,0.0,0.0,0.0,0.0,0.0,0.0,0.0,0.0,0.0,0.0,0.0,0.0,0.0,0.0,0.0,0.0,0.0,0.0,0.0,0.0,-1.156,-1.2135,-1.2191,-1.1682,-1.1147,-1.0386,0.0,0.0,0.0,0.0,0.0,0.0,0.0,0.0,0.0,0.0,0.0,0.0,0.0,0.0,0.0,0.0,0.0,0.0,0.0,0.0,0.0,0.0,0.0,0.0,0.0,0.0,0.0,0.0,0.0,0.0,0.0,0.0,0.0,0.0,0.0,0.0,0.0,0.0,0.0,0.0,0.0,0.0,0.0,0.0,0.0,0.0,0.0,0.0,0.0,0.0,0.0,0.0,0.0,0.0,0.0,0.0,0.0,0.0,0.0,0.0,0.0,0.0,0.0,0.0,0.0,0.0,0.0,0.0,0.0,0.0,0.0,0.0,0.0,0.0,0.0,0.0,0.0,0.0,0.0,0.0,0.0,0.0,0.0,0.0,0.0,0.0,0.0,0.0,0.0,0.0,0.0,0.0,0.0,0.0,0.0,0.0,0.0,0.0,0.0,0.0,0.0,0.0,0.0,0.0,0.0,0.0,0.0,0.0,0.0,-1.3558,-1.379,-1.371,-1.3083,-1.2572,-1.1684,-1.0357,0.0,0.0,0.0,0.0,0.0,0.0,0.0,0.0,0.0,0.0,0.0,0.0,0.0,0.0,0.0,0.0,0.0,0.0,0.0,0.0,0.0,0.0,0.0,0.0,0.0,0.0,0.0,0.0,0.0,0.0,0.0,0.0,0.0,0.0,0.0,0.0,0.0,0.0,0.0,0.0,0.0,0.0,0.0,0.0,0.0,0.0,0.0,0.0,0.0,0.0,0.0,0.0,0.0,0.0,0.0,0.0,0.0,0.0,0.0,0.0,0.0,0.0,0.0,0.0,0.0,0.0,0.0,0.0,0.0,0.0,0.0,0.0,0.0,0.0,0.0,0.0,0.0,0.0,0.0,0.0,0.0,0.0,0.0,0.0,0.0,0.0,0.0,0.0,0.0,0.0,0.0,0.0,0.0,0.0,0.0,0.0,0.0,0.0,0.0,0.0,0.0,0.0,0.0,0.0,0.0,0.0,0.0,0.0,-1.5883,-1.5953,-1.553,-1.4731,-1.4072,-1.2997,0.0,0.0,0.0,0.0,0.0,0.0,0.0,0.0,0.0,0.0,0.0,0.0,0.0,0.0,0.0,0.0,0.0,0.0,0.0,0.0,0.0,0.0,0.0,0.0,0.0,0.0,0.0,0.0,0.0,0.0,0.0,0.0,0.0,0.0,0.0,0.0,0.0,0.0,0.0,0.0,0.0,0.0,0.0,0.0,0.0,0.0,0.0,0.0,0.0,0.0,0.0,0.0,0.0,0.0,0.0,0.0,0.0,0.0,0.0,0.0,0.0,0.0,0.0,0.0,0.0,0.0,0.0,0.0,0.0,0.0,0.0,0.0,0.0,0.0,0.0,0.0,0.0,0.0,0.0,0.0,0.0,0.0,0.0,0.0,0.0,0.0,0.0,0.0,0.0,0.0,0.0,0.0,0.0,0.0,0.0,0.0,0.0,0.0,0.0,0.0,0.0,0.0,0.0,0.0,0.0,0.0,0.0,0.0,0.0,-1.6903,-1.7488,-1.7072,-1.5575,-1.5094,-1.4186,0.0,0.0,0.0,0.0,0.0,0.0,0.0,0.0,0.0,0.0,0.0,0.0,0.0,0.0,0.0,0.0,0.0,0.0,0.0,0.0,0.0,0.0,0.0,0.0,0.0,0.0,0.0,0.0,0.0,0.0,0.0,0.0,0.0,0.0,0.0,0.0,0.0,0.0,0.0,0.0,0.0,0.0,0.0,0.0,0.0,0.0,0.0,0.0,0.0,0.0,0.0,0.0,0.0,0.0,0.0,0.0,0.0,0.0,0.0,0.0,0.0,0.0,0.0,0.0,0.0,0.0,0.0,0.0,0.0,0.0,0.0,0.0,0.0,0.0,0.0,0.0,0.0,0.0,0.0,0.0,0.0,0.0,0.0,0.0,0.0,0.0,0.0,0.0,0.0,0.0,0.0,0.0,0.0,0.0,0.0,0.0,0.0,0.0,0.0,0.0,0.0,0.0,0.0,0.0,0.0,0.0,0.0,0.0,-1.7751,-1.8101,-1.8579,-1.8257,-1.7094,-1.6366,-1.5345,0.0,0.0,0.0,0.0,0.0,0.0,0.0,0.0,0.0,0.0,0.0,0.0,0.0,0.0,0.0,0.0,0.0,0.0,0.0,0.0,0.0,0.0,0.0,0.0,0.0,0.0,0.0,0.0,0.0,0.0,0.0,0.0,0.0,0.0,0.0,0.0,0.0,0.0,0.0,0.0,0.0,0.0,0.0,0.0,0.0,0.0,0.0,0.0,0.0,0.0,0.0,0.0,0.0,0.0,0.0,0.0,0.0,0.0,0.0,0.0,0.0,0.0,0.0,0.0,0.0,0.0,0.0,0.0,0.0,0.0,0.0,0.0,0.0,0.0,0.0,0.0,0.0,0.0,0.0,0.0,0.0,0.0,0.0,0.0,0.0,0.0,0.0,0.0,0.0,0.0,0.0,0.0,0.0,0.0,0.0,0.0,0.0,0.0,0.0,0.0,0.0,0.0,0.0,0.0,0.0,0.0,0.0,0.0,-1.8678,-1.9271,-1.9379,-1.9242,-1.8812,-1.7614,-1.6386,0.0,0.0,0.0,0.0,0.0,0.0,0.0,0.0,0.0,0.0,0.0,0.0,0.0,0.0,0.0,0.0,0.0,0.0,0.0,0.0,0.0,0.0,0.0,0.0,0.0,0.0,0.0,0.0,0.0,0.0,0.0,0.0,0.0,0.0,0.0,0.0,0.0,0.0,0.0,0.0,0.0,0.0,0.0,0.0,0.0,0.0,0.0,0.0,0.0,0.0,0.0,0.0,0.0,0.0,0.0,0.0,0.0,0.0,0.0,0.0,0.0,0.0,0.0,0.0,0.0,0.0,0.0,0.0,0.0,0.0,0.0,0.0,0.0,0.0,0.0,0.0,0.0,0.0,0.0,0.0,0.0,0.0,0.0,0.0,0.0,0.0,0.0,0.0,0.0,0.0,0.0,0.0,0.0,0.0,0.0,0.0,0.0,0.0,0.0,0.0,0.0,0.0,0.0,0.0,0.0,0.0,0.0,0.0,-2.0388,-2.0065,-2.0411,-2.0138,-1.915,-1.8024,-1.7026,0.0,0.0,0.0,0.0,0.0,0.0,0.0,0.0,0.0,0.0,0.0,0.0,0.0,0.0,0.0,0.0,0.0,0.0,0.0,0.0,0.0,0.0,0.0,0.0,0.0,0.0,0.0,0.0,0.0,0.0,0.0,0.0,0.0,0.0,0.0,0.0,0.0,0.0,0.0,0.0,0.0,0.0,0.0,0.0,0.0,0.0,0.0,0.0,-1.689,0.0,0.0,0.0,0.0,0.0,0.0,0.0,0.0,0.0,0.0,0.0,0.0,0.0,0.0,0.0,0.0,0.0,0.0,0.0,0.0,0.0,0.0,0.0,0.0,0.0,0.0,0.0,0.0,0.0,0.0,0.0,0.0,0.0,0.0,0.0,0.0,0.0,0.0,0.0,0.0,0.0,0.0,0.0,0.0,0.0,0.0,0.0,0.0,0.0,0.0,0.0,0.0,0.0,0.0,0.0,0.0,0.0,0.0,0.0,-2.1328,-2.115,-2.1266,-2.0907,-2.0076,-1.9047,-1.7944,0.0,0.0,0.0,0.0,0.0,0.0,0.0,0.0,0.0,0.0,0.0,0.0,0.0,0.0,0.0,0.0,0.0,0.0,0.0,0.0,0.0,0.0,0.0,0.0,0.0,0.0,0.0,0.0,0.0,0.0,0.0,0.0,0.0,0.0,0.0,0.0,0.0,0.0,0.0,0.0,0.0,0.0,0.0,0.0,0.0,0.0,0.0,0.0,0.0,0.0,0.0,0.0,0.0,0.0,0.0,0.0,0.0,0.0,0.0,0.0,0.0,0.0,0.0,0.0,0.0,0.0,0.0,0.0,0.0,0.0,0.0,0.0,0.0,0.0,0.0,0.0,0.0,0.0,0.0,0.0,0.0,0.0,0.0,0.0,0.0,0.0,0.0,0.0,0.0,0.0,0.0,0.0,0.0,0.0,0.0,0.0,0.0,0.0,0.0,0.0,0.0,0.0,0.0,0.0,0.0,0.0,0.0,-2.1207,-2.1991,-2.2132,-2.1909,-2.1597,-2.1087,-2.0133,-1.8791,-1.7081,0.0,0.0,0.0,0.0,0.0,0.0,0.0,0.0,0.0,0.0,0.0,0.0,0.0,0.0,0.0,0.0,0.0,0.0,0.0,0.0,0.0,0.0,0.0,0.0,0.0,0.0,0.0,0.0,0.0,0.0,0.0,0.0,0.0,0.0,0.0,0.0,0.0,0.0,-1.5578,-1.7002,0.0,0.0,0.0,0.0,0.0,0.0,0.0,0.0,-1.9257,0.0,0.0,0.0,0.0,0.0,0.0,0.0,0.0,0.0,0.0,0.0,0.0,0.0,0.0,0.0,0.0,0.0,0.0,0.0,0.0,0.0,0.0,0.0,0.0,0.0,0.0,0.0,0.0,0.0,0.0,0.0,0.0,0.0,0.0,0.0,0.0,0.0,0.0,0.0,0.0,0.0,0.0,0.0,0.0,0.0,0.0,0.0,0.0,0.0,0.0,0.0,0.0,0.0,0.0,0.0,0.0,-2.1078,-2.2428,-2.2872,-2.2372,-2.2309,-2.198,-2.1356,-2.0278,-1.915,-1.7996,0.0,0.0,0.0,0.0,0.0,0.0,0.0,0.0,0.0,0.0,0.0,0.0,0.0,0.0,0.0,0.0,0.0,0.0,0.0,0.0,0.0,0.0,0.0,0.0,0.0,0.0,0.0,0.0,0.0,0.0,0.0,0.0,0.0,0.0,0.0,0.0,0.0,0.0,0.0,-1.9216,-2.0182,0.0,0.0,0.0,0.0,0.0,0.0,0.0,0.0,-2.1576,0.0,0.0,0.0,0.0,0.0,0.0,0.0,0.0,0.0,0.0,0.0,0.0,0.0,0.0,0.0,0.0,0.0,0.0,0.0,0.0,0.0,0.0,0.0,0.0,0.0,0.0,0.0,0.0,0.0,0.0,0.0,0.0,0.0,0.0,0.0,0.0,0.0,0.0,0.0,0.0,0.0,0.0,0.0,0.0,0.0,0.0,0.0,0.0,0.0,0.0,0.0,0.0,0.0,0.0,0.0,-2.1471,-2.2659,-2.3075,-2.275,-2.2662,-2.2397,-2.1935,-2.0845,-1.9844,0.0,0.0,0.0,0.0,0.0,0.0,0.0,0.0,0.0,0.0,0.0,0.0,0.0,0.0,0.0,0.0,0.0,0.0,0.0,0.0,0.0,0.0,0.0,0.0,0.0,0.0,0.0,0.0,0.0,0.0,0.0,0.0,0.0,0.0,0.0,0.0,0.0,0.0,0.0,0.0,-2.0704,-2.1495,-2.2047,0.0,0.0,0.0,0.0,0.0,0.0,-2.2835,-2.2763,0.0,0.0,0.0,0.0,0.0,0.0,0.0,0.0,0.0,0.0,0.0,0.0,0.0,0.0,0.0,0.0,0.0,0.0,0.0,0.0,0.0,0.0,0.0,0.0,0.0,0.0,0.0,0.0,0.0,0.0,0.0,0.0,0.0,0.0,0.0,0.0,0.0,0.0,0.0,0.0,0.0,0.0,0.0,0.0,0.0,0.0,0.0,0.0,0.0,0.0,0.0,0.0,0.0,0.0,0.0,-2.1585,-2.2566,-2.3101,-2.3101,-2.2882,-2.2706,-2.2467,-2.1342,-2.0422,0.0,0.0,0.0,0.0,0.0,0.0,0.0,0.0,0.0,0.0,0.0,0.0,0.0,0.0,0.0,0.0,0.0,0.0,0.0,0.0,0.0,0.0,0.0,0.0,0.0,0.0,0.0,0.0,0.0,0.0,0.0,0.0,0.0,0.0,0.0,0.0,0.0,0.0,0.0,0.0,0.0,-2.2818,-2.3534,-2.3863,0.0,0.0,0.0,0.0,-2.444,-2.401,0.0,0.0,0.0,0.0,0.0,0.0,0.0,0.0,0.0,0.0,0.0,0.0,0.0,0.0,0.0,0.0,0.0,0.0,0.0,0.0,0.0,0.0,0.0,0.0,0.0,0.0,0.0,0.0,0.0,0.0,0.0,0.0,0.0,0.0,0.0,0.0,0.0,0.0,0.0,0.0,0.0,0.0,0.0,0.0,0.0,0.0,0.0,0.0,0.0,0.0,0.0,0.0,0.0,0.0,0.0,0.0,-2.1873,-2.2672,-2.3101,-2.3101,-2.2925,-2.2813,-2.275,-2.1384,-2.0449,0.0,0.0,0.0,0.0,0.0,0.0,0.0,0.0,0.0,0.0,0.0,0.0,0.0,0.0,0.0,0.0,0.0,0.0,0.0,0.0,0.0,0.0,0.0,0.0,0.0,0.0,0.0,0.0,0.0,0.0,0.0,0.0,0.0,0.0,0.0,0.0,0.0,0.0,0.0,0.0,0.0,-2.4571,-2.4677,-2.5015,-2.5307,0.0,0.0,-2.5859,-2.5732,-2.5896,0.0,0.0,0.0,0.0,0.0,0.0,0.0,0.0,0.0,0.0,0.0,0.0,0.0,0.0,0.0,0.0,0.0,0.0,0.0,0.0,0.0,0.0,0.0,0.0,0.0,0.0,0.0,0.0,0.0,0.0,0.0,0.0,0.0,0.0,0.0,0.0,0.0,0.0,0.0,0.0,0.0,0.0,0.0,0.0,0.0,0.0,0.0,0.0,0.0,0.0,0.0,0.0,0.0,0.0,0.0,-2.1441,-2.1914,-2.2672,-2.3101,-2.3101,-2.3013,-2.2969,-2.2969,-2.1755,-2.1006,0.0,0.0,0.0,0.0,0.0,0.0,0.0,0.0,0.0,0.0,0.0,0.0,0.0,0.0,0.0,0.0,0.0,0.0,0.0,0.0,0.0,0.0,0.0,0.0,0.0,0.0,0.0,0.0,0.0,0.0,0.0,0.0,0.0,0.0,0.0,0.0,0.0,0.0,0.0,0.0,0.0,0.0,-2.5752,-2.6152,0.0,0.0,0.0,-2.6763,-2.6648,0.0,0.0,0.0,0.0,0.0,0.0,0.0,0.0,0.0,0.0,0.0,0.0,0.0,0.0,0.0,0.0,0.0,0.0,0.0,0.0,0.0,0.0,0.0,0.0,0.0,0.0,0.0,0.0,0.0,0.0,0.0,0.0,0.0,0.0,0.0,0.0,0.0,0.0,0.0,0.0,0.0,0.0,0.0,0.0,0.0,0.0,0.0,0.0,0.0,0.0,0.0,0.0,0.0,0.0,0.0,0.0,0.0,-2.1894,-2.2715,-2.3101,-2.3101,-2.3101,-2.3101,-2.3081,-2.219,0.0,0.0,0.0,0.0,0.0,0.0,0.0,0.0,0.0,0.0,0.0,0.0,0.0,0.0,0.0,0.0,0.0,0.0,0.0,0.0,0.0,0.0,0.0,0.0,0.0,0.0,0.0,-1.4002,0.0,0.0,0.0,0.0,0.0,0.0,0.0,0.0,0.0,0.0,0.0,0.0,0.0,0.0,-2.6428,-2.6736,-2.7289,-2.7694,0.0,0.0,-2.793,-2.7788,-2.7741,-2.7673,0.0,0.0,0.0,0.0,0.0,0.0,0.0,0.0,0.0,0.0,0.0,0.0,0.0,0.0,0.0,0.0,0.0,0.0,0.0,0.0,0.0,0.0,0.0,0.0,0.0,0.0,0.0,0.0,-1.4482,0.0,0.0,0.0,0.0,0.0,0.0,0.0,0.0,0.0,0.0,0.0,0.0,0.0,0.0,0.0,0.0,0.0,0.0,0.0,0.0,0.0,0.0,0.0,0.0,0.0,-2.1441,-2.1914,-2.2672,-2.3101,-2.3101,-2.3101,-2.3101,-2.3081,-2.2481,-2.1928,0.0,0.0,0.0,0.0,0.0,0.0,0.0,0.0,0.0,0.0,0.0,0.0,0.0,0.0,0.0,0.0,0.0,0.0,0.0,0.0,0.0,0.0,0.0,0.0,0.0,0.0,0.0,0.0,0.0,0.0,0.0,0.0,0.0,0.0,0.0,0.0,0.0,0.0,0.0,0.0,0.0,-2.7003,-2.7478,-2.8326,-2.9024,0.0,-2.9715,-2.9852,-2.9393,-2.9347,-2.8916,-2.7607,0.0,0.0,0.0,0.0,0.0,0.0,0.0,0.0,0.0,0.0,0.0,0.0,0.0,0.0,0.0,0.0,0.0,0.0,0.0,0.0,0.0,0.0,0.0,0.0,0.0,-1.4829,-1.4584,0.0,-1.4479,0.0,0.0,0.0,0.0,0.0,0.0,0.0,0.0,0.0,0.0,0.0,0.0,0.0,0.0,0.0,0.0,0.0,0.0,0.0,0.0,0.0,0.0,0.0,0.0,-2.1499,-2.2442,-2.3022,-2.3357,-2.3491,-2.3555,-2.3398,-2.3101,-2.2648,-2.2094,0.0,0.0,0.0,0.0,0.0,0.0,0.0,0.0,0.0,0.0,0.0,0.0,0.0,0.0,0.0,0.0,0.0,0.0,0.0,0.0,0.0,0.0,0.0,0.0,0.0,0.0,0.0,0.0,-1.6711,-1.7153,-1.8104,0.0,0.0,0.0,0.0,0.0,0.0,0.0,0.0,0.0,0.0,-2.7384,-2.8186,-2.8885,0.0,0.0,-3.008,-3.0125,-2.9988,-2.9943,-2.9738,-2.9193,-2.8631,0.0,0.0,0.0,0.0,0.0,0.0,0.0,0.0,0.0,0.0,0.0,0.0,0.0,0.0,0.0,0.0,0.0,0.0,0.0,0.0,0.0,0.0,0.0,0.0,0.0,0.0,0.0,0.0,0.0,0.0,0.0,0.0,0.0,0.0,0.0,0.0,0.0,0.0,0.0,0.0,0.0,0.0,0.0,0.0,0.0,0.0,0.0,0.0,0.0,0.0,0.0,0.0,-2.1725,-2.2662,-2.3197,-2.3575,-2.3757,-2.3622,-2.3409,-2.3055,-2.265,-2.2182,0.0,0.0,0.0,0.0,0.0,0.0,0.0,0.0,0.0,0.0,0.0,0.0,0.0,0.0,0.0,0.0,0.0,0.0,0.0,0.0,0.0,0.0,0.0,0.0,0.0,0.0,0.0,0.0,-1.8295,-1.8831,-1.9713,0.0,0.0,0.0,0.0,0.0,0.0,0.0,0.0,0.0,0.0,-2.76,-2.8631,-2.9371,-2.9988,-3.0442,-3.0578,-3.0623,-3.0532,-3.0532,-3.0487,-3.0352,0.0,0.0,0.0,0.0,0.0,0.0,0.0,0.0,0.0,0.0,0.0,0.0,0.0,0.0,0.0,0.0,0.0,0.0,0.0,0.0,0.0,0.0,0.0,0.0,0.0,0.0,0.0,-1.4604,0.0,0.0,-1.4236,0.0,0.0,0.0,0.0,0.0,0.0,0.0,0.0,0.0,0.0,0.0,0.0,0.0,0.0,0.0,0.0,0.0,0.0,0.0,0.0,0.0,0.0,-2.2157,-2.2416,-2.3248,-2.371,-2.3691,-2.3275,-2.3066,-2.2983,-2.2631,-2.2233,-2.1816,0.0,0.0,0.0,0.0,0.0,0.0,0.0,0.0,0.0,0.0,0.0,0.0,0.0,0.0,0.0,0.0,0.0,0.0,0.0,0.0,0.0,0.0,0.0,0.0,0.0,0.0,-1.9162,-1.953,-1.9997,0.0,0.0,0.0,0.0,0.0,0.0,0.0,0.0,0.0,-2.5429,-2.6479,-2.7668,-2.8954,-2.9943,-3.0736,-3.1252,-3.152,-3.1584,-3.1342,-3.1273,-3.1116,0.0,0.0,0.0,0.0,0.0,0.0,0.0,0.0,0.0,0.0,0.0,0.0,0.0,0.0,0.0,0.0,0.0,0.0,0.0,0.0,0.0,0.0,0.0,0.0,0.0,0.0,0.0,-1.5308,-1.4937,0.0,0.0,0.0,0.0,0.0,0.0,0.0,0.0,0.0,0.0,0.0,-1.696,-1.7204,0.0,0.0,0.0,0.0,0.0,0.0,0.0,0.0,0.0,0.0,0.0,0.0,-2.2232,-2.2981,-2.3542,-2.3918,-2.406,-2.3928,-2.372,-2.3437,-2.3021,-2.2473,-2.1811,0.0,0.0,0.0,0.0,0.0,0.0,0.0,0.0,0.0,0.0,0.0,0.0,0.0,0.0,0.0,0.0,0.0,0.0,0.0,0.0,0.0,0.0,0.0,0.0,0.0,-2.043,0.0,0.0,0.0,0.0,0.0,0.0,0.0,0.0,0.0,0.0,-2.4487,-2.5218,-2.5777,-2.6805,-2.8036,-2.97,-3.0629,-3.148,0.0,0.0,0.0,0.0,0.0,0.0,0.0,0.0,0.0,0.0,0.0,0.0,0.0,0.0,-2.8602,-2.6674,-2.6301,-2.6235,-2.6235,0.0,0.0,0.0,0.0,0.0,0.0,0.0,0.0,0.0,0.0,0.0,0.0,0.0,0.0,-1.5338,-1.5089,-1.512,0.0,0.0,0.0,0.0,0.0,0.0,0.0,0.0,-1.6675,-1.7021,-1.7262,-1.742,-1.7817,0.0,-1.8844,-1.9098,0.0,0.0,0.0,0.0,0.0,0.0,0.0,0.0,-2.2658,-2.3362,-2.3788,-2.4108,-2.4253,-2.4103,-2.3916,-2.3636,-2.3177,-2.2561,-2.1802,-2.0955,-2.0354,0.0,0.0,0.0,0.0,0.0,0.0,0.0,0.0,0.0,0.0,0.0,0.0,0.0,0.0,0.0,0.0,0.0,0.0,0.0,0.0,0.0,0.0,0.0,-2.1634,0.0,0.0,0.0,0.0,0.0,0.0,0.0,0.0,0.0,-2.4258,-2.4932,-2.5726,-2.632,-2.7309,-2.8524,-3.0141,0.0,0.0,0.0,0.0,0.0,0.0,0.0,-3.3284,-3.3284,-3.3167,-3.2934,-3.2676,-3.2253,-3.1853,-3.1576,0.0,0.0,-2.8319,-2.7897,-2.7897,-2.7941,-2.7941,-2.7986,-2.8099,-2.8099,-2.821,0.0,0.0,0.0,0.0,0.0,0.0,0.0,0.0,-1.5652,-1.5415,0.0,-1.5161,0.0,0.0,0.0,0.0,-1.5531,-1.6048,0.0,0.0,-1.6872,-1.7331,-1.7555,-1.7495,-1.7872,-1.8622,-1.8446,-1.8977,-2.0119,-2.0559,0.0,0.0,0.0,0.0,0.0,0.0,-2.3499,-2.3499,-2.3932,-2.4202,-2.4183,-2.3767,-2.3499,-2.348,-2.3114,-2.2547,-2.1778,-2.1705,-2.1321,-2.0594,-2.0521,0.0,0.0,0.0,0.0,0.0,0.0,0.0,0.0,0.0,0.0,0.0,0.0,0.0,0.0,0.0,0.0,0.0,0.0,0.0,0.0,-2.2657,0.0,0.0,0.0,0.0,0.0,0.0,0.0,0.0,0.0,-2.5286,-2.4918,-2.5381,-2.6107,-2.689,0.0,0.0,0.0,0.0,-3.2347,-3.2865,-3.3146,-3.3356,-3.3356,-3.3356,-3.3356,-3.3356,0.0,0.0,-3.3028,-3.2606,-3.2394,-3.2512,-3.1996,-3.1205,-3.0422,-3.0125,-3.0125,-3.0125,-3.0102,-3.0193,-3.0216,-3.0056,-3.0102,-1.8945,0.0,0.0,0.0,0.0,-1.7059,-1.6692,-1.6466,-1.6411,-1.6308,-1.6223,-1.5837,0.0,0.0,0.0,0.0,0.0,0.0,-1.6305,-1.6318,-1.6645,-1.6895,-1.6935,-1.7187,-1.7514,-1.7918,-1.825,-1.8877,-1.9847,-2.0361,-2.0982,-2.1784,0.0,0.0,0.0,0.0,-2.3499,-2.3517,-2.395,-2.4202,-2.4202,-2.4091,-2.384,-2.3499,-2.3389,-2.3078,-2.2584,-2.2272,-2.187,-2.1357,-2.1046,0.0,0.0,0.0,0.0,0.0,0.0,0.0,0.0,0.0,0.0,0.0,0.0,0.0,0.0,0.0,0.0,0.0,0.0,0.0,-2.2693,-2.284,-2.2913,0.0,0.0,0.0,0.0,0.0,0.0,0.0,0.0,0.0,-2.569,-2.589,-2.6275,0.0,0.0,-2.9388,-3.0872,-3.1945,-3.2978,-3.3837,-3.4198,0.0,-3.439,-3.439,-3.439,-3.439,-3.439,-3.4342,-3.4294,-3.4126,-3.3958,-3.3648,-3.341,-3.2935,-3.2033,-3.1219,-3.0804,-3.0781,-3.0781,-3.0781,-3.0736,-3.0781,-3.0804,-1.8702,-1.869,-1.8307,-1.79,-1.7472,-1.719,-1.696,-1.6694,-1.6694,-1.6694,-1.6682,-1.6356,-1.6211,-1.6199,-1.5873,0.0,0.0,0.0,-1.6429,-1.6483,-1.6742,-1.685,-1.6905,-1.7188,-1.7458,-1.7768,-1.8198,-1.8786,-1.9531,-2.0219,-2.0996,-2.1812,0.0,-2.2743,-2.3244,-2.3511,-2.3688,-2.3785,-2.4073,-2.4202,-2.4202,-2.4202,-2.4073,-2.3804,-2.3785,-2.3602,-2.3151,-2.2895,-2.2584,-2.2199,-2.1943,-2.154,0.0,0.0,0.0,0.0,0.0,0.0,0.0,0.0,0.0,0.0,0.0,-2.1653,-2.2307,0.0,0.0,0.0,-2.2675,-2.2978,-2.3382,-2.3584,0.0,0.0,0.0,0.0,0.0,0.0,0.0,-2.5911,-2.6388,-2.6719,-2.6719,-2.6747,-2.6926,-2.7278,-2.843,-2.9686,-3.1077,0.0,-3.3198,-3.4164,-3.4482,-3.4677,-3.4775,-3.4775,-3.4775,-3.4775,-3.4775,-3.4775,-3.4775,-3.4775,-3.4655,-3.4366,-3.4126,-3.379,-3.3236,-3.2311,-3.1511,-3.1321,-3.1297,-3.1273,-3.1273,-3.1273,-3.1273,-1.8734,-1.8736,-1.8557,-1.8099,-1.7547,-1.7304,-1.7044,-1.6791,-1.6803,-1.6779,-1.6754,-1.6742,-1.6718,-1.6694,-1.6694,0.0,-1.6694,-1.6694,-1.6694,-1.6694,-1.6974,-1.7074,-1.7074,-1.7353,-1.7644,-1.7909,-1.82,-1.8643,-1.9222,-1.999,-2.0698,-2.1279,-2.1966,-2.2823,-2.3745,-2.3809,-2.3958,-2.4207,-2.422,-2.4202,-2.4202,-2.4202,-2.4202,-2.4202,-2.4202,-2.3969,-2.3572,-2.3535,-2.3352,-2.2986,-2.295,-2.2602,-2.1851,0.0,0.0,0.0,0.0,0.0,0.0,0.0,0.0,0.0,0.0,0.0,0.0,0.0,0.0,-2.2957,-2.3304,0.0,-2.4257,-2.4661,0.0,0.0,0.0,-2.5525,-2.5561,-2.6206,-2.6683,-2.6683,0.0,0.0,-2.7822,-2.7678,-2.7696,-2.7953,-2.8781,-2.9848,-3.1021,-3.2044,-3.2996,-3.3866,-3.4211,-3.4482,-3.4677,-3.4775,-3.4775,-3.4775,-3.4775,-3.4775,-3.4775,-3.4775,-3.4775,-3.4751,-3.4366,-3.4006,-3.4006,-3.3142,-3.2394,-3.1865,-3.1697,-3.1717,-3.1673,-3.1673,-3.1673,-1.9221,-1.9039,-1.8969,-1.8617,-1.8131,-1.801,-1.7853,-1.7599,-1.7599,-1.7479,-1.7286,-1.7092,-1.6887,-1.6694,-1.6694,-1.6694,-1.6694,-1.6694,-1.6694,-1.6694,-1.675,-1.6806,-1.6806,-1.7086,-1.7241,-1.7353,-1.7588,-1.7922,-1.8298,-1.8727,-1.9332,-2.0139,-2.0695,-2.1847,-2.3583,-2.3787,-2.4003,-2.4256,-2.4217,-2.4202,-2.4202,-2.4202,-2.4202,-2.4202,-2.4202,-2.4146,-2.4073,-2.4055,-2.3822,-2.3389,-2.3352,-2.3133,-2.2638,-2.2034,0.0,0.0,0.0,0.0,0.0,0.0,0.0,0.0,0.0,-2.2648,-2.3027,0.0,-2.2529,0.0,-2.3745,-2.4376,-2.5032,-2.5231,0.0,0.0,-2.6096,-2.6408,-2.6719,-2.7252,-2.749,-2.749,-2.7711,-2.7822,-2.7822,-2.7805,-2.792,-2.8425,-2.8746,-2.9355,-3.0681,-3.1454,-3.224,-3.3269,-3.3793,-3.4188,-3.4433,-3.4677,-3.4775,-3.4775,-3.4775,-3.4775,-3.4775,-3.4775,-3.4775,-3.4775,-3.4679,-3.4438,-3.4078,-3.3525,-3.2947,-3.2394,-3.1961,-3.1717,-3.1717,-3.1717,-3.1717,-1.9495,-1.9253,-1.9306,-1.9012,-1.8625,-1.8517,-1.8312,-1.807,-1.8058,-1.7986,-1.7829,-1.7563,-1.7358,-1.7225,-1.7105,-1.7044,-1.7044,-1.7044,-1.7044,-1.7044,-1.7044,-1.7044,-1.7044,-1.7216,-1.7273,-1.7261,-1.7558,-1.7799,-1.8014,-1.8398,-1.8838,-1.9345,-2.0089,-2.1022,-2.2316,-2.319,-2.3774,-2.4155,-2.4386,-2.4441,-2.4277,-2.4377,-2.4385,-2.422,-2.4102,-2.4003,-2.4003,-2.3886,-2.3746,-2.3479,-2.3461,-2.325,-2.2853,-2.2402,-2.2049,0.0,0.0,0.0,0.0,0.0,0.0,0.0,0.0,0.0,0.0,0.0,-2.3429,-2.398,-2.4383,-2.495,-2.5685,-2.59,-2.6172,-2.6555,-2.6921,-2.7196,-2.7473,-2.7783,-2.804,-2.804,-2.8205,-2.8315,-2.8297,-2.8208,-2.8212,-2.8709,-2.8592,-2.8987,-3.0305,-3.1104,-3.1745,-3.2465,-3.2974,-3.3472,-3.3941,-3.4384,-3.4628,-3.4628,-3.4726,-3.4775,-3.4775,-3.4775,-3.4775,-3.4775,-3.4775,-3.4679,-3.439,-3.3887,-3.3336,-3.2785,-3.2168,-3.1738,-3.1721,-3.1717,-3.1717,-1.9639,-1.9388,-1.9352,-1.9208,-1.8968,-1.8716,-1.8527,-1.8348,-1.8336,-1.8324,-1.8275,-1.8034,-1.7986,-1.7913,-1.7684,-1.7563,-1.7539,-1.7527,-1.7515,-1.7479,-1.7479,-1.7479,-1.7479,-1.7479,-1.7479,-1.7479,-1.7784,-1.7972,-1.7972,-1.8473,-1.8765,-1.8823,-1.9635,-2.0213,-2.0573,-2.2096,-2.3218,-2.3841,-2.4403,-2.4557,-2.4286,-2.4543,-2.4514,-2.4162,-2.3927,-2.3827,-2.3827,-2.3577,-2.3494,-2.353,-2.3494,-2.3267,-2.2881,-2.2757,-2.2514,0.0,-2.2131,0.0,0.0,0.0,0.0,0.0,0.0,0.0,0.0,-2.4297,-2.4721,-2.5056,-2.5126,-2.548,-2.6225,-2.656,-2.6891,-2.7287,-2.7552,-2.7799,-2.7873,-2.8184,-2.8403,-2.8462,-2.8773,-2.8975,-2.8938,-2.8682,-2.8578,-2.8814,-2.8594,-2.8727,-2.9773,-3.0582,-3.1116,-3.1395,-3.1942,-3.2622,-3.3323,-3.3892,-3.4188,-3.4237,-3.4384,-3.458,-3.4531,-3.4531,-3.458,-3.458,-3.4531,-3.4531,-3.458,-3.3957,-3.3386,-3.2842,-3.2112,-3.157,-3.1595,-3.1629,-3.1673,-1.9161,-1.8919,-1.8711,-1.8596,-1.8538,-1.8208,-1.8336,-1.8613,-1.8613,-1.8493,-1.8287,-1.8239,-1.8215,-1.8215,-1.8167,-1.8022,-1.7864,-1.7793,-1.7684,-1.7479,-1.7479,-1.7479,-1.7479,-1.7479,-1.7479,-1.7479,-1.7596,-1.7608,-1.7608,-1.7713,-1.7901,-1.8194,-1.8544,-1.9042,-1.9608,0.0,0.0,0.0,-2.34,-2.3631,-2.4053,-2.4105,-2.4069,-2.3954,-2.3936,0.0,-2.3868,-2.3834,-2.3925,-2.426,-2.3994,0.0,0.0,0.0,0.0,0.0,0.0,0.0,0.0,0.0,0.0,0.0,-2.3893,-2.4032,-2.407,-2.4466,-2.4982,-2.5569,-2.594,-2.6281,-2.665,-2.6725,-2.6942,-2.7333,-2.7463,-2.7705,-2.8305,-2.8414,-2.8587,-2.8865,-2.8938,-2.8975,-2.8975,-2.8902,-2.8965,-2.9204,-2.8965,-2.8784,-2.8914,-2.9431,-2.9957,-3.0527,-3.1176,-3.1993,-3.2823,-3.3001,-3.3224,-3.3323,-3.3446,-3.3545,-3.3545,-3.3545,-3.3496,-3.3496,-3.3496,-3.3545,-3.3545,-3.3079,-3.2709,-3.2522,-3.1736,-3.1067,-3.1123,-3.1273,-3.1407,-1.921,-1.897,-1.8856,-1.8596,0.0,-1.808,-1.7965,-1.8033,-1.8291,-1.8364,-1.8423,-1.8479,-1.8481,-1.8481,-1.8348,-1.8215,-1.8082,-1.8082,-1.801,-1.7889,-1.7889,-1.7889,-1.7877,-1.7889,-1.7805,-1.7684,-1.7672,-1.7612,-1.7491,-1.7479,-1.7596,-1.7784,-1.8077,-1.8369,-1.8648,-1.9448,-2.0715,-2.2576,-2.2889,-2.3097,-2.3203,-2.351,-2.3555,-2.3339,-2.3165,0.0,0.0,0.0,0.0,0.0,0.0,0.0,0.0,0.0,0.0,-2.216,-2.2092,-2.2123,-2.227,-2.2547,-2.2827,-2.3062,-2.3519,-2.41,-2.4686,-2.5091,-2.5589,-2.6065,-2.633,-2.6561,-2.6929,-2.7064,-2.7252,-2.7463,-2.7617,-2.7884,-2.8164,-2.8277,-2.8397,-2.8696,-2.8755,-2.8815,-2.8993,-2.8975,-2.8943,-2.8954,-2.875,-2.8496,-2.8277,-2.8567,-2.9075,-2.9509,-3.0089,-3.0742,-3.1257,-3.1891,-3.2246,-3.2398,-3.2622,-3.2773,-3.2773,-3.2796,-3.2846,-3.2823,-3.2873,-3.3024,-3.2951,-3.2719,-3.237,-3.2071,-3.1446,-3.0743,-3.035,-3.0491,-3.0758,-1.9069,-1.8752,-1.8707,-1.8369,-1.7766,-1.7462,-1.7135,-1.6751,0.0,0.0,0.0,-1.8399,-1.8368,-1.8356,-1.8143,-1.8099,-1.8113,-1.8051,-1.8151,-1.8226,-1.8226,-1.8226,-1.83,-1.83,-1.8167,-1.795,-1.795,-1.7841,-1.7624,-1.7575,-1.7551,-1.7598,-1.7809,-1.7972,-1.8031,-1.8486,-1.9622,-2.1388,-2.2184,-2.2398,-2.2189,-2.2727,-2.2824,-2.2522,-2.229,-2.2183,-2.2145,-2.1945,-2.1884,-2.1931,-2.1884,-2.1798,-2.1852,-2.1789,-2.1758,-2.1758,-2.1805,-2.1798,-2.1852,-2.2151,-2.234,-2.234,-2.3001,-2.3915,-2.5064,-2.5459,-2.583,-2.6202,-2.6236,-2.6371,-2.6736,-2.6918,-2.7099,-2.7159,-2.7418,-2.7599,-2.7779,-2.784,-2.7977,-2.8337,-2.8397,-2.8517,-2.8856,-2.8916,-2.8806,-2.8572,-2.8462,-2.8152,-2.7716,-2.799,-2.8381,-2.8607,-2.9006,-2.9323,-2.9723,-3.038,-3.1051,-3.1103,-3.1483,-3.179,-3.179,-3.179,-3.1841,-3.179,-3.2095,-3.2145,-3.2246,-3.1993,-3.1882,-3.1478,-3.1002,-3.037,-2.9661,-2.9645,-2.9894,-1.77,-1.7017,-1.6837,-1.653,-1.6077,-1.5593,-1.5057,-1.4739,-1.6381,-1.713,-1.7195,-1.7227,-1.728,-1.7216,-1.7172,-1.7243,-1.7296,-1.7285,-1.7485,-1.7857,-1.7845,-1.8042,-1.83,-1.83,-1.8275,-1.8239,-1.8239,-1.8215,-1.8155,-1.7937,-1.7817,-1.7793,-1.7659,-1.7726,-1.7972,-1.8089,-1.8369,-1.8939,-2.0097,-2.0931,-2.1329,-2.1669,-2.1785,-2.1647,-2.1631,-2.1631,-2.1631,-2.1576,-2.1714,-2.203,-2.1729,-2.1576,-2.1561,-2.1261,-2.1148,-2.1148,-2.1408,-2.1576,-2.1536,-2.1938,-2.2122,-2.2153,-2.2751,-2.343,-2.4151,-2.4531,-2.4884,-2.5282,-2.533,-2.5285,-2.541,-2.5472,-2.5594,-2.5839,-2.5917,-2.6283,-2.7073,-2.7194,-2.7375,-2.79,-2.808,-2.814,-2.8397,-2.8517,-2.86,-2.8728,-2.8341,-2.8077,-2.7492,-2.7416,-2.7679,-2.7926,-2.8067,-2.8335,-2.8741,-2.8953,-2.9303,-2.9387,-2.9597,-2.9755,-2.9755,-2.9775,-2.988,-2.9953,-3.0089,-3.0214,-3.0443,-3.0339,-3.0401,-3.0275,-2.9941,-2.9504,-2.9274,-2.9076,-2.8988,-1.6452,-1.6089,-1.5784,-1.5457,-1.5017,-1.4206,-1.3675,-1.3425,-1.397,-1.4885,-1.5834,-1.6278,-1.6473,-1.6473,-1.6473,-1.6485,-1.6509,-1.6701,-1.6903,-1.7122,-1.7438,-1.7702,-1.7903,-1.8282,-1.8387,-1.8256,-1.8443,-1.8432,-1.8287,-1.8155,-1.8034,-1.7925,-1.7612,-1.7537,-1.7726,-1.7726,-1.7772,-1.7948,-1.8997,-1.9693,-1.9968,-2.0185,-2.0344,-2.0316,-2.0316,-2.0316,-2.0331,-2.0316,-2.0387,-2.0573,-2.0402,-2.0316,-2.0316,-2.0189,-2.0104,-2.0118,-2.0231,-2.0316,-2.0316,-2.0444,-2.0587,-2.0615,-2.1171,-2.1661,-2.19,-2.3369,-2.4347,-2.4564,-2.4595,-2.4517,-2.4579,-2.4533,-2.4595,-2.478,-2.4919,-2.5226,-2.5656,-2.5917,-2.6205,-2.6614,-2.6857,-2.7099,-2.7358,-2.7539,-2.7614,-2.7599,-2.7364,-2.7222,-2.7223,-2.7287,-2.7271,-2.721,-2.7314,-2.7476,-2.778,-2.8101,-2.8262,-2.8475,-2.8581,-2.8635,-2.8688,-2.8688,-2.8688,-2.8814,-2.8953,-2.9164,-2.9448,-2.9501,-2.9574,-2.9764,-2.9484,-2.9207,-2.889,-2.8584,-2.845,-1.5177,-1.4964,-1.46,-1.4173,-1.3658,-1.2887,-1.2392,-1.2098,-1.1837,-1.2494,-1.3923,-1.4754,-1.5033,-1.5033,-1.5033,-1.5163,-1.5294,-1.5554,-1.5824,-1.6213,-1.6678,-1.7066,-1.7335,-1.7852,-1.807,-1.8087,-1.8329,-1.8348,-1.8232,-1.8285,-1.8142,-1.7889,-1.7672,-1.7539,-1.7479,-1.7479,-1.7479,-1.7537,-1.824,-1.8648,-1.8706,-1.8984,-1.91,-1.91,-1.91,-1.91,-1.91,-1.91,-1.91,-1.91,-1.91,-1.91,-1.91,-1.91,-1.91,-1.91,-1.91,-1.91,-1.91,-1.91,-1.9127,-1.9206,-1.9681,-2.0024,-2.0239,-2.1968,-2.3263,-2.3387,-2.3402,-2.3402,-2.3402,-2.3387,-2.345,-2.3651,-2.3914,-2.4115,-2.4363,-2.461,-2.4919,-2.521,-2.5562,-2.5884,-2.6128,-2.6493,-2.6634,-2.6423,-2.6285,-2.647,-2.6858,-2.6978,-2.6811,-2.6623,-2.6774,-2.6974,-2.6972,-2.726,-2.7584,-2.7603,-2.7745,-2.7799,-2.7872,-2.7926,-2.7979,-2.796,-2.8174,-2.8368,-2.8654,-2.8708,-2.8761,-2.892,-2.8774,-2.8569,-2.8311,-2.8121,-2.7985,-1.3959,-1.3111,-1.3039,-1.2323,-1.1456,-1.1227,-1.0928,-1.053,-1.0786,-1.0842,-1.1084,-1.1829,-1.2231,-1.2157,-1.2297,-1.2634,-1.3087,-1.3144,-1.3801,-1.4912,-1.5108,-1.5629,-1.6473,-1.6678,-1.699,-1.7485,-1.7613,-1.7772,-1.7972,-1.8104,-1.8063,-1.7925,-1.7841,-1.772,-1.7527,-1.7491,-1.7491,-1.7479,-1.7596,-1.7784,-1.8077,-1.8369,-1.8473,-1.8473,-1.8473,-1.8473,-1.8473,-1.8473,-1.8473,-1.8473,-1.8473,-1.8473,-1.8473,-1.8473,-1.8473,-1.8473,-1.8473,-1.8473,-1.8473,-1.8473,-1.8588,-1.8843,-1.9197,-1.9491,-1.9747,-2.0181,-2.0729,-2.1235,-2.1411,-2.1475,-2.1348,-2.1425,-2.1727,-2.223,-2.2355,-2.2668,-2.3417,-2.3743,-2.3852,-2.4193,-2.4409,-2.4841,-2.501,-2.5317,-2.5745,-2.5846,-2.5731,-2.5753,-2.6033,-2.6082,-2.6052,-2.6076,-2.6572,-2.6884,-2.6665,-2.6646,-2.6719,-2.67,-2.6755,-2.6736,-2.6736,-2.6736,-2.6791,-2.6935,-2.7098,-2.7241,-2.7476,-2.753,-2.7584,-2.7853,-2.7799,-2.7618,-2.7488,-2.7449,-2.7479,-1.2173,-1.1743,-1.1534,-1.1175,-1.0737,-1.0455,-1.0209,-1.0013,-0.9871,-0.9736,-0.9672,-0.9973,-1.0567,-1.1375,-1.1382,-1.1535,-1.171,-1.1911,-1.225,-1.275,-1.3333,-1.3866,-1.4315,-1.5173,-1.5694,-1.6029,-1.6613,-1.7001,-1.7152,-1.739,-1.748,-1.741,-1.7518,-1.7451,-1.7346,-1.7254,-1.7172,-1.7113,-1.702,-1.7009,-1.7138,-1.7596,-1.7889,-1.7889,-1.7889,-1.7889,-1.7843,-1.7889,-1.7889,-1.7843,-1.7889,-1.7889,-1.7889,-1.783,-1.7889,-1.783,-1.783,-1.7889,-1.783,-1.8037,-1.8173,-1.8224,-1.8704,-1.9013,-1.9124,-1.9371,-1.9647,-1.9903,-2.0284,-2.0552,-2.0488,-2.0488,-2.0615,-2.0919,-2.1109,-2.1411,-2.1727,-2.1992,-2.2167,-2.2341,-2.2606,-2.2856,-2.3029,-2.334,-2.3728,-2.4209,-2.4316,-2.4544,-2.5198,-2.5386,-2.5479,-2.562,-2.598,-2.6042,-2.5895,-2.5793,-2.576,-2.5584,-2.5514,-2.5514,-2.5569,-2.5569,-2.5569,-2.5716,-2.5881,-2.6118,-2.6336,-2.6718,-2.6935,-2.7043,-2.7333,-2.7422,-2.7422,-2.7343,-2.7386,-1.0809,-1.0671,-1.0311,-1.0167,-1.0167,-0.9879,-0.9735,-0.9723,-0.9358,-0.9182,-0.9171,-0.9014,-0.9608,-1.0499,-1.0505,-1.0479,-1.0525,-1.0791,-1.0934,-1.1094,-1.1784,-1.2227,-1.2492,-1.3358,-1.4054,-1.439,-1.5108,-1.5694,-1.5998,-1.6316,-1.6573,-1.6814,-1.6923,-1.6988,-1.6982,-1.6853,-1.6823,-1.6812,-1.6714,-1.6694,-1.6814,-1.7172,-1.7399,-1.7268,-1.7244,-1.7244,-1.7244,-1.7256,-1.7244,-1.7244,-1.7244,-1.7244,-1.7244,-1.7244,-1.7244,-1.7256,-1.7315,-1.7351,-1.7351,-1.7601,-1.7768,-1.7863,-1.8282,-1.8584,-1.868,-1.89,-1.906,-1.92,-1.9532,-1.9839,-1.9851,-1.9851,-1.9851,-1.9979,-2.0157,-2.0348,-2.0475,-2.0679,-2.0856,-2.0856,-2.1235,-2.1362,-2.1488,-2.1727,-2.2181,-2.248,-2.2668,-2.2918,-2.3899,-2.4116,-2.4286,-2.454,-2.4569,-2.4746,-2.5035,-2.5326,-2.5099,-2.4957,-2.4967,-2.5044,-2.483,-2.4834,-2.4834,-2.5221,-2.511,-2.511,-2.5459,-2.5898,-2.6154,-2.6336,-2.6554,-2.6718,-2.6427,-2.6699,-2.6715,-1.0311,-0.9879,-0.9518,-0.9374,-0.9374,-0.9374,-0.9374,-0.9374,-0.9296,-0.9291,-0.9285,-0.928,-0.9357,-0.9474,-0.9274,-0.9232,-0.9567,-0.9637,-0.9965,-1.0479,-1.0506,-1.0853,-1.1454,-1.1437,-1.1901,-1.284,-1.3038,-1.3744,-1.4847,-1.4958,-1.5381,-1.6086,-1.6065,-1.615,-1.6241,-1.6425,-1.6651,-1.6578,-1.6853,-1.7184,-1.7184,-1.7184,-1.7017,-1.6629,-1.6549,-1.6642,-1.6619,-1.6549,-1.6549,-1.6608,-1.6631,-1.6619,-1.6619,-1.6619,-1.6631,-1.6642,-1.6825,-1.6952,-1.6986,-1.7253,-1.7433,-1.7628,-1.8022,-1.834,-1.8553,-1.8804,-1.9008,-1.9072,-1.9136,-1.9212,-1.92,-1.9264,-1.9328,-1.9584,-1.9635,-1.9775,-2.0043,-2.0106,-2.017,-2.017,-2.0412,-2.0666,-2.0982,-2.1109,-2.1109,-2.1235,-2.1488,-2.1727,-2.1978,-2.2167,-2.2389,-2.2438,-2.2505,-2.2842,-2.4343,-2.4594,-2.4721,-2.4572,-2.4277,-2.4851,-2.4911,-2.4795,-2.4684,-2.4629,-2.4445,-2.4501,-2.4723,-2.4889,-2.5,-2.511,-2.5221,-2.5276,-2.5551,-2.5331,-2.5443,-0.9736,-0.9518,-0.9374,-0.9302,-0.9302,-0.9302,-0.9302,-0.9302,-0.9302,-0.9302,-0.9302,-0.9302,-0.9302,-0.9296,-0.9215,-0.9204,-0.9214,-0.9209,-0.9305,-0.9509,-0.9728,-0.9916,-1.0185,-1.0538,-1.0867,-1.1263,-1.1717,-1.239,-1.3153,-1.3473,-1.3831,-1.4298,-1.4604,-1.477,-1.5006,-1.4998,-1.5057,-1.5363,-1.5575,-1.5618,-1.5753,-1.6115,-1.6215,-1.6126,-1.6663,-1.7028,-1.7028,-1.7028,-1.7028,-1.7028,-1.7028,-1.7028,-1.7028,-1.7028,-1.7028,-1.704,-1.712,-1.7154,-1.7188,-1.7394,-1.7502,-1.7593,-1.788,-1.8122,-1.8215,-1.8302,-1.8495,-1.8699,-1.8764,-1.8828,-1.9072,-1.9136,-1.9136,-1.9264,-1.9264,-1.9328,-1.9392,-1.9468,-1.9468,-1.9456,-1.9584,-1.9711,-1.9839,-1.9839,-1.9903,-2.0081,-2.0272,-2.0526,-2.0856,-2.1109,-2.1235,-2.1425,-2.1475,-2.1658,-2.2162,-2.2854,-2.3171,-2.3045,-2.2948,-2.2894,-2.2881,-2.2875,-2.2771,-2.2941,-2.3094,-2.3271,-2.3328,-2.3832,-2.3944,-2.439,-2.4445,-2.4278,-2.4851,-2.4445,-2.4667,-0.9438,-0.9362,-0.9318,-0.9302,-0.9302,-0.9302,-0.9302,-0.9302,-0.9302,-0.9302,-0.9302,-0.9302,-0.9302,-0.9302,-0.9302,-0.9269,-0.9193,-0.9188,-0.9144,-0.9068,-0.9235,-0.9358,-0.9422,-0.9799,-1.0003,-1.0191,-1.0609,-1.1142,-1.1644,-1.1858,-1.2165,-1.2618,-1.3021,-1.3416,-1.3652,-1.3734,-1.3931,-1.4162,-1.4381,-1.4515,-1.4642,-1.5076,-1.5393,-1.5582,-1.616,-1.6702,-1.6943,-1.6993,-1.6993,-1.6993,-1.6993,-1.6993,-1.6993,-1.6993,-1.6993,-1.6993,-1.7072,-1.7117,-1.7139,-1.7267,-1.7401,-1.7412,-1.7674,-1.7852,-1.7852,-1.798,-1.8109,-1.8302,-1.8442,-1.8495,-1.8688,-1.8816,-1.8944,-1.9072,-1.9136,-1.9136,-1.9136,-1.9136,-1.9136,-1.9136,-1.9136,-1.9136,-1.9136,-1.9136,-1.9264,-1.9456,-1.9456,-1.9647,-1.9966,-2.0094,-2.0157,-2.0412,-2.0412,-2.0462,-2.0763,-2.1216,-2.1963,-2.1997,-2.2289,-2.186,-2.151,-2.1336,-2.122,-2.1306,-2.1491,-2.1732,-2.2101,-2.2595,-2.3087,-2.3648,-2.3311,-2.2918,-2.3255,-2.3496,-2.3608,-0.9492,-0.9386,-0.9356,-0.924,-0.9163,-0.9157,-0.923,-0.923,-0.9235,-0.9157,-0.9157,-0.923,-0.9163,-0.923,-0.9157,-0.923,-0.9219,-0.9213,-0.928,-0.9258,-0.9177,-0.9133,-0.9128,-0.9105,-0.9254,-0.9567,-0.9719,-1.006,-1.0435,-1.0465,-1.0664,-1.1174,-1.1571,-1.1967,-1.2289,-1.28,-1.3128,-1.3251,-1.3561,-1.397,-1.4333,-1.4353,-1.454,-1.4819,-1.4949,-1.5357,-1.619,-1.6231,-1.6252,-1.6241,-1.6293,-1.6271,-1.6252,-1.6252,-1.6293,-1.6284,-1.6486,-1.6657,-1.6689,-1.6797,-1.684,-1.684,-1.7195,-1.7271,-1.7271,-1.7518,-1.7711,-1.7711,-1.7776,-1.7905,-1.7969,-1.8238,-1.8635,-1.9008,-1.9072,-1.9136,-1.9136,-1.9136,-1.9136,-1.9136,-1.9136,-1.9136,-1.9136,-1.9136,-1.9136,-1.9136,-1.9136,-1.92,-1.9328,-1.9328,-1.92,-1.92,-1.9456,-1.9647,-1.9647,-1.9737,-2.0519,-2.1218,-2.1709,-2.1797,-2.1361,-2.1121,-2.0866,-2.084,-2.0816,-2.1046,-2.136,-2.1744,-2.1744,-2.2013,-2.1687,-2.1786,-2.2029,-2.2312,-2.2142,-0.881,-0.8671,-0.8636,-0.8577,-0.8444,-0.844,-0.844,-0.8512,-0.8512,-0.844,-0.844,-0.8512,-0.8512,-0.8512,-0.8512,-0.8657,-0.8874,-0.8874,-0.9013,-0.9224,-0.9264,-0.9247,-0.9242,-0.9209,-0.915,-0.9209,-0.9157,-0.9325,-0.9591,-0.9611,-0.982,-1.0139,-1.0259,-1.0525,-1.085,-1.1049,-1.124,-1.1571,-1.2107,-1.2503,-1.27,-1.3284,-1.3669,-1.3809,-1.4071,-1.4391,-1.4678,-1.5055,-1.5322,-1.5302,-1.5322,-1.5322,-1.5322,-1.5322,-1.5322,-1.5332,-1.5371,-1.5485,-1.5485,-1.5534,-1.5583,-1.5583,-1.5714,-1.5714,-1.5714,-1.5844,-1.6029,-1.6148,-1.6213,-1.6343,-1.6872,-1.7066,-1.7582,-1.8635,-1.8944,-1.9008,-1.8944,-1.9008,-1.9136,-1.9136,-1.9136,-1.9136,-1.9072,-1.9072,-1.9008,-1.9072,-1.9072,-1.9072,-1.9072,-1.9136,-1.9136,-1.9136,-1.9136,-1.9136,-1.9264,-1.9456,-1.9878,-2.0393,-2.0877,-2.1245,-2.0965,-2.0733,-2.0487,-2.0305,-2.0278,-2.0413,-2.0673,-2.0831,-2.0831,-2.1002,-2.1231,-2.1231,-2.1231,-2.1174,-2.1131,-0.854,-0.8417,-0.8378,-0.8326,-0.8186,-0.8153,-0.8207,-0.8202,-0.8092,-0.8082,-0.8082,-0.8082,-0.8082,-0.8082,-0.8082,-0.8222,-0.844,-0.8512,-0.8584,-0.8874,-0.923,-0.9302,-0.9302,-0.9302,-0.9275,-0.9193,-0.9008,-0.9051,-0.9181,-0.9154,-0.9205,-0.9344,-0.9419,-0.9588,-0.9788,-0.9994,-1.0127,-1.0386,-1.079,-1.1115,-1.1321,-1.1835,-1.2231,-1.2363,-1.2561,-1.2692,-1.2758,-1.3161,-1.3752,-1.4342,-1.4539,-1.4539,-1.4539,-1.453,-1.4539,-1.4539,-1.4539,-1.453,-1.4539,-1.4595,-1.4539,-1.4539,-1.4539,-1.4539,-1.4539,-1.4539,-1.466,-1.4791,-1.4847,-1.5052,-1.5434,-1.5824,-1.6353,-1.7066,-1.7852,-1.8226,-1.8302,-1.8302,-1.8291,-1.8238,-1.8226,-1.8366,-1.8495,-1.8495,-1.8623,-1.8816,-1.8956,-1.9008,-1.902,-1.9136,-1.9072,-1.9072,-1.9136,-1.9136,-1.9136,-1.92,-1.9392,-1.9649,-1.989,-2.0244,-2.0266,-2.0142,-1.9907,-1.9747,-1.9604,-1.9747,-1.9982,-2.0097,-2.0155,-2.0443,-2.0601,-2.0443,-2.027,-2.0328,-2.0328,-0.8549,-0.8531,-0.8356,-0.8309,-0.8286,-0.8202,-0.8155,-0.821,-0.8061,-0.7947,-0.801,-0.7933,-0.7933,-0.8005,-0.7933,-0.8005,-0.8078,-0.8078,-0.815,-0.8367,-0.8801,-0.9163,-0.9157,-0.9157,-0.9224,-0.9275,-0.9188,-0.9133,-0.9155,-0.8985,-0.8785,-0.8911,-0.9092,-0.9073,-0.9224,-0.9473,-0.9613,-0.9661,-0.9728,-0.9927,-1.0193,-1.0253,-1.0459,-1.0717,-1.0784,-1.085,-1.0916,-1.0982,-1.1776,-1.335,-1.3547,-1.3481,-1.3678,-1.3744,-1.3547,-1.3547,-1.3678,-1.3547,-1.3613,-1.3481,-1.3547,-1.3481,-1.3481,-1.3744,-1.3547,-1.3416,-1.3416,-1.3547,-1.3547,-1.3678,-1.3809,-1.4193,-1.4577,-1.4912,-1.6148,-1.6936,-1.7001,-1.7001,-1.7066,-1.7066,-1.7001,-1.7066,-1.74,-1.7464,-1.7787,-1.8173,-1.8378,-1.8507,-1.8623,-1.8623,-1.888,-1.8816,-1.8559,-1.8623,-1.8431,-1.8559,-1.8688,-1.9124,-1.9331,-1.9522,-1.9726,-1.9638,-1.957,-1.9365,-1.9135,-1.92,-1.9243,-1.9359,-1.9417,-1.9519,-1.9519,-1.9359,-1.9475,-1.9649,-1.9751,-0.7761,-0.7697,-0.7667,-0.7621,-0.7565,-0.7606,-0.7485,-0.7421,-0.7395,-0.7413,-0.7293,-0.728,-0.7353,-0.728,-0.728,-0.7425,-0.7643,-0.7715,-0.786,-0.8082,-0.8295,-0.8584,-0.8801,-0.8868,-0.9013,-0.9224,-0.9192,-0.922,-0.9068,-0.8987,-0.8911,-0.8836,-0.8861,-0.8938,-0.894,-0.8996,-0.9007,-0.8934,-0.9123,-0.9262,-0.9395,-0.9661,-0.9861,-0.9927,-0.9927,-0.9927,-0.9927,-0.9994,-1.0392,-1.138,-1.1512,-1.1512,-1.1637,-1.1637,-1.171,-1.1644,-1.1578,-1.1578,-1.1578,-1.1644,-1.1578,-1.1578,-1.171,-1.1571,-1.1571,-1.1578,-1.1571,-1.1578,-1.1578,-1.1703,-1.1894,-1.2157,-1.2347,-1.2873,-1.4642,-1.6019,-1.6148,-1.6278,-1.6268,-1.6268,-1.6138,-1.6148,-1.6278,-1.6473,-1.6742,-1.7001,-1.726,-1.7464,-1.7647,-1.7647,-1.7711,-1.7582,-1.7453,-1.7658,-1.7787,-1.7852,-1.8109,-1.8635,-1.8804,-1.8932,-1.9167,-1.926,-1.9299,-1.9277,-1.9009,-1.8996,-1.8777,-1.8719,-1.8661,-1.8862,-1.8894,-1.901,-1.9127,-1.9243,-1.9417,-0.7493,-0.7448,-0.7448,-0.7419,-0.737,-0.7333,-0.7268,-0.7186,-0.7141,-0.7076,-0.7003,-0.699,-0.699,-0.699,-0.699,-0.7131,-0.7353,-0.7349,-0.7498,-0.757,-0.7643,-0.7933,-0.8295,-0.844,-0.8584,-0.8729,-0.8801,-0.8693,-0.8637,-0.8662,-0.8596,-0.8464,-0.8488,-0.8426,-0.8369,-0.8364,-0.8333,-0.8277,-0.846,-0.8512,-0.8531,-0.8727,-0.8767,-0.8812,-0.8795,-0.8879,-0.9063,-0.9209,-0.9588,-1.0139,-1.0326,-1.0259,-1.0259,-1.0259,-1.0259,-1.0253,-1.0259,-1.0259,-1.0259,-1.0259,-1.0259,-1.0326,-1.0259,-1.0259,-1.0319,-1.0259,-1.0259,-1.0326,-1.0259,-1.0386,-1.0512,-1.0711,-1.0975,-1.1505,-1.2808,-1.3923,-1.4184,-1.4119,-1.4241,-1.4241,-1.425,-1.4371,-1.4577,-1.4838,-1.5229,-1.5694,-1.5954,-1.6278,-1.6548,-1.6473,-1.6408,-1.6278,-1.6343,-1.6537,-1.6742,-1.6807,-1.7001,-1.7518,-1.798,-1.8173,-1.8553,-1.8804,-1.8924,-1.8914,-1.8801,-1.8696,-1.8436,-1.8332,-1.8588,-1.8705,-1.87,-1.8661,-1.879,-1.8894,-1.901,-0.7525,-0.7525,-0.7525,-0.7525,-0.7505,-0.7439,-0.7354,-0.7268,-0.7186,-0.7096,-0.7023,-0.6994,-0.699,-0.699,-0.699,-0.699,-0.699,-0.7063,-0.7063,-0.7063,-0.7135,-0.7425,-0.786,-0.8005,-0.815,-0.8227,-0.8082,-0.815,-0.8194,-0.8122,-0.8088,-0.8069,-0.7992,-0.7869,-0.7994,-0.792,-0.7845,-0.7881,-0.7936,-0.7966,-0.7908,-0.7961,-0.7932,-0.7878,-0.78,-0.7965,-0.8224,-0.8512,-0.8951,-0.9448,-0.9546,-0.9594,-0.9594,-0.9594,-0.9594,-0.9594,-0.9588,-0.9594,-0.9594,-0.9594,-0.9594,-0.9594,-0.9594,-0.9594,-0.9588,-0.9594,-0.9594,-0.9594,-0.9594,-0.9594,-0.9661,-0.9854,-1.0054,-1.0386,-1.0585,-1.0843,-1.1299,-1.1563,-1.1696,-1.1703,-1.1762,-1.2025,-1.2355,-1.2684,-1.307,-1.3857,-1.4184,-1.4446,-1.4707,-1.4707,-1.4838,-1.4968,-1.5098,-1.5359,-1.5564,-1.5694,-1.5954,-1.6343,-1.6872,-1.7249,-1.7871,-1.8152,-1.8455,-1.8464,-1.8025,-1.8008,-1.8167,-1.8212,-1.827,-1.8386,-1.8314,-1.8332,-1.842,-1.8557,-1.8661,-0.7525,-0.7525,-0.7525,-0.7525,-0.7521,-0.7501,-0.7444,-0.7354,-0.7268,-0.7182,-0.7096,-0.7023,-0.6994,-0.699,-0.699,-0.699,-0.699,-0.6994,-0.699,-0.699,-0.699,-0.7063,-0.7353,-0.7566,-0.786,-0.8005,-0.8082,-0.8082,-0.8068,-0.7982,-0.8045,-0.803,-0.7926,-0.7969,-0.7898,-0.7813,-0.7912,-0.7855,-0.7771,-0.7766,-0.7743,-0.7728,-0.7714,-0.7681,-0.7686,-0.7774,-0.7857,-0.7936,-0.8065,-0.8285,-0.8569,-0.889,-0.8884,-0.8812,-0.8817,-0.8884,-0.8873,-0.8867,-0.8862,-0.8879,-0.8862,-0.8945,-0.8957,-0.8856,-0.8856,-0.8867,-0.8862,-0.8856,-0.8856,-0.8923,-0.8923,-0.8923,-0.9123,-0.9256,-0.9189,-0.9256,-0.9449,-1.0313,-1.0784,-1.0916,-1.0916,-1.0982,-1.1174,-1.1431,-1.1688,-1.2018,-1.2281,-1.2545,-1.2742,-1.3005,-1.3136,-1.3399,-1.3333,-1.353,-1.3726,-1.3988,-1.4381,-1.4707,-1.5229,-1.5684,-1.6312,-1.6872,-1.6957,-1.6976,-1.7003,-1.7179,-1.7614,-1.7384,-1.7326,-1.7598,-1.7865,-1.7913,-1.7995,-1.8168,-1.8244,-0.7525,-0.7525,-0.7525,-0.7525,-0.7525,-0.7525,-0.7476,-0.7395,-0.7346,-0.7248,-0.7137,-0.7068,-0.7031,-0.699,-0.699,-0.699,-0.7003,-0.7035,-0.7056,-0.7056,-0.7052,-0.7031,-0.699,-0.7204,-0.7421,-0.757,-0.757,-0.757,-0.757,-0.757,-0.7566,-0.757,-0.757,-0.7539,-0.75,-0.7563,-0.7469,-0.7433,-0.7411,-0.7394,-0.7424,-0.7415,-0.7314,-0.7375,-0.7459,-0.7626,-0.7631,-0.7837,-0.7907,-0.7939,-0.8099,-0.8209,-0.8209,-0.8209,-0.8209,-0.8209,-0.8418,-0.8486,-0.8559,-0.8622,-0.8764,-0.8753,-0.8758,-0.872,-0.8693,-0.8671,-0.8638,-0.8606,-0.859,-0.859,-0.859,-0.859,-0.859,-0.859,-0.859,-0.859,-0.8723,-0.925,-0.9721,-0.9721,-0.9655,-0.9788,-0.9981,-1.024,-1.0578,-1.0902,-1.1042,-1.1306,-1.1505,-1.1703,-1.1571,-1.1637,-1.1571,-1.1637,-1.1835,-1.2157,-1.261,-1.2939,-1.3333,-1.3661,-1.4045,-1.4623,-1.5125,-1.5564,-1.619,-1.6689,-1.6978,-1.6757,-1.6534,-1.6752,-1.702,-1.7291,-1.7392,-1.7324,-1.753,-0.7525,-0.7525,-0.7525,-0.7525,-0.7525,-0.7525,-0.7484,-0.7419,-0.7395,-0.7305,-0.7186,-0.7154,-0.7113,-0.7052,-0.7043,-0.7035,-0.7056,-0.7105,-0.7145,-0.7145,-0.7117,-0.7096,-0.7056,-0.7112,-0.7096,-0.7011,-0.7067,-0.7063,-0.7063,-0.699,-0.7135,-0.7063,-0.7063,-0.7127,-0.7059,-0.6986,-0.7046,-0.7106,-0.7102,-0.7081,-0.7027,-0.7015,-0.6981,-0.6956,-0.7123,-0.7304,-0.7375,-0.7589,-0.7803,-0.787,-0.772,-0.7678,-0.7664,-0.7771,-0.7836,-0.7826,-0.8159,-0.8218,-0.8282,-0.8506,-0.8649,-0.874,-0.8735,-0.8687,-0.8613,-0.8518,-0.8486,-0.8433,-0.8407,-0.8407,-0.851,-0.8542,-0.8536,-0.8588,-0.8571,-0.8617,-0.8611,-0.86,-0.8723,-0.879,-0.8989,-0.9123,-0.9117,-0.9316,-0.9588,-0.9788,-0.9921,-1.0054,-1.0319,-1.0386,-1.0319,-1.0253,-1.018,-1.0313,-1.0512,-1.1042,-1.1365,-1.1563,-1.1828,-1.2025,-1.2223,-1.2734,-1.3578,-1.4893,-1.555,-1.5856,-1.5934,-1.5711,-1.5653,-1.593,-1.6241,-1.6542,-1.6578,-1.6519,-1.6724,-0.7525,-0.7525,-0.7525,-0.7525,-0.7525,-0.7525,-0.7517,-0.7493,-0.7423,-0.7378,-0.7333,-0.7272,-0.7231,-0.7207,-0.7215,-0.729,-0.7207,-0.7231,-0.7239,-0.7227,-0.7186,-0.7154,-0.7178,-0.7129,-0.7105,-0.708,-0.7047,-0.7011,-0.699,-0.699,-0.699,-0.699,-0.699,-0.699,-0.699,-0.699,-0.699,-0.699,-0.699,-0.697,-0.6958,-0.6949,-0.6945,-0.6917,-0.7085,-0.7098,-0.7106,-0.711,-0.7183,-0.7183,-0.717,-0.7157,-0.7258,-0.7579,-0.7729,-0.7794,-0.7869,-0.7949,-0.7944,-0.799,-0.798,-0.7975,-0.8064,-0.8054,-0.8025,-0.8015,-0.806,-0.8045,-0.8035,-0.7976,-0.7986,-0.8232,-0.84,-0.8454,-0.8591,-0.8674,-0.8725,-0.8666,-0.8611,-0.8617,-0.8606,-0.859,-0.8717,-0.8784,-0.8984,-0.9189,-0.9256,-0.9256,-0.9322,-0.9322,-0.9183,-0.905,-0.8923,-0.9117,-0.9316,-0.9981,-1.0452,-1.0445,-1.0644,-1.0843,-1.1108,-1.1299,-1.2084,-1.3136,-1.3792,-1.3953,-1.4122,-1.4382,-1.4734,-1.4997,-1.5385,-1.578,-1.5751,-1.5586,-1.5896,-0.7525,-0.7525,-0.7525,-0.7525,-0.7525,-0.7525,-0.7525,-0.7521,-0.748,-0.7431,-0.739,-0.7346,-0.7301,-0.7272,-0.7264,-0.7284,-0.7321,-0.7329,-0.7329,-0.7313,-0.7288,-0.7252,-0.7272,-0.7215,-0.7203,-0.7186,-0.715,-0.7072,-0.6998,-0.699,-0.6994,-0.699,-0.699,-0.699,-0.699,-0.699,-0.699,-0.699,-0.699,-0.699,-0.699,-0.699,-0.699,-0.699,-0.699,-0.699,-0.699,-0.699,-0.699,-0.6986,-0.6986,-0.699,-0.7106,-0.7208,-0.7353,-0.742,-0.7562,-0.7704,-0.7709,-0.7856,-0.8002,-0.8002,-0.7922,-0.7894,-0.7931,-0.7912,-0.7828,-0.7785,-0.7836,-0.7836,-0.7826,-0.7985,-0.8049,-0.8109,-0.8411,-0.8597,-0.8634,-0.8617,-0.8636,-0.8604,-0.8561,-0.8539,-0.859,-0.8651,-0.859,-0.859,-0.859,-0.859,-0.859,-0.859,-0.859,-0.859,-0.8656,-0.8717,-0.8851,-0.925,-0.9655,-0.9655,-0.9655,-0.9854,-0.9981,-1.024,-1.0445,-1.1042,-1.1505,-1.2157,-1.261,-1.3046,-1.3521,-1.3932,-1.4038,-1.4216,-1.4576,-1.4801,-1.4935,-0.7291,-0.7369,-0.7369,-0.7447,-0.7525,-0.7525,-0.7525,-0.7525,-0.7521,-0.7484,-0.7423,-0.7415,-0.7378,-0.7333,-0.7329,-0.7358,-0.7415,-0.7419,-0.7419,-0.7411,-0.7382,-0.735,-0.7333,-0.7297,-0.7288,-0.7284,-0.728,-0.7203,-0.7088,-0.7039,-0.7023,-0.7019,-0.7011,-0.699,-0.699,-0.699,-0.699,-0.699,-0.699,-0.699,-0.699,-0.699,-0.699,-0.699,-0.699,-0.699,-0.699,-0.699,-0.699,-0.699,-0.699,-0.699,-0.699,-0.699,-0.699,-0.7063,-0.7276,-0.7421,-0.7562,-0.763,-0.7756,-0.7751,-0.7851,-0.781,-0.7768,-0.766,-0.7709,-0.7635,-0.7626,-0.7565,-0.7579,-0.7696,-0.7767,-0.7832,-0.8108,-0.8288,-0.8328,-0.8411,-0.8407,-0.8423,-0.8474,-0.8499,-0.855,-0.859,-0.859,-0.859,-0.859,-0.859,-0.859,-0.859,-0.859,-0.859,-0.859,-0.859,-0.8651,-0.8717,-0.8989,-0.9056,-0.9056,-0.9123,-0.9117,-0.9183,-0.9449,-0.9788,-1.0114,-1.077,-1.1233,-1.1696,-1.2091,-1.2421,-1.2421,-1.266,-1.3192,-1.3392,-1.3474,-0.6666,-0.6982,-0.6982,-0.7138,-0.7447,-0.7447,-0.7447,-0.7447,-0.7447,-0.7521,-0.7341,-0.7427,-0.7415,-0.7399,-0.7399,-0.7415,-0.7501,-0.7497,-0.7493,-0.748,-0.7435,-0.7431,-0.7464,-0.7407,-0.7382,-0.7374,-0.7374,-0.7321,-0.7227,-0.7154,-0.7113,-0.7101,-0.7039,-0.6994,-0.7011,-0.7011,-0.699,-0.699,-0.6998,-0.6998,-0.6998,-0.6998,-0.6998,-0.699,-0.699,-0.699,-0.699,-0.699,-0.699,-0.699,-0.699,-0.699,-0.699,-0.699,-0.699,-0.699,-0.7063,-0.7063,-0.7135,-0.7208,-0.728,-0.728,-0.7208,-0.7127,-0.7251,-0.7246,-0.7238,-0.711,-0.709,-0.7149,-0.7284,-0.7445,-0.7526,-0.7706,-0.787,-0.7988,-0.8101,-0.8163,-0.8174,-0.8129,-0.8128,-0.8303,-0.8381,-0.855,-0.859,-0.859,-0.859,-0.859,-0.859,-0.859,-0.859,-0.859,-0.859,-0.859,-0.859,-0.859,-0.859,-0.859,-0.859,-0.8656,-0.8717,-0.8784,-0.8717,-0.905,-0.9316,-0.9649,-1.018,-1.0578,-1.0777,-1.0975,-1.1233,-1.1563,-1.1952,-1.2038,-1.2123,-0.5727,-0.6509,-0.6587,-0.6666,-0.6822,-0.6822,-0.6822,-0.6822,-0.6822,-0.6822,-0.6822,-0.6822,-0.6978,-0.7135,-0.7135,-0.7291,-0.7447,-0.7447,-0.7525,-0.7447,-0.7407,-0.7484,-0.7505,-0.7488,-0.7468,-0.7382,-0.7464,-0.746,-0.7374,-0.7276,-0.7203,-0.719,-0.7117,-0.7072,-0.7068,-0.7068,-0.7068,-0.7084,-0.7113,-0.7117,-0.708,-0.7064,-0.7043,-0.6994,-0.699,-0.699,-0.699,-0.699,-0.699,-0.699,-0.699,-0.699,-0.699,-0.699,-0.699,-0.699,-0.699,-0.699,-0.699,-0.699,-0.699,-0.699,-0.699,-0.6986,-0.699,-0.699,-0.699,-0.6986,-0.6986,-0.699,-0.699,-0.7135,-0.7208,-0.7336,-0.7522,-0.7657,-0.7764,-0.7908,-0.7987,-0.7879,-0.7836,-0.7957,-0.8,-0.8003,-0.8112,-0.8303,-0.8365,-0.8421,-0.8472,-0.859,-0.859,-0.859,-0.859,-0.859,-0.859,-0.859,-0.859,-0.859,-0.859,-0.859,-0.859,-0.8656,-0.859,-0.859,-0.8851,-0.9117,-0.9389,-0.9582,-0.9848,-1.0047,-1.018,-1.0512,-1.0777,-1.0902,-1.1059,-0.4787,-0.5727,-0.604,-0.6196,-0.6271,-0.6271,-0.6271,-0.6271,-0.6349,-0.6271,-0.6271,-0.6349,-0.6509,-0.6666,-0.6744,-0.69,-0.7135,-0.7213,-0.7213,-0.7213,-0.7213,-0.7131,-0.7131,-0.7209,-0.7287,-0.7369,-0.7435,-0.7509,-0.7476,-0.7403,-0.7325,-0.7292,-0.7207,-0.7166,-0.7158,-0.7158,-0.7162,-0.7166,-0.7215,-0.7211,-0.7166,-0.7133,-0.7088,-0.7039,-0.7003,-0.699,-0.699,-0.699,-0.699,-0.699,-0.699,-0.699,-0.699,-0.699,-0.699,-0.699,-0.699,-0.699,-0.699,-0.699,-0.699,-0.699,-0.699,-0.699,-0.699,-0.699,-0.699,-0.699,-0.699,-0.699,-0.699,-0.699,-0.7063,-0.7063,-0.7127,-0.7276,-0.7268,-0.72,-0.7233,-0.722,-0.7181,-0.7336,-0.7386,-0.7351,-0.7573,-0.7955,-0.8075,-0.82,-0.8262,-0.8459,-0.8412,-0.8303,-0.8309,-0.8366,-0.8453,-0.851,-0.8494,-0.8544,-0.8544,-0.8595,-0.86,-0.859,-0.859,-0.859,-0.859,-0.8723,-0.8989,-0.8984,-0.8984,-0.925,-0.9449,-0.9455,-0.9588,-0.9788,-0.9981,-0.3846,-0.4081,-0.5257,-0.5883,-0.6193,-0.6271,-0.6271,-0.6037,-0.6193,-0.6115,-0.6118,-0.6193,-0.6196,-0.6353,-0.6353,-0.6353,-0.6427,-0.6349,-0.6506,-0.6506,-0.6349,-0.6506,-0.6587,-0.6822,-0.6982,-0.6982,-0.7135,-0.7369,-0.7443,-0.7263,-0.7358,-0.7382,-0.7221,-0.7264,-0.7252,-0.7252,-0.7264,-0.7268,-0.7297,-0.7284,-0.7239,-0.7194,-0.7137,-0.7105,-0.7039,-0.699,-0.699,-0.699,-0.699,-0.699,-0.699,-0.699,-0.699,-0.699,-0.699,-0.6918,-0.6918,-0.6845,-0.6773,-0.6918,-0.699,-0.699,-0.699,-0.699,-0.699,-0.699,-0.699,-0.699,-0.6918,-0.6918,-0.6918,-0.699,-0.6696,-0.6627,-0.6482,-0.6337,-0.6264,-0.6112,-0.6156,-0.638,-0.6494,-0.6507,-0.6693,-0.6605,-0.7139,-0.7594,-0.7927,-0.7986,-0.7942,-0.8084,-0.7971,-0.7922,-0.7927,-0.8035,-0.8229,-0.8277,-0.8267,-0.8309,-0.8355,-0.8453,-0.855,-0.8544,-0.8494,-0.859,-0.859,-0.859,-0.859,-0.8717,-0.8784,-0.8656,-0.8723,-0.8923,-0.8989,-0.9189,-0.925,-0.3532,-0.3846,-0.4317,-0.463,-0.4784,-0.4787,-0.4787,-0.4787,-0.4787,-0.4944,-0.5181,-0.5181,-0.5414,-0.5727,-0.5962,-0.6118,-0.6275,-0.6271,-0.6271,-0.6271,-0.6271,-0.6271,-0.6349,-0.6353,-0.6509,-0.6587,-0.6744,-0.6744,-0.6744,-0.6822,-0.6733,-0.6833,-0.7072,-0.735,-0.7341,-0.7269,-0.729,-0.7407,-0.7411,-0.7403,-0.7337,-0.7313,-0.7264,-0.7207,-0.7121,-0.708,-0.7068,-0.7015,-0.6998,-0.6994,-0.6926,-0.6926,-0.693,-0.693,-0.6781,-0.6631,-0.6559,-0.6337,-0.6188,-0.6478,-0.699,-0.699,-0.699,-0.6918,-0.6845,-0.6918,-0.699,-0.6918,-0.67,-0.6555,-0.6555,-0.6188,-0.5825,-0.5752,-0.5607,-0.5392,-0.5247,-0.5098,-0.5098,-0.5235,-0.5373,-0.5427,-0.563,-0.5757,-0.6528,-0.7226,-0.7566,-0.7771,-0.7725,-0.7734,-0.7673,-0.7678,-0.7683,-0.7725,-0.7931,-0.7976,-0.8035,-0.8064,-0.8166,-0.8272,-0.8303,-0.8366,-0.8303,-0.8448,-0.8523,-0.8523,-0.8523,-0.859,-0.859,-0.859,-0.859,-0.8656,-0.8717,-0.8717,-0.8784,-0.314,-0.3377,-0.3377,-0.3532,-0.3768,-0.3846,-0.3846,-0.3846,-0.3846,-0.3925,-0.4241,-0.4241,-0.4476,-0.4946,-0.51,-0.5179,-0.5335,-0.5411,-0.5492,-0.5492,-0.5489,-0.5727,-0.5805,-0.5962,-0.6118,-0.6118,-0.6275,-0.6349,-0.6349,-0.6271,-0.6346,-0.6562,-0.677,-0.6972,-0.7042,-0.7046,-0.7073,-0.7119,-0.7127,-0.7111,-0.7046,-0.7011,-0.6907,-0.6838,-0.6765,-0.6723,-0.6622,-0.6581,-0.6628,-0.6628,-0.6624,-0.6612,-0.6686,-0.6608,-0.6447,-0.6221,-0.5915,-0.5541,-0.5317,-0.5607,-0.6264,-0.6119,-0.6119,-0.6192,-0.6337,-0.6337,-0.6043,-0.6116,-0.5974,-0.5829,-0.5756,-0.5244,-0.4805,-0.4732,-0.4369,-0.4153,-0.408,-0.3932,-0.4005,-0.4078,-0.4221,-0.4288,-0.4721,-0.4999,-0.5839,-0.6638,-0.7144,-0.742,-0.742,-0.742,-0.7411,-0.7411,-0.7407,-0.7513,-0.7678,-0.7673,-0.7725,-0.7931,-0.7971,-0.7971,-0.8021,-0.8069,-0.8088,-0.8095,-0.8179,-0.8339,-0.8323,-0.8323,-0.8456,-0.8584,-0.8584,-0.859,-0.859,-0.8651,-0.8651,-0.2514,-0.2514,-0.2592,-0.3063,-0.3689,-0.3768,-0.3768,-0.3689,-0.3689,-0.3768,-0.3768,-0.3768,-0.3846,-0.4003,-0.416,-0.4238,-0.4238,-0.416,-0.416,-0.4317,-0.4552,-0.4554,-0.4789,-0.5181,-0.5414,-0.5648,-0.5727,-0.5802,-0.6037,-0.5883,-0.5958,-0.5958,-0.6023,-0.6254,-0.6268,-0.6346,-0.6349,-0.6349,-0.6431,-0.642,-0.6481,-0.6361,-0.6333,-0.6382,-0.6318,-0.628,-0.6262,-0.6202,-0.6188,-0.6213,-0.6198,-0.6131,-0.6094,-0.6053,-0.5806,-0.528,-0.4926,-0.446,-0.4087,-0.4449,-0.453,-0.4825,-0.4976,-0.4979,-0.4822,-0.4816,-0.4895,-0.4976,-0.4752,-0.4527,-0.4304,-0.4014,-0.3729,-0.3433,-0.307,-0.2698,-0.2627,-0.255,-0.255,-0.255,-0.2768,-0.3057,-0.3641,-0.4223,-0.5096,-0.5884,-0.662,-0.6974,-0.7017,-0.7077,-0.7056,-0.7267,-0.7258,-0.7317,-0.7362,-0.7429,-0.7469,-0.7678,-0.7785,-0.7734,-0.7757,-0.7769,-0.779,-0.7801,-0.7795,-0.7932,-0.7989,-0.8061,-0.8189,-0.8323,-0.859,-0.859,-0.859,-0.859,-0.859,-0.2514,-0.2514,-0.2514,-0.2671,-0.2906,-0.2906,-0.2906,-0.2906,-0.2985,-0.3062,-0.3297,-0.3376,-0.3532,-0.3689,-0.3768,-0.3768,-0.3768,-0.3846,-0.3846,-0.3768,-0.3925,-0.4003,-0.4162,-0.4319,-0.4476,-0.4473,-0.463,-0.4787,-0.4552,-0.4787,-0.4709,-0.463,-0.4944,-0.5332,-0.5958,-0.6271,-0.6271,-0.6271,-0.6271,-0.6271,-0.6271,-0.6169,-0.6156,-0.6153,-0.6008,-0.5902,-0.5892,-0.5751,-0.5738,-0.5767,-0.5751,-0.5714,-0.5507,-0.5474,-0.5091,-0.4323,-0.3685,-0.2765,-0.1642,-0.1194,-0.1859,-0.2887,-0.369,-0.3703,-0.3875,-0.3851,-0.3916,-0.3764,-0.3467,-0.332,-0.332,-0.2457,-0.2014,-0.185,-0.1476,-0.1027,-0.0878,-0.0803,-0.0801,-0.0874,-0.102,-0.153,-0.2041,-0.2841,-0.3787,-0.4589,-0.5244,-0.6192,-0.6463,-0.6612,-0.6677,-0.6966,-0.7034,-0.7106,-0.7098,-0.7217,-0.7208,-0.7308,-0.7367,-0.7308,-0.7389,-0.7431,-0.7557,-0.757,-0.7544,-0.7526,-0.766,-0.7794,-0.7927,-0.8123,-0.8256,-0.8523,-0.859,-0.859,-0.859,-0.2514,-0.2514,-0.2514,-0.2514,-0.2514,-0.2514,-0.2514,-0.2514,-0.2514,-0.2671,-0.2826,-0.2905,-0.3062,-0.3299,-0.3376,-0.3376,-0.3377,-0.3377,-0.3377,-0.3376,-0.3532,-0.3532,-0.3611,-0.3689,-0.4003,-0.3768,-0.3768,-0.3846,-0.4003,-0.3846,-0.3925,-0.3925,-0.3846,-0.4473,-0.51,-0.5254,-0.5254,-0.5254,-0.5179,-0.5254,-0.5254,-0.5329,-0.5329,-0.5321,-0.5298,-0.5197,-0.5257,-0.5225,-0.5264,-0.5211,-0.5151,-0.4948,-0.4719,-0.4328,-0.3859,-0.2997,-0.1753,-0.0681,0.0604,0.1133,0.0301,-0.0828,-0.1724,-0.2101,-0.2188,-0.21,-0.2095,-0.2018,-0.2018,-0.1867,-0.1572,-0.0605,-0.0453,-0.0299,-0.0075,0.0371,0.037,0.037,0.0368,0.0368,0.0294,-0.0147,-0.0657,-0.1384,-0.233,-0.3059,-0.3787,-0.4735,-0.568,-0.5974,-0.6192,-0.6627,-0.6845,-0.691,-0.6978,-0.7046,-0.7046,-0.6986,-0.7046,-0.7102,-0.7132,-0.7181,-0.7296,-0.7337,-0.7192,-0.7121,-0.734,-0.7459,-0.766,-0.7794,-0.7927,-0.8189,-0.8523,-0.8523,-0.8523,-0.2514,-0.2514,-0.2514,-0.2514,-0.2514,-0.2514,-0.2514,-0.2514,-0.2514,-0.2514,-0.2514,-0.2514,-0.2592,-0.2592,-0.2592,-0.2592,-0.2671,-0.2592,-0.2671,-0.2671,-0.2983,-0.3062,-0.3219,-0.3454,-0.3454,-0.3611,-0.3611,-0.3456,-0.3689,-0.3532,-0.3532,-0.3611,-0.3532,-0.3768,-0.3925,-0.4003,-0.4081,-0.4238,-0.4317,-0.4317,-0.4395,-0.416,-0.4238,-0.4312,-0.4229,-0.4227,-0.4135,-0.4033,-0.3882,-0.3731,-0.342,-0.3196,-0.2884,-0.2563,-0.1935,-0.0923,0.0458,0.1524,0.2284,0.2667,0.2598,0.1763,0.122,0.0684,0.0228,-0.0076,-0.0076,-0.0076,0.0,0.0303,0.0683,0.076,0.0913,0.1062,0.1212,0.1361,0.1283,0.1279,0.1274,0.1195,0.1191,0.0816,0.0294,-0.0366,-0.0951,-0.1384,-0.2186,-0.2986,-0.3932,-0.5098,-0.5462,-0.6264,-0.6482,-0.67,-0.6773,-0.6918,-0.699,-0.699,-0.699,-0.7046,-0.7013,-0.6976,-0.7023,-0.7,-0.6781,-0.6783,-0.6994,-0.7152,-0.7393,-0.7526,-0.7593,-0.7856,-0.8123,-0.8256,-0.8323,-0.2514,-0.2514,-0.2514,-0.2514,-0.2514,-0.2514,-0.2514,-0.2514,-0.2514,-0.2514,-0.2514,-0.2514,-0.2514,-0.2514,-0.2514,-0.2514,-0.2514,-0.2514,-0.2514,-0.2592,-0.2671,-0.2671,-0.2749,-0.2906,-0.2906,-0.2906,-0.2906,-0.2985,-0.2906,-0.2906,-0.2906,-0.2828,-0.2985,-0.2985,-0.2985,-0.2906,-0.3297,-0.3532,-0.3689,-0.3689,-0.3689,-0.3689,-0.3689,-0.3689,-0.3689,-0.3689,-0.3603,-0.3285,-0.313,-0.2739,-0.2445,-0.206,-0.0872,-0.0713,-0.0237,0.1328,0.2491,0.3343,0.3809,0.4117,0.4039,0.3815,0.3341,0.2799,0.217,0.1772,0.1764,0.1686,0.1686,0.1763,0.1919,0.1999,0.2076,0.2151,0.2224,0.222,0.214,0.198,0.1972,0.1813,0.1732,0.1496,0.1037,0.0738,0.0221,0.0,-0.051,-0.1311,-0.2331,-0.3496,-0.4662,-0.5535,-0.6119,-0.6337,-0.67,-0.699,-0.699,-0.699,-0.699,-0.6986,-0.6966,-0.6993,-0.6931,-0.6782,-0.6692,-0.6696,-0.6706,-0.6868,-0.7022,-0.7125,-0.7187,-0.7455,-0.7655,-0.7856,-0.7989,-0.2514,-0.2514,-0.2514,-0.2514,-0.2514,-0.2514,-0.2514,-0.2514,-0.2514,-0.2514,-0.2514,-0.2514,-0.2514,-0.2514,-0.2514,-0.2514,-0.2514,-0.2514,-0.2514,-0.2514,-0.2514,-0.2514,-0.2514,-0.2514,-0.2592,-0.2514,-0.2514,-0.2592,-0.2514,-0.2514,-0.2514,-0.2514,-0.2514,-0.2514,-0.2514,-0.2592,-0.2828,-0.3063,-0.322,-0.3299,-0.3299,-0.3299,-0.3299,-0.3299,-0.3299,-0.322,-0.2983,-0.259,-0.1962,-0.1413,-0.095,-0.0159,0.0793,0.103,0.1503,0.2902,0.3527,0.4073,0.4461,0.4698,0.4784,0.4709,0.4633,0.4234,0.3677,0.3191,0.303,0.2949,0.2949,0.3029,0.3115,0.3198,0.3115,0.3032,0.3104,0.3098,0.2933,0.2693,0.2529,0.2367,0.2202,0.1962,0.1725,0.1567,0.1335,0.081,0.0439,-0.0073,-0.1094,-0.2186,-0.3569,-0.4662,-0.5462,-0.597,-0.6478,-0.6918,-0.699,-0.699,-0.699,-0.6986,-0.6978,-0.6958,-0.6909,-0.6827,-0.6737,-0.6676,-0.6687,-0.663,-0.672,-0.6757,-0.6862,-0.6991,-0.7192,-0.7455,-0.7526,-0.2514,-0.2514,-0.2514,-0.2514,-0.2514,-0.2514,-0.2514,-0.2514,-0.2514,-0.2514,-0.2514,-0.2514,-0.2514,-0.2514,-0.2514,-0.2514,-0.2514,-0.2514,-0.2514,-0.2514,-0.2514,-0.2514,-0.2514,-0.2514,-0.2514,-0.2514,-0.2514,-0.2514,-0.2514,-0.2514,-0.2514,-0.2514,-0.2514,-0.2514,-0.2514,-0.2514,-0.2592,-0.2671,-0.2749,-0.2749,-0.2671,-0.2592,-0.2514,-0.2514,-0.2514,-0.2357,-0.1806,-0.1099,-0.0314,0.0392,0.1099,0.1807,0.2279,0.2751,0.3377,0.377,0.4238,0.4552,0.4787,0.4944,0.4944,0.4944,0.5022,0.4863,0.4388,0.4149,0.3908,0.3908,0.3825,0.3825,0.3912,0.3914,0.3832,0.3751,0.3671,0.3589,0.3272,0.3186,0.3103,0.2936,0.2847,0.26,0.2505,0.2342,0.2171,0.1635,0.1402,0.11,0.0146,-0.0948,-0.2405,-0.3862,-0.4808,-0.5607,-0.6337,-0.6773,-0.6918,-0.699,-0.699,-0.699,-0.6982,-0.697,-0.6958,-0.6884,-0.6811,-0.6729,-0.6668,-0.6627,-0.6578,-0.6584,-0.6623,-0.6535,-0.6732,-0.7067,-0.7125,-0.2514,-0.2514,-0.2514,-0.2514,-0.2514,-0.2514,-0.2514,-0.2514,-0.2514,-0.2514,-0.2514,-0.2514,-0.2514,-0.2514,-0.2514,-0.2514,-0.2514,-0.2514,-0.2514,-0.2514,-0.2514,-0.2514,-0.2514,-0.2514,-0.2514,-0.2514,-0.2514,-0.2514,-0.2514,-0.2514,-0.2514,-0.2514,-0.2514,-0.2514,-0.2514,-0.2514,-0.2514,-0.2514,-0.2514,-0.2514,-0.2514,-0.2514,-0.2514,-0.2357,-0.2278,-0.1886,-0.1256,-0.0314,0.0628,0.1491,0.2276,0.3062,0.3768,0.4238,0.4549,0.4706,0.4709,0.4865,0.4944,0.5022,0.5022,0.5022,0.5022,0.5022,0.4944,0.4784,0.4706,0.463,0.463,0.463,0.463,0.463,0.4552,0.4395,0.4241,0.3925,0.3689,0.3609,0.3527,0.3517,0.3428,0.333,0.3152,0.305,0.2949,0.2776,0.2679,0.229,0.1318,0.0219,-0.1532,-0.2988,-0.4226,-0.5101,-0.5974,-0.6627,-0.6845,-0.699,-0.699,-0.699,-0.699,-0.6982,-0.697,-0.6945,-0.6888,-0.6815,-0.6754,-0.6725,-0.6668,-0.659,-0.6553,-0.6549,-0.65,-0.6757,-0.6736,-0.2514,-0.2514,-0.2514,-0.2514,-0.2514,-0.2514,-0.2514,-0.2514,-0.2514,-0.2514,-0.2514,-0.2514,-0.2514,-0.2514,-0.2514,-0.2514,-0.2514,-0.2514,-0.2514,-0.2514,-0.2514,-0.2514,-0.2514,-0.2514,-0.2514,-0.2514,-0.2514,-0.2514,-0.2514,-0.2514,-0.2514,-0.2514,-0.2514,-0.2514,-0.2514,-0.2514,-0.2514,-0.2514,-0.2514,-0.2514,-0.2514,-0.2514,-0.2514,-0.2357,-0.2043,-0.157,-0.0471,0.0471,0.1648,0.2668,0.3531,0.4001,0.4473,0.4787,0.4944,0.4944,0.4944,0.5022,0.5022,0.5022,0.5022,0.5022,0.5022,0.5022,0.5022,0.4865,0.4865,0.4865,0.4865,0.4865,0.4865,0.4865,0.4787,0.4709,0.463,0.4473,0.4081,0.3846,0.3766,0.3683,0.3675,0.3593,0.349,0.3465,0.3286,0.297,0.2944,0.2462,0.17,0.0881,-0.0806,-0.2119,-0.3435,-0.4595,-0.5462,-0.6192,-0.67,-0.6845,-0.6918,-0.699,-0.699,-0.699,-0.6982,-0.6962,-0.6941,-0.69,-0.6851,-0.6815,-0.6754,-0.6672,-0.6651,-0.6639,-0.6582,-0.6533,-0.6593,-0.2514,-0.2514,-0.2514,-0.2514,-0.2514,-0.2514,-0.2514,-0.2514,-0.2514,-0.2514,-0.2514,-0.2514,-0.2514,-0.2514,-0.2514,-0.2514,-0.2514,-0.2514,-0.2514,-0.2514,-0.2514,-0.2514,-0.2514,-0.2514,-0.2514,-0.2514,-0.2514,-0.2514,-0.2514,-0.2514,-0.2514,-0.2514,-0.2514,-0.2514,-0.2514,-0.2514,-0.2514,-0.2514,-0.2514,-0.2514,-0.2514,-0.2514,-0.2435,-0.2278,-0.1886,-0.1099,0.0157,0.1413,0.2668,0.3531,0.4393,0.4706,0.4865,0.4944,0.5022,0.5022,0.5022,0.5022,0.5022,0.5022,0.5022,0.5022,0.5022,0.5022,0.5022,0.5022,0.5022,0.5022,0.5022,0.5022,0.5022,0.5022,0.5022,0.4944,0.4944,0.4865,0.4473,0.416,0.4081,0.4003,0.4003,0.4003,0.3908,0.388,0.3633,0.3236,0.26,0.1964,0.1346,0.0447,-0.0741,-0.1696,-0.2719,-0.3809,-0.4959,-0.568,-0.6264,-0.6555,-0.6627,-0.6845,-0.699,-0.699,-0.699,-0.6986,-0.6962,-0.6937,-0.6917,-0.6884,-0.6819,-0.6758,-0.6745,-0.6725,-0.6676,-0.6631,-0.6615,-0.2514,-0.2514,-0.2514,-0.2514,-0.2514,-0.2514,-0.2514,-0.2514,-0.2514,-0.2514,-0.2514,-0.2514,-0.2514,-0.2514,-0.2514,-0.2514,-0.2514,-0.2514,-0.2514,-0.2514,-0.2514,-0.2514,-0.2514,-0.2514,-0.2514,-0.2514,-0.2514,-0.2514,-0.22,-0.2357,-0.2435,-0.2357,-0.2435,-0.2435,-0.2435,-0.2435,-0.2435,-0.2435,-0.2514,-0.2514,-0.2514,-0.2435,-0.2278,-0.1886,-0.1256,-0.0157,0.1021,0.2197,0.3297,0.4081,0.4709,0.4944,0.5022,0.5022,0.5022,0.5022,0.5022,0.5022,0.5022,0.5022,0.5022,0.5022,0.5022,0.5022,0.5022,0.5022,0.5022,0.5022,0.5022,0.5022,0.5022,0.5022,0.5022,0.5022,0.4944,0.4944,0.4787,0.4709,0.4709,0.463,0.463,0.463,0.4625,0.4447,0.4199,0.3643,0.2779,0.206,0.1059,0.0151,-0.0826,-0.1491,-0.2221,-0.3304,-0.453,-0.5026,-0.5607,-0.597,-0.6337,-0.6482,-0.67,-0.699,-0.699,-0.6845,-0.6918,-0.6902,-0.6954,-0.6937,-0.6905,-0.6851,-0.6835,-0.6811,-0.6766,-0.6725,-0.6705]},{"header":{"parameterUnit":"m.s-1","parameterCategory":1,"la1":31.0,"la2":29.5877,"lo1":-88.7671,"lo2":-86.6584,"dy":0.0162,"dx":0.0185,"nx":115,"ny":88,"refTime":"2024-06-17T06:00:00:Z","depth":0,"parameterNumber":3,"parameterNumberName":"V-component_of_WINDS"},"data":[0.0,0.0,0.0,0.0,0.0,0.0,0.0,0.0,0.0,0.0,0.0,0.0,0.0,0.0,0.0,0.0,0.0,0.0,0.0,0.0,0.0,0.0,0.0,0.0,0.0,0.0,0.0,0.0,0.0,0.0,0.0,0.0,0.0,0.0,0.0,0.0,0.0,0.0,0.0,0.0,0.0,0.0,0.0,0.0,0.0,0.0,0.0,0.0,0.0,0.0,0.0,0.0,0.0,0.0,0.0,0.0,0.0,0.0,0.0,0.0,0.0,0.0,0.0,0.0,0.0,0.0,0.0,0.0,0.0,0.0,0.0,0.0,0.0,0.0,0.0,0.0,0.0,0.0,0.0,0.0,0.0,0.0,0.0,0.0,0.0,0.0,0.0,0.0,0.0,0.0,0.0,0.0,0.0,0.0,0.0,0.0,0.0,0.0,0.0,0.0,0.0,0.0,0.0,0.0,0.0,0.0,0.0,0.0,0.0,0.0,0.0,0.0,0.0,0.0,0.0,0.0,0.0,0.0,0.0,0.0,0.0,0.0,0.0,0.0,0.0,0.0,0.0,0.0,0.0,0.0,0.0,0.0,0.0,0.0,0.0,0.0,0.0,0.0,0.0,0.0,0.0,0.0,0.0,0.0,0.0,0.0,0.0,0.0,0.0,0.0,0.0,0.0,0.0,0.0,0.0,0.0,0.0,0.0,0.0,0.0,0.0,0.0,0.0,0.0,0.0,0.0,0.0,0.0,0.0,0.0,0.0,0.0,0.0,0.0,0.0,0.0,0.0,0.0,0.0,0.0,0.0,0.0,0.0,0.0,0.0,0.0,0.0,0.0,0.0,0.0,0.0,0.0,0.0,0.0,0.0,0.0,0.0,0.0,0.0,0.0,0.0,0.0,0.0,0.0,0.0,0.0,0.0,0.0,0.0,0.0,0.0,0.0,0.0,0.0,0.0,0.0,0.0,0.0,0.0,0.0,0.0,0.0,0.0,0.0,0.0,0.0,0.0,0.0,0.0,0.0,0.0,0.0,0.0,0.0,0.0,0.0,0.0,0.0,0.0,0.0,0.0,0.0,0.0,0.0,0.0,0.0,0.0,0.0,0.0,0.0,0.0,0.0,0.0,0.0,0.0,0.0,0.0,0.0,0.0,0.0,0.0,0.0,0.0,0.0,0.0,0.0,0.0,0.0,0.0,0.0,0.0,0.0,0.0,0.0,0.0,0.0,0.0,0.0,0.0,0.0,0.0,0.0,0.0,0.0,0.0,0.0,0.0,0.0,0.0,0.0,0.0,0.0,0.0,0.0,0.0,0.0,0.0,0.0,0.0,0.0,0.0,0.0,0.0,0.0,0.0,0.0,0.0,0.0,0.0,0.0,0.0,0.0,0.0,0.0,0.0,0.0,0.0,0.0,0.0,0.0,0.0,0.0,0.0,0.0,0.0,0.0,0.0,0.0,0.0,0.0,0.0,0.0,0.0,0.0,0.0,0.0,0.0,0.0,0.0,0.0,0.0,0.0,0.0,0.0,0.0,0.0,0.0,0.0,0.0,0.0,0.0,0.0,0.0,0.0,0.0,0.0,0.0,0.0,0.0,0.0,0.0,0.0,0.0,0.0,0.0,0.0,0.0,0.0,0.0,0.0,0.0,0.0,0.0,0.0,0.0,0.0,0.0,0.0,0.0,0.0,0.0,0.0,0.0,0.0,0.0,0.0,0.0,0.0,0.0,0.0,0.0,0.0,0.0,0.0,0.0,0.0,0.0,0.0,0.0,0.0,0.0,0.0,0.0,0.0,0.0,0.0,0.0,0.0,0.0,0.0,0.0,0.0,0.0,0.0,0.0,0.0,0.0,0.0,0.0,0.0,0.0,0.0,0.0,0.0,0.0,0.0,0.0,0.0,0.0,0.0,0.0,0.0,0.0,0.0,0.0,0.0,0.0,0.0,0.0,0.0,0.0,0.0,0.0,0.0,0.0,0.0,0.0,0.0,0.0,0.0,0.0,0.0,0.0,0.0,0.0,0.0,0.0,0.0,0.0,0.0,0.0,0.0,0.0,0.0,0.0,0.0,0.0,0.0,0.0,0.0,0.0,0.0,0.0,0.0,0.0,0.0,0.0,0.0,0.0,0.0,0.0,0.0,0.0,0.0,0.0,0.0,0.0,0.0,0.0,0.0,0.0,0.0,0.0,0.0,0.0,0.0,0.0,0.0,0.0,0.0,0.0,0.0,0.0,0.0,0.0,0.0,0.0,0.0,0.0,0.0,0.0,0.0,0.0,0.0,0.0,0.0,0.0,0.0,0.0,0.0,0.0,0.0,0.0,0.0,0.0,0.0,0.0,0.0,0.0,0.0,0.0,0.0,0.0,0.0,0.0,0.0,0.0,0.0,0.0,0.0,0.0,0.0,0.0,0.0,0.0,0.0,0.0,0.0,0.0,0.0,0.0,0.0,0.0,0.0,0.0,0.0,0.0,0.0,0.0,0.0,0.0,0.0,0.0,0.0,0.0,0.0,0.0,0.0,0.0,0.0,0.0,0.0,0.0,0.0,0.0,0.0,0.0,0.0,0.0,0.0,0.0,0.0,0.0,0.0,0.0,0.0,0.0,0.0,0.0,0.0,0.0,0.0,0.0,0.0,0.0,0.0,0.0,0.0,0.0,0.0,0.0,0.0,0.0,0.0,0.0,0.0,0.0,0.0,0.0,0.0,0.0,0.0,0.0,0.0,0.0,0.0,0.0,0.0,0.0,0.0,0.0,0.0,0.0,0.0,0.0,0.0,0.0,0.0,0.0,0.0,0.0,0.0,0.0,0.0,0.0,0.0,0.0,0.0,0.0,0.0,0.0,0.0,0.0,0.0,0.0,0.0,0.0,0.0,0.0,0.0,0.0,0.0,0.0,0.0,0.0,0.0,0.0,0.0,0.0,0.0,0.0,0.0,0.0,0.0,0.0,0.0,0.0,0.0,0.0,0.0,0.0,0.0,0.0,0.0,0.0,0.0,0.0,0.0,0.0,0.0,0.0,0.0,0.0,0.0,0.0,0.0,0.0,0.0,0.0,0.0,0.0,0.0,0.0,0.0,0.0,0.0,0.0,0.0,0.0,0.0,0.0,0.0,0.0,0.0,0.0,0.0,0.0,0.0,0.0,0.0,0.0,0.0,0.0,0.0,0.0,0.0,0.0,0.0,0.0,0.0,0.0,0.0,0.0,0.0,0.0,0.0,0.0,0.0,0.0,0.0,0.0,0.0,0.0,0.0,0.0,0.0,0.0,0.0,0.0,0.0,0.0,0.0,0.0,0.0,0.0,0.0,0.0,0.0,0.0,0.0,0.0,0.0,0.0,0.0,0.0,0.0,0.0,0.0,0.0,0.0,0.0,0.0,0.0,0.0,0.0,0.0,0.0,0.0,0.0,0.0,0.0,0.0,0.0,0.0,0.0,0.0,0.0,0.0,0.0,0.0,0.0,0.0,0.0,0.0,0.0,0.0,0.0,0.0,0.0,0.0,0.0,0.0,0.0,0.0,0.0,0.0,0.0,0.0,0.0,0.0,0.0,0.0,0.0,0.0,0.0,0.0,0.0,0.0,0.0,0.0,0.0,0.0,0.0,0.0,0.0,0.0,0.0,0.0,0.0,0.0,0.0,0.0,0.0,0.0,0.0,0.0,0.0,0.0,0.0,0.0,0.0,0.0,0.0,0.0,0.0,0.0,0.0,0.0,0.0,0.0,0.0,0.0,0.0,0.0,0.0,0.0,0.0,0.0,0.0,0.0,0.0,0.0,0.0,0.0,0.0,0.0,0.0,0.0,0.0,0.0,0.0,0.0,0.0,0.0,0.0,0.0,0.0,0.0,0.0,0.0,0.0,0.0,0.0,0.0,0.0,0.0,0.0,0.0,0.0,0.0,0.0,0.0,0.0,0.0,0.0,0.0,0.0,0.0,0.0,0.0,0.0,0.0,0.0,0.0,0.0,0.0,0.0,0.0,0.0,0.0,0.0,0.0,0.0,0.0,0.0,0.0,0.0,0.0,0.0,0.0,0.0,0.0,0.0,0.0,0.0,0.0,0.0,0.0,0.0,0.0,0.0,0.0,0.0,0.0,0.0,0.0,0.0,0.0,0.0,0.0,0.0,0.0,0.0,0.0,0.0,0.0,0.0,0.0,0.0,0.0,0.0,0.0,0.0,0.0,0.0,0.0,0.0,0.0,0.0,0.0,0.0,0.0,0.0,0.0,0.0,0.0,0.0,0.0,0.0,0.0,0.0,0.0,4.3984,0.0,0.0,0.0,3.9681,0.0,0.0,0.0,0.0,0.0,0.0,0.0,0.0,0.0,0.0,0.0,0.0,0.0,0.0,0.0,0.0,0.0,0.0,0.0,0.0,0.0,0.0,0.0,0.0,0.0,0.0,0.0,0.0,0.0,0.0,0.0,0.0,0.0,0.0,0.0,0.0,0.0,0.0,0.0,0.0,0.0,0.0,0.0,0.0,0.0,0.0,0.0,0.0,0.0,0.0,0.0,0.0,0.0,0.0,0.0,0.0,0.0,0.0,0.0,0.0,0.0,0.0,0.0,0.0,0.0,0.0,0.0,0.0,0.0,0.0,0.0,0.0,0.0,0.0,0.0,0.0,0.0,0.0,0.0,0.0,0.0,0.0,0.0,0.0,0.0,0.0,0.0,0.0,0.0,0.0,0.0,0.0,0.0,0.0,0.0,0.0,0.0,0.0,0.0,0.0,0.0,0.0,0.0,0.0,0.0,0.0,0.0,0.0,0.0,0.0,4.5019,4.4941,4.4166,4.2726,4.0582,0.0,0.0,0.0,0.0,0.0,0.0,0.0,0.0,0.0,0.0,0.0,0.0,0.0,0.0,0.0,0.0,0.0,0.0,0.0,0.0,0.0,0.0,0.0,0.0,0.0,0.0,0.0,0.0,0.0,0.0,0.0,0.0,0.0,0.0,0.0,0.0,0.0,0.0,0.0,0.0,0.0,0.0,0.0,0.0,0.0,0.0,0.0,0.0,0.0,0.0,0.0,0.0,0.0,0.0,0.0,0.0,0.0,0.0,0.0,0.0,0.0,0.0,0.0,0.0,0.0,0.0,0.0,0.0,0.0,0.0,0.0,0.0,0.0,0.0,0.0,0.0,0.0,0.0,0.0,0.0,0.0,0.0,0.0,0.0,0.0,0.0,0.0,0.0,0.0,0.0,0.0,0.0,0.0,0.0,0.0,0.0,0.0,0.0,0.0,0.0,0.0,0.0,0.0,0.0,0.0,0.0,0.0,0.0,0.0,0.0,0.0,0.0,4.4379,4.3105,4.0586,0.0,0.0,0.0,0.0,0.0,0.0,0.0,0.0,0.0,0.0,0.0,0.0,0.0,0.0,0.0,0.0,0.0,0.0,0.0,0.0,0.0,0.0,0.0,0.0,0.0,0.0,0.0,0.0,0.0,0.0,0.0,0.0,0.0,0.0,0.0,0.0,0.0,0.0,0.0,0.0,0.0,0.0,0.0,0.0,0.0,0.0,0.0,0.0,0.0,0.0,0.0,0.0,0.0,0.0,0.0,0.0,0.0,0.0,0.0,0.0,0.0,0.0,0.0,0.0,0.0,0.0,0.0,0.0,0.0,0.0,0.0,0.0,0.0,0.0,0.0,0.0,0.0,0.0,0.0,0.0,0.0,0.0,0.0,0.0,0.0,0.0,0.0,0.0,0.0,0.0,0.0,0.0,0.0,0.0,0.0,0.0,0.0,0.0,0.0,0.0,0.0,0.0,0.0,0.0,0.0,0.0,0.0,0.0,0.0,0.0,4.4431,4.3657,4.2875,0.0,3.8873,0.0,0.0,0.0,0.0,0.0,0.0,0.0,0.0,0.0,0.0,0.0,0.0,0.0,0.0,0.0,0.0,0.0,0.0,0.0,0.0,0.0,0.0,0.0,0.0,0.0,0.0,0.0,0.0,0.0,0.0,0.0,0.0,0.0,0.0,0.0,0.0,0.0,0.0,0.0,0.0,0.0,0.0,0.0,0.0,0.0,0.0,0.0,0.0,0.0,0.0,0.0,0.0,0.0,0.0,0.0,0.0,0.0,0.0,0.0,0.0,0.0,0.0,0.0,0.0,0.0,0.0,0.0,0.0,0.0,0.0,0.0,0.0,0.0,0.0,0.0,0.0,0.0,0.0,0.0,0.0,0.0,0.0,0.0,0.0,0.0,0.0,0.0,0.0,0.0,0.0,0.0,0.0,0.0,0.0,0.0,0.0,0.0,0.0,0.0,0.0,0.0,0.0,0.0,0.0,0.0,0.0,0.0,0.0,0.0,0.0,4.425,4.3402,4.2521,4.1165,0.0,0.0,0.0,0.0,0.0,0.0,0.0,0.0,0.0,0.0,0.0,0.0,0.0,0.0,0.0,0.0,0.0,0.0,0.0,0.0,0.0,0.0,0.0,0.0,0.0,0.0,0.0,0.0,0.0,0.0,0.0,0.0,0.0,0.0,0.0,0.0,0.0,0.0,0.0,0.0,0.0,0.0,0.0,0.0,0.0,0.0,0.0,0.0,0.0,0.0,0.0,0.0,0.0,0.0,0.0,0.0,0.0,0.0,0.0,0.0,0.0,0.0,0.0,0.0,0.0,0.0,0.0,0.0,0.0,0.0,0.0,0.0,0.0,0.0,0.0,0.0,0.0,0.0,0.0,0.0,0.0,0.0,0.0,0.0,0.0,0.0,0.0,0.0,0.0,0.0,0.0,0.0,0.0,0.0,0.0,0.0,0.0,0.0,0.0,0.0,0.0,0.0,0.0,0.0,0.0,0.0,0.0,0.0,0.0,0.0,4.3072,4.3385,4.2528,4.1712,4.0614,3.9257,0.0,0.0,0.0,0.0,0.0,0.0,0.0,0.0,0.0,0.0,0.0,0.0,0.0,0.0,0.0,0.0,0.0,0.0,0.0,0.0,0.0,0.0,0.0,0.0,0.0,0.0,0.0,0.0,0.0,0.0,0.0,0.0,0.0,0.0,0.0,0.0,0.0,0.0,0.0,0.0,0.0,0.0,0.0,0.0,0.0,0.0,0.0,0.0,0.0,0.0,0.0,0.0,0.0,0.0,0.0,0.0,0.0,0.0,0.0,0.0,0.0,0.0,0.0,0.0,0.0,0.0,0.0,0.0,0.0,0.0,0.0,0.0,0.0,0.0,0.0,0.0,0.0,0.0,0.0,0.0,0.0,0.0,0.0,0.0,0.0,0.0,0.0,0.0,0.0,0.0,0.0,0.0,0.0,0.0,0.0,0.0,0.0,0.0,0.0,0.0,0.0,0.0,0.0,0.0,0.0,0.0,0.0,0.0,4.0737,4.1509,4.147,4.0614,3.9807,3.9031,0.0,0.0,0.0,0.0,0.0,0.0,0.0,0.0,0.0,0.0,0.0,0.0,0.0,0.0,0.0,0.0,0.0,0.0,0.0,0.0,0.0,0.0,0.0,0.0,0.0,0.0,0.0,0.0,0.0,0.0,0.0,0.0,0.0,0.0,0.0,0.0,0.0,0.0,0.0,0.0,0.0,0.0,0.0,0.0,0.0,0.0,0.0,0.0,0.0,0.0,0.0,0.0,0.0,0.0,0.0,0.0,0.0,0.0,0.0,0.0,0.0,0.0,0.0,0.0,0.0,0.0,0.0,0.0,0.0,0.0,0.0,0.0,0.0,0.0,0.0,0.0,0.0,0.0,0.0,0.0,0.0,0.0,0.0,0.0,0.0,0.0,0.0,0.0,0.0,0.0,0.0,0.0,0.0,0.0,0.0,0.0,0.0,0.0,0.0,0.0,0.0,0.0,0.0,0.0,0.0,0.0,0.0,0.0,0.0,4.0529,4.0684,4.0593,4.0269,3.9572,3.8785,0.0,0.0,0.0,0.0,0.0,0.0,0.0,0.0,0.0,0.0,0.0,0.0,0.0,0.0,0.0,0.0,0.0,0.0,0.0,0.0,0.0,0.0,0.0,0.0,0.0,0.0,0.0,0.0,0.0,0.0,0.0,0.0,0.0,0.0,0.0,0.0,0.0,0.0,0.0,0.0,0.0,0.0,0.0,0.0,0.0,0.0,0.0,0.0,0.0,0.0,0.0,0.0,0.0,0.0,0.0,0.0,0.0,0.0,0.0,0.0,0.0,0.0,0.0,0.0,0.0,0.0,0.0,0.0,0.0,0.0,0.0,0.0,0.0,0.0,0.0,0.0,0.0,0.0,0.0,0.0,0.0,0.0,0.0,0.0,0.0,0.0,0.0,0.0,0.0,0.0,0.0,0.0,0.0,0.0,0.0,0.0,0.0,0.0,0.0,0.0,0.0,0.0,0.0,0.0,0.0,0.0,0.0,0.0,0.0,4.0664,0.0,4.0677,4.0431,3.9481,3.8553,0.0,0.0,0.0,0.0,0.0,0.0,0.0,0.0,0.0,0.0,0.0,0.0,0.0,0.0,0.0,0.0,0.0,0.0,0.0,0.0,0.0,0.0,0.0,0.0,0.0,0.0,0.0,0.0,0.0,0.0,0.0,0.0,0.0,0.0,0.0,0.0,0.0,0.0,0.0,0.0,0.0,0.0,0.0,0.0,0.0,0.0,0.0,0.0,0.0,0.0,0.0,0.0,0.0,0.0,0.0,0.0,0.0,0.0,0.0,0.0,0.0,0.0,0.0,0.0,0.0,0.0,0.0,0.0,0.0,0.0,0.0,0.0,0.0,0.0,0.0,0.0,0.0,0.0,0.0,0.0,0.0,0.0,0.0,0.0,0.0,0.0,0.0,0.0,0.0,0.0,0.0,0.0,0.0,0.0,0.0,0.0,0.0,0.0,0.0,0.0,0.0,0.0,0.0,0.0,0.0,0.0,0.0,0.0,4.0576,4.1075,4.1692,4.1655,4.1009,3.9548,3.8411,0.0,0.0,0.0,0.0,0.0,0.0,0.0,0.0,0.0,0.0,0.0,0.0,0.0,0.0,0.0,0.0,0.0,0.0,0.0,0.0,0.0,0.0,0.0,0.0,0.0,0.0,0.0,0.0,0.0,0.0,0.0,0.0,0.0,0.0,0.0,0.0,0.0,0.0,0.0,0.0,0.0,0.0,0.0,0.0,0.0,0.0,0.0,0.0,0.0,0.0,0.0,0.0,0.0,0.0,0.0,0.0,0.0,0.0,0.0,0.0,0.0,0.0,0.0,0.0,0.0,0.0,0.0,0.0,0.0,0.0,0.0,0.0,0.0,0.0,0.0,0.0,0.0,0.0,0.0,0.0,0.0,0.0,0.0,0.0,0.0,0.0,0.0,0.0,0.0,0.0,0.0,0.0,0.0,0.0,0.0,0.0,0.0,0.0,0.0,0.0,0.0,0.0,0.0,0.0,0.0,0.0,0.0,0.0,0.0,4.0816,4.1464,4.1488,4.0741,4.0364,3.9275,0.0,0.0,0.0,0.0,0.0,0.0,0.0,0.0,0.0,0.0,0.0,0.0,0.0,0.0,0.0,0.0,0.0,0.0,0.0,0.0,0.0,0.0,0.0,0.0,0.0,0.0,0.0,0.0,0.0,0.0,0.0,0.0,0.0,0.0,0.0,0.0,0.0,0.0,0.0,0.0,0.0,0.0,0.0,0.0,0.0,0.0,0.0,0.0,0.0,0.0,0.0,0.0,0.0,0.0,0.0,0.0,0.0,0.0,0.0,0.0,0.0,0.0,0.0,0.0,0.0,0.0,0.0,0.0,0.0,0.0,0.0,0.0,0.0,0.0,0.0,0.0,0.0,0.0,0.0,0.0,0.0,0.0,0.0,0.0,0.0,0.0,0.0,0.0,0.0,0.0,0.0,0.0,0.0,0.0,0.0,0.0,0.0,0.0,0.0,0.0,0.0,0.0,0.0,0.0,0.0,0.0,0.0,0.0,0.0,4.1267,4.1972,4.204,4.1338,4.0802,3.9601,3.7664,0.0,0.0,0.0,0.0,0.0,0.0,0.0,0.0,0.0,0.0,0.0,0.0,0.0,0.0,0.0,0.0,0.0,0.0,0.0,0.0,0.0,0.0,0.0,0.0,0.0,0.0,0.0,0.0,0.0,0.0,0.0,0.0,0.0,0.0,0.0,0.0,0.0,0.0,0.0,0.0,0.0,0.0,0.0,0.0,0.0,0.0,0.0,0.0,0.0,0.0,0.0,0.0,0.0,0.0,0.0,0.0,0.0,0.0,0.0,0.0,0.0,0.0,0.0,0.0,0.0,0.0,0.0,0.0,0.0,0.0,0.0,0.0,0.0,0.0,0.0,0.0,0.0,0.0,0.0,0.0,0.0,0.0,0.0,0.0,0.0,0.0,0.0,0.0,0.0,0.0,0.0,0.0,0.0,0.0,0.0,0.0,0.0,0.0,0.0,0.0,0.0,0.0,0.0,0.0,0.0,0.0,0.0,0.0,4.2062,4.2953,4.3108,4.2479,4.1012,3.956,0.0,0.0,0.0,0.0,0.0,0.0,0.0,0.0,0.0,0.0,0.0,0.0,0.0,0.0,0.0,0.0,0.0,0.0,0.0,0.0,0.0,0.0,0.0,0.0,0.0,0.0,0.0,0.0,0.0,0.0,0.0,0.0,0.0,0.0,0.0,0.0,0.0,0.0,0.0,0.0,0.0,0.0,0.0,0.0,0.0,0.0,0.0,0.0,0.0,0.0,0.0,0.0,0.0,0.0,0.0,0.0,0.0,0.0,0.0,0.0,0.0,0.0,0.0,0.0,0.0,0.0,0.0,0.0,0.0,0.0,0.0,0.0,0.0,0.0,0.0,0.0,0.0,0.0,0.0,0.0,0.0,0.0,0.0,0.0,0.0,0.0,0.0,0.0,0.0,0.0,0.0,0.0,0.0,0.0,0.0,0.0,0.0,0.0,0.0,0.0,0.0,0.0,0.0,0.0,0.0,0.0,0.0,0.0,0.0,4.1705,4.2351,4.2521,4.2219,4.1895,4.0766,0.0,0.0,0.0,0.0,0.0,0.0,0.0,0.0,0.0,0.0,0.0,0.0,0.0,0.0,0.0,0.0,0.0,0.0,0.0,0.0,0.0,0.0,0.0,0.0,0.0,0.0,0.0,0.0,0.0,0.0,0.0,0.0,0.0,0.0,0.0,0.0,0.0,0.0,0.0,0.0,0.0,0.0,0.0,0.0,0.0,0.0,0.0,0.0,0.0,0.0,0.0,0.0,0.0,0.0,0.0,0.0,0.0,0.0,0.0,0.0,0.0,0.0,0.0,0.0,0.0,0.0,0.0,0.0,0.0,0.0,0.0,0.0,0.0,0.0,0.0,0.0,0.0,0.0,0.0,0.0,0.0,0.0,0.0,0.0,0.0,0.0,0.0,0.0,0.0,0.0,0.0,0.0,0.0,0.0,0.0,0.0,0.0,0.0,0.0,0.0,0.0,0.0,0.0,0.0,0.0,0.0,0.0,0.0,4.2073,4.1753,4.2098,4.2239,4.2175,4.2086,4.1179,0.0,0.0,0.0,0.0,0.0,0.0,0.0,0.0,0.0,0.0,0.0,0.0,0.0,0.0,0.0,0.0,0.0,0.0,0.0,0.0,0.0,0.0,0.0,0.0,0.0,0.0,0.0,0.0,0.0,0.0,0.0,0.0,0.0,0.0,0.0,0.0,0.0,0.0,0.0,0.0,0.0,0.0,0.0,0.0,0.0,0.0,0.0,0.0,0.0,0.0,0.0,0.0,0.0,0.0,0.0,0.0,0.0,0.0,0.0,0.0,0.0,0.0,0.0,0.0,0.0,0.0,0.0,0.0,0.0,0.0,0.0,0.0,0.0,0.0,0.0,0.0,0.0,0.0,0.0,0.0,0.0,0.0,0.0,0.0,0.0,0.0,0.0,0.0,0.0,0.0,0.0,0.0,0.0,0.0,0.0,0.0,0.0,0.0,0.0,0.0,0.0,0.0,0.0,0.0,0.0,0.0,0.0,0.0,4.1584,4.2044,4.2037,4.21,4.2251,4.1876,4.1071,0.0,0.0,0.0,0.0,0.0,0.0,0.0,0.0,0.0,0.0,0.0,0.0,0.0,0.0,0.0,0.0,0.0,0.0,0.0,0.0,0.0,0.0,0.0,0.0,0.0,0.0,0.0,0.0,0.0,0.0,0.0,0.0,0.0,0.0,0.0,0.0,0.0,0.0,0.0,0.0,0.0,0.0,0.0,0.0,0.0,0.0,0.0,0.0,0.0,0.0,0.0,0.0,0.0,0.0,0.0,0.0,0.0,0.0,0.0,0.0,0.0,0.0,0.0,0.0,0.0,0.0,0.0,0.0,0.0,0.0,0.0,0.0,0.0,0.0,0.0,0.0,0.0,0.0,0.0,0.0,0.0,0.0,0.0,0.0,0.0,0.0,0.0,0.0,0.0,0.0,0.0,0.0,0.0,0.0,0.0,0.0,0.0,0.0,0.0,0.0,0.0,0.0,0.0,0.0,0.0,0.0,0.0,0.0,4.2035,4.1714,4.1503,4.1635,4.2142,4.1701,4.1105,0.0,0.0,0.0,0.0,0.0,0.0,0.0,0.0,0.0,0.0,0.0,0.0,0.0,0.0,0.0,0.0,0.0,0.0,0.0,0.0,0.0,0.0,0.0,0.0,0.0,0.0,0.0,0.0,0.0,0.0,0.0,0.0,0.0,0.0,0.0,0.0,0.0,0.0,0.0,0.0,0.0,0.0,0.0,0.0,0.0,0.0,0.0,0.0,4.4145,0.0,0.0,0.0,0.0,0.0,0.0,0.0,0.0,0.0,0.0,0.0,0.0,0.0,0.0,0.0,0.0,0.0,0.0,0.0,0.0,0.0,0.0,0.0,0.0,0.0,0.0,0.0,0.0,0.0,0.0,0.0,0.0,0.0,0.0,0.0,0.0,0.0,0.0,0.0,0.0,0.0,0.0,0.0,0.0,0.0,0.0,0.0,0.0,0.0,0.0,0.0,0.0,0.0,0.0,0.0,0.0,0.0,0.0,0.0,4.1522,4.1175,4.1071,4.1255,4.1622,4.1674,4.1268,0.0,0.0,0.0,0.0,0.0,0.0,0.0,0.0,0.0,0.0,0.0,0.0,0.0,0.0,0.0,0.0,0.0,0.0,0.0,0.0,0.0,0.0,0.0,0.0,0.0,0.0,0.0,0.0,0.0,0.0,0.0,0.0,0.0,0.0,0.0,0.0,0.0,0.0,0.0,0.0,0.0,0.0,0.0,0.0,0.0,0.0,0.0,0.0,0.0,0.0,0.0,0.0,0.0,0.0,0.0,0.0,0.0,0.0,0.0,0.0,0.0,0.0,0.0,0.0,0.0,0.0,0.0,0.0,0.0,0.0,0.0,0.0,0.0,0.0,0.0,0.0,0.0,0.0,0.0,0.0,0.0,0.0,0.0,0.0,0.0,0.0,0.0,0.0,0.0,0.0,0.0,0.0,0.0,0.0,0.0,0.0,0.0,0.0,0.0,0.0,0.0,0.0,0.0,0.0,0.0,0.0,0.0,4.0308,4.082,4.0655,4.0776,4.0942,4.1163,4.1508,4.1233,4.0363,0.0,0.0,0.0,0.0,0.0,0.0,0.0,0.0,0.0,0.0,0.0,0.0,0.0,0.0,0.0,0.0,0.0,0.0,0.0,0.0,0.0,0.0,0.0,0.0,0.0,0.0,0.0,0.0,0.0,0.0,0.0,0.0,0.0,0.0,0.0,0.0,0.0,0.0,4.28,4.4436,0.0,0.0,0.0,0.0,0.0,0.0,0.0,0.0,4.3635,0.0,0.0,0.0,0.0,0.0,0.0,0.0,0.0,0.0,0.0,0.0,0.0,0.0,0.0,0.0,0.0,0.0,0.0,0.0,0.0,0.0,0.0,0.0,0.0,0.0,0.0,0.0,0.0,0.0,0.0,0.0,0.0,0.0,0.0,0.0,0.0,0.0,0.0,0.0,0.0,0.0,0.0,0.0,0.0,0.0,0.0,0.0,0.0,0.0,0.0,0.0,0.0,0.0,0.0,0.0,0.0,3.9537,4.0671,4.105,4.0568,4.0558,4.0693,4.1024,4.0784,4.0376,3.9834,0.0,0.0,0.0,0.0,0.0,0.0,0.0,0.0,0.0,0.0,0.0,0.0,0.0,0.0,0.0,0.0,0.0,0.0,0.0,0.0,0.0,0.0,0.0,0.0,0.0,0.0,0.0,0.0,0.0,0.0,0.0,0.0,0.0,0.0,0.0,0.0,0.0,0.0,0.0,4.527,4.6002,0.0,0.0,0.0,0.0,0.0,0.0,0.0,0.0,4.4237,0.0,0.0,0.0,0.0,0.0,0.0,0.0,0.0,0.0,0.0,0.0,0.0,0.0,0.0,0.0,0.0,0.0,0.0,0.0,0.0,0.0,0.0,0.0,0.0,0.0,0.0,0.0,0.0,0.0,0.0,0.0,0.0,0.0,0.0,0.0,0.0,0.0,0.0,0.0,0.0,0.0,0.0,0.0,0.0,0.0,0.0,0.0,0.0,0.0,0.0,0.0,0.0,0.0,0.0,0.0,3.8835,4.005,4.0578,4.0313,4.0362,4.051,4.0717,4.0365,3.9909,0.0,0.0,0.0,0.0,0.0,0.0,0.0,0.0,0.0,0.0,0.0,0.0,0.0,0.0,0.0,0.0,0.0,0.0,0.0,0.0,0.0,0.0,0.0,0.0,0.0,0.0,0.0,0.0,0.0,0.0,0.0,0.0,0.0,0.0,0.0,0.0,0.0,0.0,0.0,0.0,4.5039,4.5576,4.6222,0.0,0.0,0.0,0.0,0.0,0.0,4.4218,4.4079,0.0,0.0,0.0,0.0,0.0,0.0,0.0,0.0,0.0,0.0,0.0,0.0,0.0,0.0,0.0,0.0,0.0,0.0,0.0,0.0,0.0,0.0,0.0,0.0,0.0,0.0,0.0,0.0,0.0,0.0,0.0,0.0,0.0,0.0,0.0,0.0,0.0,0.0,0.0,0.0,0.0,0.0,0.0,0.0,0.0,0.0,0.0,0.0,0.0,0.0,0.0,0.0,0.0,0.0,0.0,3.8054,3.9383,4.0113,4.0113,4.0238,4.0337,4.0427,3.9928,3.944,0.0,0.0,0.0,0.0,0.0,0.0,0.0,0.0,0.0,0.0,0.0,0.0,0.0,0.0,0.0,0.0,0.0,0.0,0.0,0.0,0.0,0.0,0.0,0.0,0.0,0.0,0.0,0.0,0.0,0.0,0.0,0.0,0.0,0.0,0.0,0.0,0.0,0.0,0.0,0.0,0.0,4.5147,4.5571,4.5356,0.0,0.0,0.0,0.0,4.478,4.3991,0.0,0.0,0.0,0.0,0.0,0.0,0.0,0.0,0.0,0.0,0.0,0.0,0.0,0.0,0.0,0.0,0.0,0.0,0.0,0.0,0.0,0.0,0.0,0.0,0.0,0.0,0.0,0.0,0.0,0.0,0.0,0.0,0.0,0.0,0.0,0.0,0.0,0.0,0.0,0.0,0.0,0.0,0.0,0.0,0.0,0.0,0.0,0.0,0.0,0.0,0.0,0.0,0.0,0.0,0.0,0.0,3.798,3.9368,4.0113,4.0113,4.0213,4.0322,4.0313,3.9283,3.8765,0.0,0.0,0.0,0.0,0.0,0.0,0.0,0.0,0.0,0.0,0.0,0.0,0.0,0.0,0.0,0.0,0.0,0.0,0.0,0.0,0.0,0.0,0.0,0.0,0.0,0.0,0.0,0.0,0.0,0.0,0.0,0.0,0.0,0.0,0.0,0.0,0.0,0.0,0.0,0.0,0.0,4.502,4.5096,4.4102,4.3394,0.0,0.0,4.2931,4.3144,4.3636,0.0,0.0,0.0,0.0,0.0,0.0,0.0,0.0,0.0,0.0,0.0,0.0,0.0,0.0,0.0,0.0,0.0,0.0,0.0,0.0,0.0,0.0,0.0,0.0,0.0,0.0,0.0,0.0,0.0,0.0,0.0,0.0,0.0,0.0,0.0,0.0,0.0,0.0,0.0,0.0,0.0,0.0,0.0,0.0,0.0,0.0,0.0,0.0,0.0,0.0,0.0,0.0,0.0,0.0,0.0,3.8091,3.7956,3.9368,4.0113,4.0113,4.0163,4.0188,4.0188,3.8945,3.8288,0.0,0.0,0.0,0.0,0.0,0.0,0.0,0.0,0.0,0.0,0.0,0.0,0.0,0.0,0.0,0.0,0.0,0.0,0.0,0.0,0.0,0.0,0.0,0.0,0.0,0.0,0.0,0.0,0.0,0.0,0.0,0.0,0.0,0.0,0.0,0.0,0.0,0.0,0.0,0.0,0.0,0.0,4.4491,4.3848,0.0,0.0,0.0,4.3248,4.3273,0.0,0.0,0.0,0.0,0.0,0.0,0.0,0.0,0.0,0.0,0.0,0.0,0.0,0.0,0.0,0.0,0.0,0.0,0.0,0.0,0.0,0.0,0.0,0.0,0.0,0.0,0.0,0.0,0.0,0.0,0.0,0.0,0.0,0.0,0.0,0.0,0.0,0.0,0.0,0.0,0.0,0.0,0.0,0.0,0.0,0.0,0.0,0.0,0.0,0.0,0.0,0.0,0.0,0.0,0.0,0.0,0.0,3.7922,3.9343,4.0113,4.0113,4.0113,4.0113,4.0079,3.8924,0.0,0.0,0.0,0.0,0.0,0.0,0.0,0.0,0.0,0.0,0.0,0.0,0.0,0.0,0.0,0.0,0.0,0.0,0.0,0.0,0.0,0.0,0.0,0.0,0.0,0.0,0.0,3.6006,0.0,0.0,0.0,0.0,0.0,0.0,0.0,0.0,0.0,0.0,0.0,0.0,0.0,0.0,4.4093,4.3952,4.3565,4.3262,0.0,0.0,4.3111,4.3202,4.3232,4.3229,0.0,0.0,0.0,0.0,0.0,0.0,0.0,0.0,0.0,0.0,0.0,0.0,0.0,0.0,0.0,0.0,0.0,0.0,0.0,0.0,0.0,0.0,0.0,0.0,0.0,0.0,0.0,0.0,3.979,0.0,0.0,0.0,0.0,0.0,0.0,0.0,0.0,0.0,0.0,0.0,0.0,0.0,0.0,0.0,0.0,0.0,0.0,0.0,0.0,0.0,0.0,0.0,0.0,0.0,3.8091,3.7956,3.9368,4.0113,4.0113,4.0113,4.0113,4.0079,3.9433,3.8758,0.0,0.0,0.0,0.0,0.0,0.0,0.0,0.0,0.0,0.0,0.0,0.0,0.0,0.0,0.0,0.0,0.0,0.0,0.0,0.0,0.0,0.0,0.0,0.0,0.0,0.0,0.0,0.0,0.0,0.0,0.0,0.0,0.0,0.0,0.0,0.0,0.0,0.0,0.0,0.0,0.0,4.3743,4.3446,4.2898,4.2429,0.0,4.1948,4.1851,4.2174,4.2206,4.2171,4.2108,0.0,0.0,0.0,0.0,0.0,0.0,0.0,0.0,0.0,0.0,0.0,0.0,0.0,0.0,0.0,0.0,0.0,0.0,0.0,0.0,0.0,0.0,0.0,0.0,0.0,4.116,4.104,0.0,4.0746,0.0,0.0,0.0,0.0,0.0,0.0,0.0,0.0,0.0,0.0,0.0,0.0,0.0,0.0,0.0,0.0,0.0,0.0,0.0,0.0,0.0,0.0,0.0,0.0,3.8685,3.9365,4.0383,4.0866,4.079,4.0798,4.0527,4.0113,3.9427,3.8754,0.0,0.0,0.0,0.0,0.0,0.0,0.0,0.0,0.0,0.0,0.0,0.0,0.0,0.0,0.0,0.0,0.0,0.0,0.0,0.0,0.0,0.0,0.0,0.0,0.0,0.0,0.0,0.0,3.8779,3.9098,3.9957,0.0,0.0,0.0,0.0,0.0,0.0,0.0,0.0,0.0,0.0,4.3505,4.299,4.2523,0.0,0.0,4.1687,4.1654,4.1753,4.1785,4.1788,4.1789,4.1561,0.0,0.0,0.0,0.0,0.0,0.0,0.0,0.0,0.0,0.0,0.0,0.0,0.0,0.0,0.0,0.0,0.0,0.0,0.0,0.0,0.0,0.0,0.0,0.0,0.0,0.0,0.0,0.0,0.0,0.0,0.0,0.0,0.0,0.0,0.0,0.0,0.0,0.0,0.0,0.0,0.0,0.0,0.0,0.0,0.0,0.0,0.0,0.0,0.0,0.0,0.0,0.0,3.9497,4.0362,4.1316,4.1776,4.1672,4.1435,4.1061,4.0544,3.9831,3.9108,0.0,0.0,0.0,0.0,0.0,0.0,0.0,0.0,0.0,0.0,0.0,0.0,0.0,0.0,0.0,0.0,0.0,0.0,0.0,0.0,0.0,0.0,0.0,0.0,0.0,0.0,0.0,0.0,3.9913,4.0268,4.0756,0.0,0.0,0.0,0.0,0.0,0.0,0.0,0.0,0.0,0.0,4.3323,4.2648,4.2142,4.1753,4.1423,4.1323,4.129,4.1357,4.1357,4.139,4.1489,0.0,0.0,0.0,0.0,0.0,0.0,0.0,0.0,0.0,0.0,0.0,0.0,0.0,0.0,0.0,0.0,0.0,0.0,0.0,0.0,0.0,0.0,0.0,0.0,0.0,0.0,0.0,4.2564,0.0,0.0,4.1493,0.0,0.0,0.0,0.0,0.0,0.0,0.0,0.0,0.0,0.0,0.0,0.0,0.0,0.0,0.0,0.0,0.0,0.0,0.0,0.0,0.0,0.0,4.0597,4.0544,4.2048,4.2774,4.274,4.1988,4.1613,4.1569,4.0827,4.0109,3.9358,0.0,0.0,0.0,0.0,0.0,0.0,0.0,0.0,0.0,0.0,0.0,0.0,0.0,0.0,0.0,0.0,0.0,0.0,0.0,0.0,0.0,0.0,0.0,0.0,0.0,0.0,3.9287,3.9933,4.0661,0.0,0.0,0.0,0.0,0.0,0.0,0.0,0.0,0.0,4.3277,4.3423,4.3325,4.2524,4.1785,4.1254,4.0913,4.0708,4.0608,4.0845,4.0848,4.0919,0.0,0.0,0.0,0.0,0.0,0.0,0.0,0.0,0.0,0.0,0.0,0.0,0.0,0.0,0.0,0.0,0.0,0.0,0.0,0.0,0.0,0.0,0.0,0.0,0.0,0.0,0.0,4.5584,4.5131,0.0,0.0,0.0,0.0,0.0,0.0,0.0,0.0,0.0,0.0,0.0,4.4912,4.4819,0.0,0.0,0.0,0.0,0.0,0.0,0.0,0.0,0.0,0.0,0.0,0.0,4.1267,4.2106,4.3134,4.3597,4.3518,4.3279,4.2903,4.239,4.1638,4.0646,3.945,0.0,0.0,0.0,0.0,0.0,0.0,0.0,0.0,0.0,0.0,0.0,0.0,0.0,0.0,0.0,0.0,0.0,0.0,0.0,0.0,0.0,0.0,0.0,0.0,0.0,4.0533,0.0,0.0,0.0,0.0,0.0,0.0,0.0,0.0,0.0,0.0,4.4175,4.4347,4.3979,4.3635,4.3274,4.2912,4.2351,4.1966,0.0,0.0,0.0,0.0,0.0,0.0,0.0,0.0,0.0,0.0,0.0,0.0,0.0,0.0,4.2007,4.1271,4.1185,4.1181,4.1181,0.0,0.0,0.0,0.0,0.0,0.0,0.0,0.0,0.0,0.0,0.0,0.0,0.0,0.0,4.6685,4.6438,4.5853,0.0,0.0,0.0,0.0,0.0,0.0,0.0,0.0,4.6764,4.6764,4.6634,4.6283,4.5964,0.0,4.5215,4.3662,0.0,0.0,0.0,0.0,0.0,0.0,0.0,0.0,4.2502,4.3365,4.4156,4.4516,4.4437,4.4163,4.382,4.3306,4.2577,4.1445,3.9945,3.8494,3.7487,0.0,0.0,0.0,0.0,0.0,0.0,0.0,0.0,0.0,0.0,0.0,0.0,0.0,0.0,0.0,0.0,0.0,0.0,0.0,0.0,0.0,0.0,0.0,4.1892,0.0,0.0,0.0,0.0,0.0,0.0,0.0,0.0,0.0,4.5146,4.5446,4.5586,4.5245,4.4564,4.4028,4.3652,0.0,0.0,0.0,0.0,0.0,0.0,0.0,4.2602,4.2602,4.2643,4.2824,4.2972,4.329,4.3343,4.2868,0.0,0.0,4.1302,4.1164,4.1164,4.1134,4.1134,4.1103,4.0979,4.0979,4.095,0.0,0.0,0.0,0.0,0.0,0.0,0.0,0.0,4.7816,4.7441,0.0,4.6661,0.0,0.0,0.0,0.0,4.6416,4.7107,0.0,0.0,4.8145,4.8438,4.8233,4.7423,4.6864,4.6529,4.58,4.5117,4.4533,4.3469,0.0,0.0,0.0,0.0,0.0,0.0,4.4311,4.4311,4.501,4.5397,4.5363,4.4699,4.4311,4.4276,4.3586,4.2516,4.1067,4.0929,4.0204,3.8732,3.8594,0.0,0.0,0.0,0.0,0.0,0.0,0.0,0.0,0.0,0.0,0.0,0.0,0.0,0.0,0.0,0.0,0.0,0.0,0.0,0.0,4.2723,0.0,0.0,0.0,0.0,0.0,0.0,0.0,0.0,0.0,4.7431,4.6741,4.7114,4.7341,4.6811,0.0,0.0,0.0,0.0,4.3318,4.3024,4.2808,4.2694,4.2694,4.2694,4.2694,4.2694,0.0,0.0,4.285,4.3172,4.338,4.3145,4.2751,4.2268,4.168,4.1558,4.1558,4.1558,4.1526,4.1557,4.1588,4.1463,4.1526,5.313,0.0,0.0,0.0,0.0,5.0435,5.0434,5.0303,5.0321,5.019,4.993,4.8742,0.0,0.0,0.0,0.0,0.0,0.0,4.8381,4.8418,4.8513,4.855,4.8495,4.8199,4.7957,4.7765,4.7388,4.7016,4.6615,4.6137,4.4868,4.2869,0.0,0.0,0.0,0.0,4.4311,4.4345,4.5044,4.5397,4.5397,4.519,4.4837,4.4311,4.4104,4.3517,4.2585,4.1999,4.124,4.0273,3.9687,0.0,0.0,0.0,0.0,0.0,0.0,0.0,0.0,0.0,0.0,0.0,0.0,0.0,0.0,0.0,0.0,0.0,0.0,0.0,4.2792,4.3069,4.3207,0.0,0.0,0.0,0.0,0.0,0.0,0.0,0.0,0.0,4.8189,4.7683,4.7158,0.0,0.0,4.547,4.5235,4.4579,4.4163,4.4297,4.4167,0.0,4.4018,4.4018,4.4018,4.4018,4.4018,4.4055,4.4093,4.4174,4.4056,4.3555,4.3345,4.2922,4.1841,4.1429,4.1252,4.1221,4.1221,4.1221,4.1254,4.1221,4.1252,5.5694,5.4088,5.2981,5.2171,5.1656,5.1751,5.1621,5.1379,5.1379,5.1379,5.1342,5.0339,4.9893,4.9856,4.8853,0.0,0.0,0.0,4.9822,4.9804,4.9676,4.964,4.9621,4.9565,4.9471,4.9319,4.9162,4.894,4.8647,4.8365,4.7436,4.5858,0.0,4.4396,4.418,4.4569,4.4785,4.4734,4.5156,4.5397,4.5397,4.5397,4.5156,4.4768,4.4734,4.4389,4.3655,4.3172,4.2585,4.1861,4.1378,4.0618,0.0,0.0,0.0,0.0,0.0,0.0,0.0,0.0,0.0,0.0,0.0,4.1265,4.2511,0.0,0.0,0.0,4.2758,4.3216,4.3975,4.4354,0.0,0.0,0.0,0.0,0.0,0.0,0.0,4.8603,4.9499,5.0119,5.0119,4.9262,4.845,4.7848,4.7082,4.6486,4.6181,0.0,4.507,4.503,4.4836,4.4685,4.461,4.461,4.461,4.461,4.461,4.461,4.461,4.461,4.4456,4.4086,4.3778,4.3347,4.254,4.1824,4.1159,4.091,4.0879,4.0848,4.0848,4.0848,4.0848,5.7658,5.7452,5.5866,5.4289,5.2826,5.2865,5.2457,5.1676,5.1714,5.1639,5.1565,5.1528,5.1454,5.1379,5.1379,0.0,5.1379,5.1379,5.1379,5.1379,5.1287,5.1213,5.1213,5.1119,5.1061,5.0927,5.0865,5.0705,5.0404,5.0105,4.9816,4.9528,4.7512,4.628,4.5858,4.5736,4.5658,4.5527,4.5432,4.5397,4.5397,4.5397,4.5397,4.5397,4.5397,4.5079,4.4449,4.438,4.4035,4.3345,4.3276,4.262,4.1205,0.0,0.0,0.0,0.0,0.0,0.0,0.0,0.0,0.0,0.0,0.0,0.0,0.0,0.0,4.3404,4.406,0.0,4.55,4.6259,0.0,0.0,0.0,4.7879,4.7948,4.9286,5.0183,5.0183,0.0,0.0,5.2188,5.1511,5.0613,4.9532,4.8738,4.8,4.7203,4.6515,4.5941,4.5352,4.5092,4.4836,4.4685,4.461,4.461,4.461,4.461,4.461,4.461,4.461,4.461,4.4579,4.4086,4.3624,4.3624,4.2515,4.1463,4.0786,4.057,4.0505,4.0539,4.0539,4.0539,5.8937,5.838,5.7951,5.6874,5.5389,5.5429,5.4946,5.4166,5.4166,5.3794,5.32,5.2605,5.1974,5.1379,5.1379,5.1379,5.1379,5.1379,5.1379,5.1379,5.1361,5.1343,5.1343,5.125,5.1157,5.1119,5.108,5.0964,5.0789,5.0591,5.0362,5.0003,4.9352,4.8639,4.7821,4.7065,4.6604,4.6472,4.5787,4.5397,4.5397,4.5397,4.5397,4.5397,4.5397,4.5294,4.5156,4.5121,4.4803,4.4104,4.4035,4.3621,4.2689,4.155,0.0,0.0,0.0,0.0,0.0,0.0,0.0,0.0,0.0,4.339,4.4117,0.0,4.3979,0.0,4.5858,4.6454,4.7079,4.7327,0.0,0.0,4.9079,4.9666,5.0252,5.1119,5.1701,5.1701,5.1981,5.2188,5.2188,5.2019,5.1691,5.1148,4.9664,4.8257,4.7471,4.6963,4.6474,4.5792,4.5358,4.5061,4.4874,4.4685,4.461,4.461,4.461,4.461,4.461,4.461,4.461,4.461,4.4486,4.4178,4.3716,4.291,4.2171,4.1463,4.0909,4.0505,4.0505,4.0505,4.0505,5.9998,5.9255,5.9197,5.8512,5.7323,5.6989,5.6357,5.5614,5.5577,5.5354,5.4871,5.4054,5.3423,5.3014,5.2642,5.2457,5.2457,5.2457,5.2457,5.2457,5.2457,5.2457,5.2457,5.2401,5.2382,5.2345,5.2287,5.2247,5.2132,5.1956,5.1756,5.1569,5.1326,5.0908,5.0269,4.862,4.7683,4.7535,4.6845,4.6331,4.602,4.5967,4.5742,4.5432,4.545,4.5502,4.5502,4.552,4.5373,4.4983,4.4949,4.4662,4.39,4.3034,4.2469,0.0,0.0,0.0,0.0,0.0,0.0,0.0,0.0,0.0,0.0,0.0,4.6107,4.7317,4.7726,4.8313,4.934,4.9359,4.9614,5.0339,5.0764,5.1149,5.1533,5.2252,5.2735,5.2735,5.3046,5.3253,5.3218,5.2912,5.2643,5.233,5.1055,4.9704,4.8498,4.7896,4.7286,4.6365,4.5909,4.5546,4.5247,4.4911,4.4723,4.4723,4.4648,4.461,4.461,4.461,4.461,4.461,4.461,4.4486,4.4117,4.3568,4.2957,4.2248,4.1639,4.1082,4.0601,4.0505,4.0505,6.0896,6.0115,6.0003,5.9557,5.8814,5.8033,5.7232,5.6469,5.6432,5.6395,5.6246,5.5503,5.5149,5.5131,5.4426,5.4054,5.398,5.3943,5.3905,5.3794,5.3794,5.3794,5.3794,5.3794,5.3794,5.3794,5.3735,5.3714,5.3714,5.3461,5.3359,5.3339,5.3045,5.2828,5.2563,5.0366,4.8952,4.8478,4.8154,4.768,4.7029,4.6896,4.647,4.5683,4.5719,4.5771,4.5771,4.59,4.5986,4.6056,4.5986,4.5664,4.5028,4.4784,4.4425,0.0,4.3788,0.0,0.0,0.0,0.0,0.0,0.0,0.0,0.0,4.7945,4.8781,4.9575,4.9714,5.0279,5.1609,5.157,5.1795,5.2557,5.2507,5.2421,5.2559,5.3145,5.356,5.3529,5.4115,5.4494,5.4425,5.3942,5.3466,5.3207,5.2526,5.1427,4.992,4.9061,4.826,4.7097,4.6585,4.6159,4.5656,4.5284,4.5061,4.5024,4.4911,4.4761,4.4799,4.4799,4.4761,4.4761,4.4799,4.4799,4.4761,4.4353,4.3806,4.3189,4.2615,4.18,4.0897,4.0574,4.0539,6.1948,6.1164,6.0492,6.0119,5.9933,5.9094,5.8154,5.7286,5.7286,5.6915,5.6283,5.6134,5.606,5.606,5.5912,5.5466,5.4778,5.476,5.4426,5.3794,5.3794,5.3794,5.3794,5.3794,5.3794,5.3794,5.3756,5.3793,5.3793,5.3717,5.3696,5.3598,5.3477,5.3219,5.2972,0.0,0.0,0.0,4.8649,4.8451,4.8111,4.8085,4.7622,4.676,4.6726,0.0,4.6717,4.6778,4.7082,4.7613,4.7091,0.0,0.0,0.0,0.0,0.0,0.0,0.0,0.0,0.0,0.0,0.0,4.8583,4.8732,4.8146,4.9476,5.0659,5.1284,5.1885,5.2282,5.2445,5.2451,5.2735,5.35,5.3609,5.3792,5.4229,5.4437,5.4479,5.4287,5.4425,5.4494,5.4494,5.4356,5.419,5.3928,5.3347,5.2466,5.1366,5.0214,4.9125,4.7803,4.7101,4.655,4.6017,4.5841,4.5728,4.5656,4.5614,4.5541,4.5541,4.5541,4.5578,4.5578,4.5578,4.5541,4.5541,4.5011,4.4508,4.4354,4.3381,4.2273,4.1208,4.0848,4.0746,6.2832,6.2048,6.1674,6.1304,0.0,6.0073,5.9454,5.8984,5.8455,5.8022,5.7553,5.7083,5.6878,5.6878,5.6469,5.606,5.5652,5.5652,5.5429,5.5057,5.5057,5.5057,5.502,5.5057,5.4797,5.4426,5.4388,5.4203,5.3831,5.3794,5.3756,5.3735,5.3637,5.3538,5.34,5.3072,5.2087,5.041,5.0225,4.9958,4.9478,4.929,4.8835,4.7984,4.8025,0.0,0.0,0.0,0.0,0.0,0.0,0.0,0.0,0.0,0.0,4.7119,4.7108,4.7309,4.7758,4.8491,4.9093,4.9457,5.0581,5.0955,5.0196,5.1302,5.232,5.3,5.3392,5.3713,5.4011,5.3987,5.4067,5.4486,5.4495,5.4578,5.483,5.4904,5.4842,5.4686,5.4655,5.4623,5.4529,5.4494,5.429,5.3886,5.3507,5.2757,5.1542,5.062,4.9607,4.8392,4.7803,4.7339,4.7001,4.662,4.6375,4.6269,4.6159,4.6052,4.6052,4.6084,4.6048,4.6017,4.5981,4.5873,4.5877,4.5659,4.538,4.5066,4.4599,4.3804,4.2647,4.1775,4.1189,6.3609,6.3052,6.2902,6.2513,6.1956,6.1149,6.0755,6.0659,0.0,0.0,0.0,5.8134,5.7816,5.7779,5.7109,5.6754,5.6586,5.6605,5.6491,5.6303,5.6303,5.6303,5.632,5.632,5.5912,5.5243,5.5243,5.4909,5.424,5.4091,5.4017,5.3961,5.3809,5.3714,5.3694,5.3498,5.3008,5.2278,5.1946,5.1513,5.088,5.0599,5.0083,4.9277,4.9339,4.9387,4.9447,4.9579,4.9734,4.9841,4.9734,4.9686,4.9663,4.952,4.9448,4.9448,4.9555,4.9686,4.9663,5.0342,5.0771,5.0771,5.2273,5.2934,5.24,5.3077,5.3852,5.4627,5.4697,5.4979,5.5584,5.5496,5.5408,5.5378,5.5294,5.5204,5.5113,5.5083,5.5057,5.4873,5.4842,5.478,5.4557,5.4526,5.4319,5.3736,5.3529,5.2808,5.1313,5.0496,4.9783,4.8931,4.8513,4.8322,4.8032,4.7572,4.7137,4.7103,4.6896,4.6689,4.6689,4.6689,4.6655,4.6689,4.648,4.6445,4.6375,4.655,4.6389,4.5908,4.5855,4.5667,4.4496,4.3235,4.2299,6.4368,6.435,6.3671,6.3347,6.3303,6.2538,6.1826,6.1099,5.9829,5.9253,5.9234,5.9103,5.9047,5.9065,5.8915,5.8447,5.7697,5.766,5.7191,5.6421,5.6384,5.6362,5.632,5.632,5.6246,5.6134,5.6134,5.606,5.5874,5.5206,5.4834,5.476,5.4146,5.3754,5.3714,5.3674,5.3538,5.3297,5.2872,5.2463,5.2134,5.1993,5.1478,5.0688,5.0652,5.0652,5.0652,5.0676,5.1,5.1587,5.1035,5.0676,5.064,5.0088,4.967,4.967,5.0281,5.0676,5.0736,5.1371,5.1802,5.1874,5.3275,5.4046,5.377,5.4456,5.524,5.596,5.6067,5.613,5.6245,5.6217,5.6162,5.6049,5.6057,5.5886,5.5507,5.5448,5.5359,5.5053,5.4961,5.493,5.4842,5.478,5.4648,5.4316,5.3725,5.2804,5.1434,5.0232,4.9551,4.9233,4.9107,4.8954,4.8671,4.8545,4.8289,4.8192,4.8063,4.7966,4.7966,4.7999,4.7934,4.7934,4.7803,4.777,4.7671,4.7737,4.7605,4.7408,4.7111,4.6648,4.6285,4.5531,4.4426,6.4779,6.483,6.4503,6.4381,6.4405,6.3749,6.2985,6.216,6.1119,6.0259,5.9613,5.9452,5.9399,5.9399,5.9399,5.9192,5.878,5.8726,5.8465,5.8035,5.794,5.7901,5.788,5.7762,5.7441,5.7032,5.6972,5.6729,5.6283,5.5874,5.5503,5.4963,5.4203,5.3775,5.3754,5.3754,5.3698,5.3639,5.3277,5.3023,5.2879,5.2755,5.2484,5.2076,5.2076,5.2076,5.2112,5.2076,5.2257,5.2563,5.2294,5.2076,5.2076,5.1748,5.153,5.1566,5.1857,5.2076,5.2076,5.2403,5.2599,5.2672,5.409,5.4989,5.4894,5.5559,5.6161,5.6492,5.6564,5.6555,5.6528,5.6591,5.6564,5.6483,5.6465,5.6328,5.6134,5.6057,5.5879,5.5642,5.5525,5.5408,5.5324,5.5234,5.4934,5.446,5.3704,5.2855,5.2018,5.1454,5.0754,4.9855,4.953,4.9441,4.9226,4.9043,4.8951,4.8827,4.8765,4.8733,4.8702,4.8702,4.8702,4.8673,4.8545,4.8418,4.8292,4.826,4.8261,4.8098,4.7995,4.7661,4.726,4.6531,4.5419,6.509,6.5139,6.5182,6.5276,6.5306,6.4785,6.4126,6.3347,6.2721,6.1756,6.0609,6.001,5.9739,5.9739,5.9739,5.9706,5.9673,5.9605,5.9575,5.947,5.9382,5.9272,5.9234,5.9081,5.8646,5.8027,5.7911,5.7536,5.6958,5.6695,5.6043,5.5057,5.4388,5.398,5.3794,5.3794,5.3794,5.3775,5.3541,5.34,5.338,5.324,5.3198,5.3198,5.3198,5.3198,5.3198,5.3198,5.3198,5.3198,5.3198,5.3198,5.3198,5.3198,5.3198,5.3198,5.3198,5.3198,5.3198,5.3198,5.3272,5.3492,5.4816,5.5772,5.5985,5.6672,5.704,5.6989,5.7025,5.7025,5.7025,5.6989,5.6964,5.6923,5.6855,5.6812,5.6707,5.66,5.6465,5.6292,5.609,5.5986,5.5872,5.57,5.5373,5.4781,5.3892,5.3235,5.2997,5.2804,5.2056,5.1142,5.0355,4.9939,4.9806,4.956,4.9381,4.9415,4.929,4.926,4.9263,4.9233,4.9202,4.9168,4.9046,4.8889,4.8767,4.8736,4.8704,4.861,4.8606,4.85,4.8063,4.7267,4.6118,6.5322,6.5537,6.5552,6.569,6.5807,6.5767,6.5303,6.4656,6.4455,6.3931,6.2858,6.1211,6.0455,6.043,6.0441,6.0412,6.0275,6.0223,6.0076,5.9809,5.976,5.9626,5.9399,5.9382,5.9253,5.9027,5.8989,5.8819,5.8554,5.7859,5.6643,5.5169,5.4909,5.4537,5.3943,5.3831,5.3831,5.3794,5.3756,5.3735,5.3637,5.3538,5.3461,5.3461,5.3461,5.3461,5.3461,5.3461,5.3461,5.3461,5.3461,5.3461,5.3461,5.3461,5.3461,5.3461,5.3461,5.3461,5.3461,5.3461,5.3793,5.4531,5.536,5.6208,5.6947,5.7788,5.8133,5.795,5.7844,5.7821,5.7867,5.7881,5.7726,5.7534,5.7486,5.7363,5.7061,5.6969,5.6881,5.6652,5.6644,5.6456,5.6339,5.6201,5.6007,5.5745,5.5023,5.4451,5.4275,5.3774,5.3267,5.2733,5.1871,5.0828,5.0281,4.9982,4.9987,4.9952,4.9923,4.9889,4.9889,4.9889,4.986,4.9737,4.9649,4.9526,4.9441,4.9411,4.9381,4.9229,4.926,4.9316,4.921,4.8515,4.7237,6.5678,6.5756,6.5833,6.5895,6.5928,6.6013,6.5854,6.5528,6.5076,6.4662,6.4237,6.2965,6.2313,6.2131,6.217,6.1863,6.1314,6.1275,6.0889,6.0307,6.0141,6.0061,5.9915,5.9744,5.9609,5.956,5.94,5.929,5.9084,5.824,5.7397,5.6724,5.62,5.5771,5.5435,5.4932,5.4671,5.469,5.4187,5.3944,5.3944,5.3756,5.3659,5.3659,5.3659,5.3659,5.3716,5.3659,5.3659,5.3716,5.3659,5.3659,5.3659,5.3678,5.3659,5.3678,5.3678,5.3659,5.3678,5.4104,5.4511,5.4865,5.6105,5.7031,5.7365,5.8106,5.8508,5.8422,5.829,5.8238,5.826,5.826,5.8215,5.8065,5.7997,5.7844,5.7726,5.7667,5.7559,5.7449,5.7388,5.7289,5.7177,5.7051,5.6933,5.6688,5.6259,5.5946,5.5612,5.5226,5.4796,5.4169,5.3563,5.2663,5.1514,5.1172,5.0969,5.0621,5.0481,5.0481,5.0453,5.0453,5.0453,5.0335,5.025,5.0171,5.0057,4.9854,4.9737,4.9679,4.9564,4.9471,4.9471,4.9202,4.8282,6.5916,6.5978,6.6036,6.6058,6.6058,6.6102,6.6123,6.6046,6.5546,6.5334,6.5257,6.4648,6.4286,6.4028,6.3631,6.3041,6.2479,6.2394,6.2012,6.1349,6.0981,6.0774,6.072,6.0256,5.9977,5.9937,5.976,5.9609,5.9447,5.8834,5.8275,5.7921,5.736,5.6893,5.665,5.5995,5.5678,5.564,5.5099,5.4819,5.4782,5.4671,5.4353,5.3944,5.387,5.387,5.387,5.3907,5.387,5.387,5.387,5.387,5.387,5.387,5.387,5.3907,5.4093,5.4205,5.4205,5.4986,5.5507,5.5804,5.69,5.7624,5.7921,5.8384,5.8661,5.8656,5.8588,5.8443,5.848,5.848,5.848,5.8437,5.8334,5.8268,5.8223,5.8193,5.8088,5.8088,5.795,5.7904,5.7857,5.7726,5.7595,5.7437,5.7363,5.7264,5.6819,5.6642,5.6357,5.5607,5.5509,5.4616,5.2933,5.2361,5.2036,5.1454,5.1189,5.1064,5.0908,5.0776,5.0776,5.0585,5.064,5.064,5.0509,5.0285,5.0108,5.0057,4.9942,4.9854,4.9965,4.982,4.959,6.6036,6.6102,6.6155,6.6175,6.6175,6.6175,6.6175,6.6175,6.6147,6.6108,6.6069,6.6031,6.6059,6.5845,6.4453,6.367,6.3541,6.3531,6.3362,6.3041,6.2363,6.1947,6.1799,6.0968,6.052,6.0408,6.0366,6.0129,5.9826,5.9717,5.9207,5.8249,5.8174,5.7745,5.711,5.6814,5.6667,5.6647,5.6444,5.6426,5.6426,5.6426,5.566,5.439,5.4128,5.4222,5.4147,5.4128,5.4128,5.411,5.4185,5.4147,5.4147,5.4147,5.4185,5.4222,5.482,5.523,5.5342,5.5996,5.6799,5.7434,5.7598,5.7948,5.8618,5.8743,5.8719,5.8698,5.8677,5.8693,5.8656,5.8635,5.8614,5.8529,5.8471,5.8465,5.8415,5.8393,5.8371,5.8371,5.8246,5.8156,5.8042,5.7997,5.7997,5.795,5.7857,5.7726,5.7631,5.7559,5.7389,5.7328,5.7133,5.6536,5.4198,5.3655,5.3166,5.2546,5.221,5.1809,5.1216,5.0838,5.0892,5.0919,5.0964,5.0937,5.083,5.0749,5.0694,5.064,5.0585,5.0557,5.0418,5.053,5.0342,6.6636,6.6155,6.6175,6.6185,6.6185,6.6185,6.6185,6.6185,6.6185,6.6185,6.6185,6.6185,6.6185,6.6147,6.5566,6.4976,6.4541,6.4502,6.4173,6.3629,6.3201,6.3053,6.2971,6.2556,6.2024,6.1516,6.1352,6.0901,6.0261,6.015,5.9908,5.9558,5.9403,5.9241,5.8819,5.8256,5.7959,5.7838,5.7377,5.7041,5.7044,5.6903,5.6549,5.6006,5.5807,5.5697,5.5697,5.5697,5.5697,5.5697,5.5697,5.5697,5.5697,5.5697,5.5697,5.5735,5.5996,5.6108,5.622,5.6893,5.7472,5.7771,5.8255,5.8589,5.8888,5.8942,5.8882,5.8859,5.8838,5.8818,5.8698,5.8677,5.8677,5.8635,5.8635,5.8614,5.8593,5.8609,5.8609,5.8572,5.8529,5.8486,5.8443,5.8443,5.8422,5.8319,5.8253,5.8164,5.8088,5.7997,5.795,5.7881,5.7821,5.7543,5.6806,5.5688,5.4921,5.4126,5.3573,5.3128,5.2623,5.1987,5.1904,5.183,5.1719,5.151,5.1485,5.1254,5.1201,5.0991,5.0964,5.1044,5.0811,5.0964,5.0857,6.7152,6.6611,6.6301,6.6185,6.6185,6.6185,6.6185,6.6185,6.6185,6.6185,6.6185,6.6185,6.6185,6.6185,6.6185,6.5953,6.5412,6.5373,6.5064,6.4522,6.4183,6.4046,6.3998,6.3664,6.3158,6.2574,6.2148,6.1618,6.0968,6.0648,6.0468,6.0335,6.0289,6.0203,6.003,5.949,5.9163,5.8988,5.8492,5.8218,5.8186,5.8034,5.7951,5.7901,5.7783,5.7303,5.6743,5.6687,5.6687,5.6687,5.6687,5.6687,5.6687,5.6687,5.6687,5.6687,5.6949,5.7099,5.7174,5.7829,5.8278,5.8315,5.8726,5.9081,5.9081,5.9041,5.9002,5.8942,5.894,5.8882,5.8821,5.8781,5.8739,5.8698,5.8677,5.8677,5.8677,5.8677,5.8677,5.8677,5.8677,5.8677,5.8677,5.8677,5.8635,5.8572,5.8572,5.8508,5.84,5.8356,5.8334,5.8246,5.8246,5.8186,5.7831,5.7125,5.6297,5.5486,5.4822,5.4447,5.3914,5.3311,5.2852,5.2733,5.2532,5.2305,5.2066,5.1811,5.1551,5.1296,5.1449,5.1626,5.1475,5.1408,5.1357,6.7539,6.7317,6.6572,6.6273,6.6244,6.6205,6.6195,6.6195,6.6234,6.6205,6.6205,6.6195,6.6244,6.6195,6.6205,6.6195,6.6118,6.6079,6.6031,6.5876,6.5296,6.4986,6.4948,6.428,6.3825,6.3541,6.2688,6.2199,6.194,6.1301,6.087,6.0659,6.0585,6.0507,6.0403,6.0217,6.0146,6.0079,5.993,5.9916,5.9991,5.9785,5.97,5.9712,5.968,5.885,5.7166,5.7073,5.7148,5.711,5.7055,5.698,5.7148,5.7148,5.7055,5.7261,5.7731,5.8089,5.8201,5.882,5.9214,5.9214,5.9234,5.9253,5.9253,5.914,5.9082,5.9082,5.9063,5.9024,5.9004,5.8962,5.8879,5.8719,5.8698,5.8677,5.8677,5.8677,5.8677,5.8677,5.8677,5.8677,5.8677,5.8677,5.8677,5.8677,5.8677,5.8656,5.8614,5.8614,5.8656,5.8656,5.8572,5.8508,5.8508,5.8354,5.7545,5.6749,5.6186,5.5691,5.5106,5.4487,5.3832,5.359,5.2845,5.2585,5.2374,5.2173,5.2173,5.2018,5.2197,5.2114,5.2054,5.1933,5.2006,6.8656,6.7571,6.73,6.6835,6.6379,6.634,6.634,6.6331,6.6331,6.634,6.634,6.6331,6.6331,6.6331,6.6331,6.6312,6.6284,6.6284,6.6225,6.6157,6.5915,6.5799,6.576,6.5528,6.5102,6.4502,6.3641,6.2867,6.2313,6.1994,6.1565,6.0999,6.09,6.0854,6.0757,6.0722,6.0647,6.0585,6.052,6.0439,6.0398,6.0232,6.0106,6.0114,6.0053,5.9656,5.9143,5.9008,5.898,5.8904,5.898,5.898,5.898,5.898,5.898,5.9017,5.9169,5.9341,5.9341,5.953,5.9719,5.9719,5.9685,5.9685,5.9685,5.965,5.956,5.9488,5.947,5.9434,5.9327,5.9272,5.912,5.8879,5.8739,5.8719,5.8739,5.8719,5.8677,5.8677,5.8677,5.8677,5.8698,5.8698,5.8719,5.8698,5.8698,5.8698,5.8698,5.8677,5.8677,5.8677,5.8677,5.8677,5.8635,5.8572,5.8141,5.7589,5.7166,5.6822,5.626,5.5637,5.4979,5.4129,5.3346,5.2834,5.2649,5.2545,5.2545,5.2477,5.2384,5.2384,5.2384,5.2408,5.2467,6.9556,6.8548,6.8237,6.7811,6.7277,6.7006,6.6842,6.6803,6.6502,6.6424,6.6424,6.6424,6.6424,6.6424,6.6424,6.6367,6.634,6.6331,6.6322,6.6284,6.6195,6.6185,6.6185,6.6185,6.5992,6.5412,6.4609,6.3893,6.3322,6.2655,6.2055,6.16,6.1193,6.0969,6.0938,6.0944,6.0922,6.0839,6.0808,6.071,6.0711,6.0533,6.0455,6.0428,6.0387,6.036,6.0346,6.0299,6.0167,6.0029,5.9982,5.9982,5.9982,5.9944,5.9982,5.9982,5.9982,5.9944,5.9982,5.9928,5.9982,5.9982,5.9982,5.9982,5.9982,5.9982,5.9912,5.988,5.9826,5.9815,5.9677,5.9575,5.9472,5.9272,5.9081,5.8925,5.8942,5.8942,5.8905,5.8962,5.8925,5.8922,5.8882,5.8882,5.8842,5.8781,5.8777,5.8719,5.8756,5.8677,5.8698,5.8698,5.8677,5.8677,5.8677,5.8656,5.8593,5.8301,5.7972,5.7766,5.7427,5.6684,5.6021,5.4626,5.368,5.317,5.2915,5.2872,5.285,5.2739,5.2635,5.2739,5.2806,5.2783,5.2783,7.0263,7.0108,6.9303,6.8915,6.8721,6.8023,6.7635,6.7471,6.6859,6.6519,6.6433,6.6403,6.6403,6.6394,6.6403,6.6394,6.6385,6.6385,6.6376,6.6349,6.6293,6.6244,6.6205,6.6205,6.6157,6.5992,6.5373,6.4986,6.4628,6.3429,6.2511,6.2414,6.1756,6.1167,6.1262,6.1106,6.1124,6.0997,6.0987,6.0955,6.0911,6.0861,6.0866,6.0781,6.0769,6.0757,6.0746,6.0734,6.0585,6.0217,6.0173,6.0188,6.0144,6.0129,6.0173,6.0173,6.0144,6.0173,6.0159,6.0188,6.0173,6.0188,6.0188,6.0129,6.0173,6.0203,6.0203,6.0173,6.0173,6.0144,6.0114,5.9984,5.9852,5.9809,5.9488,5.9309,5.929,5.929,5.9272,5.9272,5.929,5.9272,5.9215,5.9196,5.91,5.8982,5.896,5.892,5.8842,5.8842,5.876,5.8781,5.8862,5.8842,5.8902,5.8862,5.8821,5.864,5.8408,5.8344,5.811,5.7439,5.6636,5.526,5.4223,5.3661,5.323,5.3188,5.3167,5.3088,5.3088,5.3188,5.3146,5.3082,5.3002,7.0865,7.0283,7.0011,6.9584,6.9079,6.876,6.8341,6.7759,6.7526,6.7013,6.6594,6.6477,6.6469,6.6477,6.6477,6.6461,6.6437,6.6428,6.6411,6.6424,6.6358,6.6322,6.6293,6.6245,6.6225,6.6157,6.5925,6.5605,6.5035,6.4454,6.3913,6.3371,6.3052,6.2607,6.2133,6.2046,6.165,6.1148,6.1041,6.1059,6.1039,6.0997,6.0965,6.0955,6.0955,6.0955,6.0955,6.0944,6.0877,6.066,6.0635,6.0635,6.0572,6.0572,6.0597,6.061,6.0623,6.0623,6.0623,6.061,6.0623,6.0623,6.0597,6.0585,6.0585,6.0623,6.0585,6.0623,6.0623,6.0559,6.0482,6.043,6.0351,6.0241,5.9836,5.9523,5.9488,5.9452,5.9415,5.9415,5.945,5.9488,5.9452,5.9399,5.9364,5.929,5.9215,5.9196,5.9101,5.9101,5.9082,5.912,5.9159,5.9139,5.91,5.9081,5.9002,5.8879,5.8743,5.8702,5.8338,5.7772,5.6853,5.5787,5.5011,5.4396,5.3769,5.3416,5.3437,5.3449,5.3355,5.3314,5.3272,5.323,5.3167,7.1287,7.086,7.086,7.0588,7.0121,6.9772,6.915,6.8373,6.7946,6.7324,6.6625,6.6508,6.6508,6.6508,6.6508,6.6454,6.6469,6.6431,6.6453,6.6445,6.6437,6.6403,6.6358,6.634,6.6322,6.6303,6.6293,6.6032,6.5606,6.5248,6.4744,6.4289,6.3931,6.3466,6.304,6.3002,6.2769,6.2343,6.2161,6.2036,6.1678,6.1611,6.1408,6.1244,6.1128,6.1235,6.1563,6.162,6.1404,6.0999,6.0888,6.09,6.09,6.09,6.09,6.0861,6.09,6.09,6.09,6.09,6.09,6.0888,6.09,6.09,6.085,6.09,6.09,6.0888,6.09,6.0839,6.0777,6.0742,6.0695,6.0597,6.0255,6.0007,5.9946,5.9962,5.9893,5.9893,5.9931,5.9861,5.9852,5.9788,5.9689,5.9609,5.954,5.9452,5.9418,5.9399,5.9417,5.9452,5.9434,5.9381,5.9364,5.9345,5.929,5.914,5.9041,5.8982,5.8618,5.8087,5.739,5.6529,5.5784,5.5077,5.4505,5.4004,5.3793,5.3752,5.3547,5.3437,5.3433,5.3355,5.3314,7.1598,7.1598,7.1598,7.1598,7.1403,7.0782,6.9966,6.915,6.8373,6.7519,6.6819,6.6547,6.6508,6.6508,6.6508,6.6508,6.6508,6.6501,6.6501,6.6501,6.6493,6.6461,6.6411,6.6394,6.6376,6.6406,6.6424,6.6376,6.6135,6.5553,6.5282,6.5127,6.4507,6.4089,6.3955,6.3925,6.3895,6.3615,6.349,6.3171,6.2706,6.2581,6.2349,6.1923,6.1854,6.2069,6.2469,6.2548,6.2211,6.1386,6.1134,6.1008,6.1008,6.1008,6.1008,6.1008,6.0969,6.1008,6.1008,6.1008,6.1008,6.1008,6.1008,6.1008,6.0969,6.1008,6.1008,6.1008,6.1008,6.1008,6.0997,6.0927,6.0894,6.0839,6.0804,6.0719,6.0596,6.0546,6.0521,6.0559,6.0508,6.0456,6.039,6.0321,6.0199,6.0023,5.9946,5.9884,5.982,5.982,5.9788,5.9755,5.9723,5.9656,5.9643,5.9609,5.954,5.9434,5.9327,5.9178,5.8912,5.8458,5.7871,5.7252,5.6737,5.6045,5.5295,5.4828,5.4603,5.4357,5.434,5.4004,5.3686,5.3514,5.3437,7.1598,7.1598,7.1598,7.1598,7.1559,7.1365,7.0821,6.9966,6.915,6.8334,6.7519,6.6819,6.6547,6.6508,6.6508,6.6508,6.6508,6.6547,6.6508,6.6508,6.6508,6.6501,6.6469,6.6406,6.6411,6.6394,6.6424,6.6424,6.6308,6.62,6.6114,6.5997,6.5735,6.5493,6.4912,6.4804,6.4438,6.3973,6.3865,6.3826,6.3632,6.3516,6.3399,6.3128,6.3167,6.3313,6.3421,6.349,6.3395,6.2933,6.1949,6.1312,6.1273,6.1244,6.1283,6.1273,6.1196,6.1157,6.1119,6.1235,6.1119,6.1225,6.1302,6.108,6.108,6.1157,6.1119,6.108,6.108,6.107,6.107,6.107,6.1041,6.1021,6.1031,6.1021,6.0951,6.0811,6.0769,6.0746,6.0746,6.0734,6.0659,6.0571,6.0482,6.0418,6.0365,6.0311,6.0269,6.0213,6.0185,6.0127,6.0141,6.0097,6.0053,5.9992,5.9899,5.982,5.9689,5.9571,5.9321,5.9083,5.8653,5.824,5.7866,5.708,5.6293,5.6201,5.6014,5.5602,5.5188,5.4926,5.457,5.4101,5.3746,7.1598,7.1598,7.1598,7.1598,7.1598,7.1598,7.1131,7.0354,6.9888,6.8956,6.7907,6.7247,6.6897,6.6508,6.6508,6.6508,6.6625,6.6936,6.713,6.713,6.7091,6.6897,6.6508,6.6446,6.6422,6.6445,6.6445,6.6445,6.6445,6.6445,6.6406,6.6445,6.6445,6.6173,6.5824,6.5738,6.5552,6.5242,6.5048,6.4893,6.4535,6.4458,6.4194,6.4108,6.4217,6.4433,6.4472,6.4408,6.4399,6.408,6.3115,6.2352,6.2352,6.2352,6.2352,6.2352,6.2364,6.2355,6.2384,6.2336,6.2356,6.2278,6.2317,6.2046,6.1853,6.1698,6.1466,6.1234,6.1118,6.1118,6.1118,6.1118,6.1118,6.1118,6.1118,6.1118,6.1099,6.0982,6.0948,6.0948,6.0959,6.0938,6.0867,6.0784,6.0766,6.0669,6.0683,6.0634,6.0597,6.0559,6.0585,6.0572,6.0585,6.0572,6.0533,6.043,6.0297,6.0227,6.0141,6.0068,5.9939,5.976,5.9555,5.9118,5.8626,5.8201,5.7548,5.749,5.7189,5.6555,5.6108,5.5902,5.5585,5.5156,5.4763,7.1598,7.1598,7.1598,7.1598,7.1598,7.1598,7.1209,7.0588,7.0354,6.95,6.8373,6.8062,6.7674,6.7091,6.7014,6.6936,6.713,6.7596,6.7985,6.7985,6.7713,6.7519,6.713,6.6967,6.6812,6.6703,6.654,6.6501,6.6501,6.6508,6.6493,6.6501,6.6501,6.6415,6.6462,6.647,6.6345,6.6221,6.6182,6.5988,6.5483,6.5367,6.5056,6.4823,6.5041,6.5374,6.5366,6.5342,6.5317,6.5269,6.4619,6.4269,6.4153,6.3865,6.3817,6.374,6.358,6.3494,6.3446,6.3535,6.3555,6.37,6.3661,6.3313,6.2771,6.2587,6.2355,6.1968,6.1774,6.1774,6.1523,6.1756,6.1717,6.1592,6.1475,6.1311,6.1273,6.1195,6.1099,6.109,6.106,6.1041,6.1002,6.0972,6.0969,6.0938,6.0916,6.0894,6.085,6.0839,6.085,6.0861,6.0834,6.0811,6.0777,6.0683,6.0584,6.0546,6.0495,6.0456,6.0416,6.0231,6.0006,5.9734,5.9324,5.8919,5.8696,5.8635,5.8165,5.7441,5.711,5.6983,5.6647,5.6217,5.5789,7.1598,7.1598,7.1598,7.1598,7.1598,7.1598,7.152,7.1287,7.0626,7.0199,6.9772,6.9189,6.8801,6.8567,6.8645,6.8637,6.8567,6.8801,6.8878,6.8762,6.8373,6.8062,6.8296,6.7829,6.7596,6.7363,6.7052,6.6703,6.6508,6.6508,6.6508,6.6508,6.6508,6.6508,6.6508,6.6508,6.6508,6.6508,6.6508,6.6314,6.6198,6.612,6.6081,6.5809,6.6027,6.6144,6.6221,6.626,6.6252,6.6252,6.6136,6.6019,6.5615,6.4635,6.4106,6.4059,6.4089,6.4158,6.4119,6.3917,6.3839,6.38,6.3947,6.3869,6.3636,6.3559,6.3356,6.324,6.3163,6.3249,6.3326,6.3059,6.3273,6.3147,6.2616,6.2211,6.2085,6.166,6.1273,6.1311,6.1234,6.1118,6.106,6.1051,6.1022,6.1031,6.1021,6.1021,6.101,6.101,6.0992,6.1012,6.107,6.1002,6.0972,6.0867,6.0827,6.0789,6.0754,6.0719,6.0671,6.0596,6.0405,6.0185,6.0038,5.984,5.968,5.9618,5.9371,5.8781,5.8438,5.813,5.7774,5.7414,5.6599,7.1598,7.1598,7.1598,7.1598,7.1598,7.1598,7.1598,7.1559,7.117,7.0704,7.0316,6.9888,6.9461,6.9189,6.9111,6.9306,6.9655,6.9733,6.9733,6.9578,6.9344,6.8995,6.9189,6.8645,6.8529,6.8373,6.8024,6.7285,6.6586,6.6508,6.6547,6.6508,6.6508,6.6508,6.6508,6.6508,6.6508,6.6508,6.6508,6.6508,6.6508,6.6508,6.6508,6.6508,6.6508,6.6508,6.6508,6.6508,6.6508,6.647,6.647,6.6508,6.6221,6.5817,6.5172,6.5125,6.5109,6.5092,6.5131,6.5153,6.5174,6.5174,6.5106,6.4873,6.4593,6.4438,6.433,6.3981,6.3817,6.3817,6.374,6.3878,6.383,6.3744,6.335,6.3168,6.2926,6.2297,6.194,6.1708,6.1398,6.1243,6.1118,6.107,6.1118,6.1118,6.1118,6.1118,6.1118,6.1118,6.1118,6.1118,6.1109,6.106,6.1041,6.0982,6.0959,6.0959,6.0959,6.0927,6.0867,6.0784,6.0789,6.0683,6.0597,6.043,6.0297,6.0084,6.0059,6.0045,5.9619,5.9216,5.9008,5.8549,5.7748,7.1622,7.1614,7.1614,7.1606,7.1598,7.1598,7.1598,7.1598,7.1559,7.1209,7.0626,7.0549,7.0199,6.9772,6.9733,7.0005,7.0549,7.0588,7.0588,7.051,7.0238,6.9927,6.9772,6.9422,6.9344,6.9306,6.9267,6.8529,6.7441,6.6975,6.6819,6.678,6.6703,6.6508,6.6508,6.6508,6.6508,6.6508,6.6508,6.6508,6.6508,6.6508,6.6508,6.6508,6.6508,6.6508,6.6508,6.6508,6.6508,6.6508,6.6508,6.6508,6.6508,6.6508,6.6508,6.6501,6.6439,6.6422,6.6367,6.632,6.6148,6.6109,6.6334,6.5985,6.5635,6.5334,6.5131,6.4511,6.4433,6.4519,6.4635,6.4425,6.4416,6.4369,6.4295,6.4036,6.3795,6.335,6.2799,6.2403,6.1765,6.1446,6.1321,6.1118,6.1118,6.1118,6.1118,6.1118,6.1118,6.1118,6.1118,6.1118,6.1118,6.1118,6.107,6.106,6.106,6.1051,6.1051,6.1041,6.1002,6.0992,6.0951,6.0938,6.0845,6.0692,6.0608,6.0521,6.0443,6.0376,6.0376,6.0207,5.9812,5.9488,5.8948,7.1683,7.1692,7.1692,7.1676,7.1606,7.1606,7.1606,7.1606,7.1606,7.1559,7.1342,7.1412,7.1295,7.114,7.114,7.1295,7.1365,7.1326,7.1287,7.117,7.0743,7.0704,7.1015,7.0471,7.0238,7.016,7.016,6.9655,6.8762,6.8062,6.7674,6.7557,6.6975,6.6547,6.6703,6.6703,6.6508,6.6508,6.6586,6.6586,6.6586,6.6586,6.6586,6.6508,6.6508,6.6508,6.6508,6.6508,6.6508,6.6508,6.6508,6.6508,6.6508,6.6508,6.6508,6.6508,6.6501,6.6501,6.6493,6.6485,6.6477,6.6477,6.6485,6.6415,6.6206,6.6167,6.6089,6.626,6.6066,6.5942,6.5848,6.5987,6.6057,6.5721,6.5269,6.5058,6.4808,6.417,6.3696,6.3348,6.2796,6.2025,6.1581,6.1321,6.1118,6.1118,6.1118,6.1118,6.1118,6.1118,6.1118,6.1118,6.1118,6.1118,6.1118,6.1118,6.1118,6.1118,6.1118,6.1109,6.106,6.1051,6.106,6.1012,6.0972,6.092,6.0834,6.0766,6.0731,6.0695,6.0608,6.0546,6.0431,6.0175,5.9919,7.1764,7.1697,7.169,7.1683,7.1668,7.1668,7.1668,7.1668,7.1668,7.1668,7.1668,7.1668,7.1653,7.1638,7.1638,7.1622,7.1606,7.1606,7.1598,7.1606,7.1217,7.1209,7.1403,7.1248,7.1054,7.0984,7.1015,7.0976,7.016,6.9228,6.8529,6.8412,6.7713,6.7285,6.7247,6.7247,6.7247,6.7402,6.7674,6.7713,6.7363,6.7208,6.7014,6.6547,6.6508,6.6508,6.6508,6.6508,6.6508,6.6508,6.6508,6.6508,6.6508,6.6508,6.6508,6.6508,6.6508,6.6508,6.6508,6.6508,6.6508,6.6508,6.6508,6.647,6.6508,6.6508,6.6508,6.647,6.647,6.6508,6.6508,6.6493,6.6485,6.6314,6.6018,6.5924,6.5597,6.4989,6.4468,6.4166,6.3817,6.3094,6.234,6.1828,6.1617,6.1512,6.1465,6.1378,6.1253,6.1118,6.1118,6.1118,6.1118,6.1118,6.1118,6.1118,6.1118,6.1118,6.1118,6.1118,6.1118,6.1109,6.1118,6.1118,6.1041,6.1002,6.1,6.0931,6.0888,6.0856,6.0834,6.0777,6.0731,6.0669,6.0402,7.1833,7.1764,7.1738,7.1725,7.1679,7.1679,7.1679,7.1679,7.1672,7.1679,7.1679,7.1672,7.1697,7.1683,7.1675,7.1661,7.1638,7.163,7.163,7.163,7.163,7.1599,7.1599,7.1591,7.1583,7.1614,7.1489,7.1442,7.1131,7.0432,6.9694,6.9383,6.8567,6.8179,6.8101,6.8101,6.814,6.8179,6.8645,6.8606,6.8179,6.7868,6.7441,6.6975,6.6625,6.6508,6.6508,6.6508,6.6508,6.6508,6.6508,6.6508,6.6508,6.6508,6.6508,6.6508,6.6508,6.6508,6.6508,6.6508,6.6508,6.6508,6.6508,6.6508,6.6508,6.6508,6.6508,6.6508,6.6508,6.6508,6.6508,6.6508,6.6501,6.6501,6.6415,6.6439,6.6361,6.574,6.5382,6.5266,6.4916,6.4388,6.3596,6.2695,6.2236,6.1992,6.1858,6.1763,6.1715,6.1649,6.1813,6.2025,6.2063,6.1977,6.161,6.1523,6.1407,6.1282,6.1282,6.1157,6.1195,6.1118,6.1118,6.1118,6.1118,6.1099,6.106,6.1022,6.1022,6.0982,6.0951,6.099,6.0969,6.0938,6.0867,7.1889,7.1876,7.18,7.1751,7.1686,7.1679,7.1679,7.1699,7.1686,7.1693,7.1732,7.1686,7.1725,7.1711,7.1711,7.1711,7.1665,7.1672,7.1658,7.1658,7.1672,7.1658,7.169,7.1668,7.1692,7.1692,7.1638,7.1614,7.1567,7.135,7.0751,7.0238,6.943,6.9111,6.8995,6.8995,6.9111,6.915,6.9422,6.9306,6.8878,6.8451,6.7907,6.7596,6.6975,6.6508,6.6508,6.6508,6.6508,6.6508,6.6508,6.6508,6.6508,6.6508,6.6508,6.6516,6.6516,6.6524,6.6531,6.6516,6.6508,6.6508,6.6508,6.6508,6.6508,6.6508,6.6508,6.6508,6.6516,6.6516,6.6516,6.6508,6.65,6.6546,6.656,6.6574,6.6581,6.6517,6.6199,6.6256,6.5931,6.5341,6.5047,6.4192,6.327,6.2981,6.2861,6.2775,6.2978,6.2999,6.321,6.3374,6.3413,6.3163,6.2507,6.2343,6.2266,6.2063,6.1899,6.161,6.1321,6.1282,6.1407,6.1118,6.1118,6.1118,6.1118,6.106,6.1051,6.1109,6.1099,6.107,6.106,6.1031,6.0982,7.1905,7.1889,7.1862,7.1843,7.1794,7.1833,7.1833,7.1833,7.1833,7.1822,7.1844,7.1844,7.1788,7.1764,7.1745,7.1732,7.1718,7.1679,7.1679,7.1679,7.1679,7.1679,7.1672,7.1711,7.1697,7.169,7.1675,7.1675,7.1675,7.1668,7.1559,7.0961,7.0231,6.9927,6.9849,6.9896,7.0091,7.0471,7.051,7.0432,6.9811,6.9578,6.9111,6.8567,6.7752,6.7363,6.7247,6.6742,6.6586,6.6547,6.6594,6.6594,6.6633,6.6633,6.6609,6.6585,6.6592,6.6574,6.6549,6.6521,6.6508,6.6508,6.6508,6.6516,6.6524,6.6516,6.6508,6.6516,6.6538,6.6553,6.6553,6.6549,6.6581,6.6588,6.66,6.6657,6.6669,6.6641,6.6641,6.6513,6.6423,6.6184,6.601,6.5803,6.4828,6.4047,6.3929,6.3865,6.4067,6.4145,6.4231,6.4269,6.4308,6.4067,6.3451,6.3249,6.3163,6.2844,6.2555,6.2305,6.2025,6.1977,6.2025,6.1571,6.1127,6.1127,6.1127,6.1118,6.1118,6.1118,6.1118,6.1109,6.106,6.106,6.1051,7.1924,7.1952,7.1952,7.1905,7.1893,7.1889,7.1889,7.1889,7.1889,7.1885,7.1906,7.1906,7.1892,7.1861,7.1811,7.1806,7.1794,7.1749,7.1782,7.1782,7.1743,7.1764,7.1758,7.1745,7.1732,7.1732,7.1718,7.1672,7.1672,7.1679,7.1633,7.1418,7.1124,7.079,7.0705,7.0744,7.1016,7.1482,7.156,7.1404,7.0744,7.0394,7.0129,6.943,6.8691,6.8263,6.7998,6.7571,6.7291,6.7291,6.7253,6.7136,6.7129,6.7097,6.6956,6.6899,6.677,6.6684,6.6624,6.66,6.6581,6.6594,6.6594,6.6588,6.6574,6.6574,6.6562,6.6555,6.6607,6.662,6.6627,6.663,6.6624,6.6629,6.6654,6.6707,6.6711,6.6681,6.6677,6.6672,6.6624,6.6541,6.6473,6.6296,6.5914,6.521,6.5235,6.5125,6.5125,6.5125,6.5048,6.5048,6.5009,6.4682,6.4269,6.4231,6.4067,6.3451,6.321,6.321,6.3046,6.2883,6.2486,6.2013,6.1608,6.1271,6.1155,6.1155,6.1137,6.1079,6.1079,6.1118,6.1118,6.107,6.107,7.1987,7.1987,7.1984,7.1966,7.1897,7.1893,7.1893,7.1897,7.1897,7.1893,7.1893,7.1893,7.1889,7.1881,7.1872,7.1867,7.1867,7.1872,7.1872,7.1862,7.1848,7.1887,7.1872,7.1844,7.1788,7.177,7.1764,7.1719,7.1699,7.1751,7.1706,7.1706,7.1544,7.1485,7.164,7.1633,7.1672,7.1672,7.1704,7.1587,7.1386,7.0926,7.0615,7.0297,6.9596,6.9168,6.8974,6.8313,6.8157,6.8429,6.8274,6.8358,6.8793,6.8326,6.8073,6.8037,6.7281,6.6922,6.6828,6.6766,6.6878,6.6896,6.6964,6.7003,6.6857,6.678,6.6852,6.6964,6.6902,6.6839,6.6775,6.6833,6.6966,6.6904,6.6961,6.682,6.6862,6.6748,6.6748,6.6748,6.6739,6.6688,6.6697,6.6663,6.6602,6.6419,6.6468,6.6353,6.6074,6.5949,6.5755,6.5693,6.5615,6.5491,6.525,6.5203,6.4923,6.4269,6.3981,6.4145,6.3748,6.3275,6.2878,6.2405,6.1815,6.1286,6.1199,6.1229,6.1173,6.1155,6.1118,6.1118,6.1118,6.1118,6.1118,7.1987,7.1987,7.1987,7.1982,7.1972,7.1972,7.1972,7.1972,7.1969,7.1927,7.1916,7.1913,7.1905,7.1897,7.1893,7.1893,7.1893,7.1889,7.1889,7.1893,7.1885,7.1881,7.1911,7.1901,7.1892,7.1853,7.1843,7.1833,7.1848,7.1833,7.1838,7.1843,7.1822,7.1755,7.1706,7.1679,7.1679,7.1679,7.1679,7.1679,7.1679,7.1414,7.1258,7.1219,7.0447,7.0103,6.9987,6.9214,6.9059,6.9409,6.9214,6.9688,6.9979,6.955,6.954,6.9436,6.8886,6.846,6.8418,6.8388,6.8139,6.7829,6.7594,6.7829,6.8249,6.782,6.766,6.759,6.7567,6.7575,6.7575,6.8237,6.8369,6.7826,6.764,6.7258,6.7103,6.6909,6.6792,6.6791,6.6789,6.6779,6.6805,6.6736,6.6689,6.6678,6.663,6.6588,6.6366,6.639,6.6305,6.6275,6.6229,6.6221,6.6144,6.5895,6.5817,6.5413,6.5289,6.5413,6.4854,6.3984,6.3261,6.2787,6.2003,6.1297,6.1281,6.1264,6.1247,6.1182,6.1164,6.1127,6.1118,6.1118,6.1118,7.1987,7.1987,7.1987,7.1987,7.1987,7.1987,7.1987,7.1987,7.1987,7.1982,7.1937,7.1933,7.1927,7.1955,7.1913,7.1913,7.1952,7.1952,7.1952,7.1913,7.1905,7.1905,7.1901,7.1897,7.1881,7.1893,7.1893,7.1889,7.1881,7.1889,7.1885,7.1885,7.1889,7.1853,7.1811,7.1761,7.1761,7.1761,7.1806,7.1761,7.1761,7.1716,7.1716,7.1599,7.1288,7.0982,7.0742,7.0314,6.9802,7.0119,7.0358,7.0765,7.0819,7.0766,7.0676,7.0405,6.9861,6.9371,6.9216,6.9209,6.8944,6.9018,6.8689,6.8757,6.9145,6.8718,6.8562,6.8486,6.8486,6.8451,6.8615,6.9372,6.9217,6.8632,6.8437,6.8085,6.7929,6.7772,6.7538,6.746,6.7265,6.7187,6.6911,6.6782,6.6717,6.6727,6.6689,6.6668,6.6594,6.6607,6.6588,6.6546,6.6524,6.6438,6.6392,6.6345,6.6345,6.647,6.6345,6.6182,6.5786,6.4916,6.4039,6.3169,6.2517,6.1896,6.1438,6.1306,6.1281,6.1264,6.1247,6.1173,6.1127,6.1127,6.1127,7.1987,7.1987,7.1987,7.1987,7.1987,7.1987,7.1987,7.1987,7.1987,7.1987,7.1987,7.1987,7.1984,7.1984,7.1984,7.1984,7.1982,7.1984,7.1982,7.1982,7.193,7.1927,7.192,7.1909,7.1909,7.1901,7.1901,7.1948,7.1897,7.1905,7.1905,7.1901,7.1905,7.1893,7.1885,7.1881,7.1876,7.1867,7.1862,7.1862,7.1858,7.1872,7.1867,7.1785,7.1711,7.1672,7.1443,7.1018,7.1105,7.1191,7.1207,7.1413,7.1426,7.1165,7.095,7.0541,6.9998,6.9866,6.9767,6.9832,7.003,7.0251,6.9911,6.9645,6.957,6.9609,6.9414,6.9375,6.9375,6.9413,6.9528,6.9644,6.972,6.9523,6.9442,6.9283,6.9168,6.8972,6.8699,6.8466,6.8232,6.7964,6.7343,6.7069,6.7024,6.6782,6.6761,6.673,6.6681,6.6641,6.6612,6.6581,6.656,6.6538,6.6531,6.6516,6.6508,6.6508,6.6508,6.6345,6.6035,6.5685,6.4777,6.3915,6.3192,6.2563,6.1989,6.1578,6.1314,6.1297,6.1289,6.1217,6.1182,6.1164,6.1155,7.1987,7.1987,7.1987,7.1987,7.1987,7.1987,7.1987,7.1987,7.1987,7.1987,7.1987,7.1987,7.1987,7.1987,7.1987,7.1987,7.1987,7.1987,7.1987,7.1984,7.1982,7.1982,7.1979,7.1972,7.1972,7.1972,7.1972,7.1969,7.1972,7.1972,7.1972,7.1976,7.1969,7.1969,7.1969,7.1972,7.1916,7.1905,7.1897,7.1897,7.1897,7.1897,7.1897,7.1897,7.1897,7.1897,7.1745,7.1643,7.1689,7.1705,7.2263,7.2627,7.269,7.2574,7.2343,7.1628,7.1324,7.121,7.1187,7.1131,7.1135,7.1304,7.1171,7.1234,7.1021,7.0603,7.029,7.0253,7.0253,7.0251,7.0364,7.0479,7.0477,7.0397,7.0277,7.016,7.0045,6.9776,6.9503,6.9234,6.9002,6.8538,6.7922,6.7613,6.7499,6.707,6.6795,6.6784,6.6756,6.6705,6.6673,6.6606,6.6594,6.6574,6.6538,6.6508,6.6508,6.6508,6.6508,6.647,6.6275,6.584,6.5258,6.4527,6.3673,6.3044,6.2493,6.2082,6.1632,6.1345,6.1299,6.1267,6.1242,6.1217,6.1199,7.1987,7.1987,7.1987,7.1987,7.1987,7.1987,7.1987,7.1987,7.1987,7.1987,7.1987,7.1987,7.1987,7.1987,7.1987,7.1987,7.1987,7.1987,7.1987,7.1987,7.1987,7.1987,7.1987,7.1987,7.1984,7.1987,7.1987,7.1984,7.1987,7.1987,7.1987,7.1987,7.1987,7.1987,7.1987,7.1984,7.1976,7.1966,7.1959,7.1955,7.1955,7.1955,7.1955,7.1955,7.1955,7.1959,7.193,7.1906,7.1926,7.1939,7.2572,7.2656,7.2652,7.261,7.2523,7.1855,7.1788,7.172,7.1658,7.1682,7.1794,7.1838,7.1882,7.1789,7.1663,7.1296,7.1185,7.1111,7.1111,7.1146,7.1338,7.1452,7.1338,7.1224,7.1104,7.0948,7.072,7.0495,7.0228,6.996,6.9574,6.9152,6.8728,6.838,6.7995,6.7534,6.7147,6.6836,6.6827,6.6761,6.6701,6.6673,6.6612,6.6569,6.6521,6.6516,6.6508,6.6508,6.6508,6.647,6.6392,6.6198,6.5732,6.4955,6.41,6.3517,6.2966,6.2422,6.198,6.1701,6.1415,6.1361,6.1337,6.1267,6.1297,7.1987,7.1987,7.1987,7.1987,7.1987,7.1987,7.1987,7.1987,7.1987,7.1987,7.1987,7.1987,7.1987,7.1987,7.1987,7.1987,7.1987,7.1987,7.1987,7.1987,7.1987,7.1987,7.1987,7.1987,7.1987,7.1987,7.1987,7.1987,7.1987,7.1987,7.1987,7.1987,7.1987,7.1987,7.1987,7.1987,7.1984,7.1982,7.1979,7.1979,7.1982,7.1984,7.1987,7.1987,7.1987,7.1993,7.1969,7.1984,7.1913,7.1952,7.1984,7.2008,7.2034,7.2018,7.1952,7.1932,7.1867,7.1848,7.1833,7.1822,7.1822,7.1822,7.1817,7.1788,7.1741,7.1677,7.1573,7.1573,7.1499,7.1499,7.1651,7.169,7.1616,7.1581,7.1546,7.1472,7.137,7.1179,7.1065,7.0798,7.0489,7.0069,6.9564,6.9218,6.8598,6.8105,6.7642,6.7217,6.6875,6.6829,6.6792,6.6724,6.6663,6.66,6.6574,6.6531,6.6516,6.6508,6.6508,6.6508,6.6431,6.6314,6.6198,6.5498,6.4799,6.4022,6.3439,6.3051,6.2585,6.1995,6.1716,6.1529,6.1468,6.1431,6.1345,7.1987,7.1987,7.1987,7.1987,7.1987,7.1987,7.1987,7.1987,7.1987,7.1987,7.1987,7.1987,7.1987,7.1987,7.1987,7.1987,7.1987,7.1987,7.1987,7.1987,7.1987,7.1987,7.1987,7.1987,7.1987,7.1987,7.1987,7.1987,7.1987,7.1987,7.1987,7.1987,7.1987,7.1987,7.1987,7.1987,7.1987,7.1987,7.1987,7.1987,7.1987,7.1987,7.1987,7.1993,7.1995,7.2006,7.1981,7.1991,7.195,7.1938,7.1917,7.1927,7.1893,7.1867,7.1809,7.1799,7.1838,7.1827,7.1822,7.1817,7.1817,7.1817,7.1817,7.1817,7.1822,7.1794,7.1799,7.1843,7.1843,7.1843,7.1843,7.1843,7.1848,7.1858,7.1906,7.1885,7.1897,7.1862,7.1788,7.1593,7.1363,7.0937,7.0437,6.9855,6.9273,6.8733,6.8189,6.7695,6.7135,6.6914,6.6857,6.6769,6.6702,6.668,6.6607,6.6546,6.6524,6.6508,6.6508,6.6508,6.6508,6.6431,6.6314,6.6081,6.5537,6.4838,6.4255,6.3983,6.3439,6.2701,6.2352,6.2313,6.1847,6.1701,6.1507,7.1987,7.1987,7.1987,7.1987,7.1987,7.1987,7.1987,7.1987,7.1987,7.1987,7.1987,7.1987,7.1987,7.1987,7.1987,7.1987,7.1987,7.1987,7.1987,7.1987,7.1987,7.1987,7.1987,7.1987,7.1987,7.1987,7.1987,7.1987,7.1987,7.1987,7.1987,7.1987,7.1987,7.1987,7.1987,7.1987,7.1987,7.1987,7.1987,7.1987,7.1987,7.1987,7.1987,7.1993,7.2002,7.1975,7.199,7.199,7.1934,7.1903,7.1866,7.1842,7.1853,7.1833,7.1822,7.1822,7.1822,7.1817,7.1817,7.1817,7.1817,7.1817,7.1817,7.1817,7.1817,7.1827,7.1827,7.1827,7.1827,7.1827,7.1827,7.1827,7.1833,7.1838,7.1843,7.1853,7.1876,7.1889,7.1854,7.178,7.1624,7.155,7.1047,7.054,7.0001,6.978,6.9156,6.8354,6.7752,6.7299,6.7143,6.6959,6.6943,6.6756,6.6612,6.6588,6.6538,6.6524,6.6516,6.6508,6.6508,6.6508,6.6431,6.6237,6.6042,6.5654,6.5188,6.4838,6.4255,6.3478,6.3284,6.3168,6.2624,6.2157,6.2073,7.1987,7.1987,7.1987,7.1987,7.1987,7.1987,7.1987,7.1987,7.1987,7.1987,7.1987,7.1987,7.1987,7.1987,7.1987,7.1987,7.1987,7.1987,7.1987,7.1987,7.1987,7.1987,7.1987,7.1987,7.1987,7.1987,7.1987,7.1987,7.1987,7.1987,7.1987,7.1987,7.1987,7.1987,7.1987,7.1987,7.1987,7.1987,7.1987,7.1987,7.1987,7.1987,7.199,7.1995,7.2006,7.1984,7.1992,7.1939,7.1903,7.1866,7.1819,7.1799,7.1827,7.1822,7.1817,7.1817,7.1817,7.1817,7.1817,7.1817,7.1817,7.1817,7.1817,7.1817,7.1817,7.1817,7.1817,7.1817,7.1817,7.1817,7.1817,7.1817,7.1817,7.1822,7.1822,7.1827,7.1853,7.1872,7.1876,7.1881,7.1881,7.1881,7.1573,7.1066,7.0805,7.059,7.0069,6.923,6.8541,6.8241,6.7965,6.7596,6.7328,6.7079,6.673,6.6594,6.6581,6.6553,6.6546,6.6524,6.6508,6.6508,6.6508,6.647,6.6237,6.6003,6.5809,6.5498,6.4877,6.4294,6.4178,6.3983,6.3517,6.309,6.2934,7.1987,7.1987,7.1987,7.1987,7.1987,7.1987,7.1987,7.1987,7.1987,7.1987,7.1987,7.1987,7.1987,7.1987,7.1987,7.1987,7.1987,7.1987,7.1987,7.1987,7.1987,7.1987,7.1987,7.1987,7.1987,7.1987,7.1987,7.1987,7.1997,7.1993,7.199,7.1993,7.199,7.199,7.199,7.199,7.199,7.199,7.1987,7.1987,7.1987,7.199,7.1995,7.2006,7.1981,7.1992,7.1985,7.1919,7.1916,7.1876,7.1838,7.1822,7.1817,7.1817,7.1817,7.1817,7.1817,7.1817,7.1817,7.1817,7.1817,7.1817,7.1817,7.1817,7.1817,7.1817,7.1817,7.1817,7.1817,7.1817,7.1817,7.1817,7.1817,7.1817,7.1822,7.1822,7.1833,7.1838,7.1838,7.1843,7.1843,7.1843,7.1765,7.1424,7.1204,7.1,7.0727,6.993,6.9328,6.9062,6.8823,6.8343,6.7854,6.7262,6.6878,6.6647,6.66,6.6569,6.6574,6.656,6.6538,6.6508,6.6508,6.6524,6.6516,6.6361,6.6159,6.6003,6.5693,6.5188,6.5032,6.4799,6.4372,6.3983,6.3789]}]]